[[{"header":{"parameterUnit":"m.s-1","parameterCategory":1,"la1":30.6,"la2":29.2853,"lo1":-89.7004,"lo2":-87.6739,"dy":0.0162,"dx":0.0183,"nx":112,"ny":82,"refTime":"2023-03-21T12:00:00:Z","depth":0,"parameterNumber":2,"parameterNumberName":"U-component_of_WINDS"},"data":[0.0,0.0,0.0,0.0,0.0,0.0,0.0,0.0,0.0,0.0,0.0,0.0,0.0,0.0,0.0,0.0,0.0,0.0,0.0,0.0,0.0,0.0,0.0,0.0,0.0,0.0,0.0,0.0,0.0,0.0,0.0,0.0,0.0,0.0,0.0,0.0,0.0,0.0,0.0,0.0,0.0,0.0,0.0,0.0,0.0,0.0,0.0,0.0,0.0,0.0,0.0,0.0,0.0,0.0,0.0,0.0,0.0,0.0,0.0,0.0,0.0,0.0,0.0,0.0,0.0,0.0,0.0,0.0,0.0,0.0,0.0,0.0,0.0,0.0,0.0,0.0,0.0,0.0,0.0,0.0,0.0,0.0,0.0,0.0,0.0,0.0,0.0,0.0,0.0,0.0,-6.9528,-7.3275,-7.9326,-8.3074,-8.2918,-8.2684,-8.0107,-7.4486,0.0,0.0,0.0,0.0,0.0,0.0,0.0,0.0,0.0,0.0,0.0,0.0,0.0,0.0,0.0,0.0,0.0,0.0,0.0,0.0,0.0,0.0,0.0,0.0,0.0,0.0,0.0,0.0,0.0,0.0,0.0,0.0,0.0,0.0,0.0,0.0,0.0,0.0,0.0,0.0,0.0,0.0,0.0,0.0,0.0,0.0,0.0,0.0,0.0,0.0,0.0,0.0,0.0,0.0,0.0,0.0,0.0,0.0,0.0,0.0,0.0,0.0,0.0,0.0,0.0,0.0,0.0,0.0,0.0,0.0,0.0,0.0,0.0,0.0,0.0,0.0,0.0,0.0,0.0,0.0,0.0,0.0,0.0,0.0,0.0,0.0,0.0,0.0,0.0,0.0,0.0,0.0,0.0,0.0,0.0,0.0,0.0,0.0,0.0,0.0,0.0,0.0,0.0,0.0,-6.9996,-7.4915,-7.9014,-8.1083,-8.0341,-7.8936,-7.6438,-7.2612,0.0,0.0,0.0,0.0,0.0,0.0,0.0,0.0,0.0,0.0,0.0,0.0,0.0,0.0,0.0,0.0,0.0,0.0,0.0,0.0,0.0,0.0,0.0,0.0,0.0,0.0,0.0,0.0,0.0,0.0,0.0,0.0,0.0,0.0,0.0,0.0,0.0,0.0,0.0,0.0,0.0,0.0,0.0,0.0,0.0,0.0,0.0,0.0,0.0,0.0,0.0,0.0,0.0,0.0,0.0,0.0,0.0,0.0,0.0,0.0,0.0,0.0,0.0,0.0,0.0,0.0,0.0,0.0,0.0,0.0,0.0,0.0,0.0,0.0,0.0,0.0,0.0,0.0,0.0,0.0,0.0,0.0,0.0,0.0,0.0,0.0,0.0,0.0,0.0,0.0,0.0,0.0,0.0,0.0,0.0,0.0,0.0,0.0,0.0,0.0,0.0,0.0,0.0,-6.82,-7.1128,-7.5347,-7.8507,-8.0146,-7.9717,-7.8546,-7.6125,-7.226,-7.23,0.0,0.0,0.0,0.0,0.0,0.0,0.0,0.0,0.0,0.0,0.0,0.0,0.0,0.0,0.0,0.0,0.0,0.0,0.0,0.0,0.0,0.0,0.0,0.0,0.0,0.0,0.0,0.0,0.0,0.0,0.0,0.0,0.0,0.0,0.0,0.0,0.0,0.0,0.0,0.0,0.0,0.0,0.0,0.0,0.0,0.0,0.0,0.0,0.0,0.0,0.0,0.0,0.0,0.0,0.0,0.0,0.0,0.0,0.0,0.0,0.0,0.0,0.0,0.0,0.0,0.0,0.0,0.0,0.0,0.0,0.0,0.0,0.0,0.0,0.0,0.0,0.0,0.0,0.0,0.0,0.0,0.0,0.0,0.0,0.0,0.0,0.0,0.0,0.0,0.0,0.0,0.0,0.0,0.0,0.0,0.0,0.0,0.0,0.0,0.0,0.0,0.0,-6.9178,-7.1355,-7.4983,-7.7223,-7.8522,-7.8718,-7.7603,-7.5305,-7.1636,-7.0191,0.0,0.0,0.0,0.0,0.0,0.0,0.0,0.0,0.0,0.0,0.0,0.0,0.0,0.0,0.0,0.0,0.0,0.0,0.0,0.0,0.0,0.0,0.0,0.0,0.0,0.0,0.0,0.0,0.0,0.0,0.0,0.0,0.0,0.0,0.0,0.0,0.0,0.0,0.0,0.0,0.0,0.0,0.0,0.0,0.0,0.0,0.0,0.0,0.0,0.0,0.0,0.0,0.0,0.0,0.0,0.0,0.0,0.0,0.0,0.0,0.0,0.0,0.0,0.0,0.0,0.0,0.0,0.0,0.0,0.0,0.0,0.0,0.0,0.0,0.0,0.0,0.0,0.0,0.0,0.0,0.0,0.0,0.0,0.0,0.0,0.0,0.0,0.0,0.0,0.0,0.0,0.0,0.0,0.0,0.0,0.0,0.0,0.0,0.0,0.0,0.0,0.0,-6.7872,-6.943,-7.3675,-7.4457,-7.4995,-7.5814,-7.3786,-7.1636,-6.9684,-6.7303,0.0,0.0,0.0,0.0,0.0,0.0,0.0,0.0,0.0,0.0,0.0,0.0,0.0,0.0,0.0,0.0,0.0,0.0,0.0,0.0,0.0,0.0,0.0,0.0,0.0,0.0,0.0,0.0,0.0,0.0,0.0,0.0,0.0,0.0,0.0,0.0,0.0,0.0,0.0,0.0,0.0,0.0,0.0,0.0,0.0,0.0,0.0,0.0,0.0,0.0,0.0,0.0,0.0,0.0,0.0,0.0,0.0,0.0,0.0,0.0,0.0,0.0,0.0,0.0,0.0,0.0,0.0,0.0,0.0,0.0,0.0,0.0,0.0,0.0,0.0,0.0,0.0,0.0,0.0,0.0,0.0,0.0,0.0,0.0,0.0,0.0,0.0,0.0,0.0,0.0,0.0,0.0,0.0,0.0,0.0,0.0,0.0,0.0,0.0,0.0,0.0,0.0,-6.6966,-6.8793,-7.1926,-7.3332,-7.4226,-7.4645,-7.2863,-7.0849,-6.873,0.0,0.0,0.0,0.0,0.0,0.0,0.0,0.0,0.0,0.0,0.0,0.0,0.0,0.0,0.0,0.0,0.0,0.0,0.0,0.0,0.0,0.0,0.0,0.0,0.0,0.0,0.0,0.0,0.0,0.0,0.0,0.0,0.0,0.0,0.0,0.0,0.0,0.0,0.0,0.0,0.0,0.0,0.0,0.0,0.0,0.0,0.0,0.0,0.0,0.0,0.0,0.0,0.0,0.0,0.0,0.0,0.0,0.0,0.0,0.0,0.0,0.0,0.0,0.0,0.0,0.0,0.0,0.0,0.0,0.0,0.0,0.0,0.0,0.0,0.0,0.0,0.0,0.0,0.0,0.0,0.0,0.0,0.0,0.0,0.0,0.0,0.0,0.0,0.0,0.0,0.0,0.0,0.0,0.0,0.0,0.0,0.0,0.0,0.0,0.0,0.0,0.0,-6.4253,-6.5768,-6.7542,-7.0036,-7.1668,-7.2734,-7.3096,-7.1125,-6.9312,-6.8041,0.0,0.0,0.0,0.0,0.0,0.0,0.0,0.0,0.0,0.0,0.0,0.0,0.0,0.0,0.0,0.0,0.0,0.0,0.0,0.0,0.0,0.0,0.0,0.0,0.0,0.0,0.0,0.0,0.0,0.0,0.0,0.0,0.0,0.0,0.0,0.0,0.0,0.0,0.0,0.0,0.0,0.0,0.0,0.0,0.0,0.0,0.0,0.0,0.0,0.0,0.0,0.0,0.0,0.0,0.0,0.0,0.0,0.0,0.0,0.0,0.0,0.0,0.0,0.0,0.0,0.0,0.0,0.0,0.0,0.0,0.0,0.0,0.0,0.0,0.0,0.0,0.0,0.0,0.0,0.0,0.0,0.0,0.0,0.0,0.0,0.0,0.0,0.0,0.0,0.0,0.0,0.0,0.0,0.0,0.0,0.0,0.0,0.0,0.0,0.0,0.0,0.0,-6.3342,-6.4108,-6.5461,-6.8021,-6.9193,-7.0108,-7.0911,-6.7967,-6.6531,0.0,0.0,0.0,0.0,0.0,0.0,0.0,0.0,0.0,0.0,0.0,0.0,0.0,0.0,0.0,0.0,0.0,0.0,0.0,0.0,0.0,0.0,0.0,0.0,0.0,0.0,0.0,0.0,0.0,0.0,0.0,0.0,0.0,0.0,0.0,0.0,0.0,0.0,0.0,0.0,0.0,0.0,0.0,0.0,0.0,0.0,0.0,0.0,0.0,0.0,0.0,0.0,0.0,0.0,0.0,0.0,0.0,0.0,0.0,0.0,0.0,0.0,0.0,0.0,0.0,0.0,0.0,0.0,0.0,0.0,0.0,0.0,0.0,0.0,0.0,0.0,0.0,0.0,0.0,0.0,0.0,0.0,0.0,0.0,0.0,0.0,0.0,0.0,0.0,0.0,0.0,0.0,0.0,0.0,0.0,0.0,0.0,0.0,0.0,0.0,0.0,0.0,0.0,-6.2029,-6.3527,-6.5148,-6.6987,-6.8038,-6.8754,-6.9079,-6.656,-6.5247,-6.5821,0.0,0.0,0.0,0.0,0.0,0.0,0.0,0.0,0.0,0.0,0.0,0.0,0.0,0.0,0.0,0.0,0.0,0.0,0.0,0.0,0.0,0.0,0.0,0.0,0.0,0.0,0.0,0.0,0.0,0.0,0.0,0.0,0.0,0.0,0.0,0.0,0.0,0.0,0.0,0.0,0.0,0.0,0.0,0.0,0.0,0.0,0.0,0.0,0.0,0.0,0.0,0.0,0.0,0.0,0.0,0.0,0.0,0.0,0.0,0.0,0.0,0.0,0.0,0.0,0.0,0.0,0.0,0.0,0.0,0.0,0.0,0.0,0.0,0.0,0.0,0.0,0.0,0.0,0.0,0.0,0.0,0.0,0.0,0.0,0.0,0.0,0.0,0.0,0.0,0.0,0.0,0.0,0.0,0.0,0.0,0.0,0.0,0.0,0.0,0.0,0.0,0.0,-6.1094,-6.2755,-6.4451,-6.6047,-6.7034,-6.7606,-6.7644,-6.5649,-6.4499,-6.4831,0.0,0.0,0.0,0.0,0.0,0.0,0.0,0.0,0.0,0.0,0.0,0.0,0.0,0.0,0.0,0.0,0.0,0.0,0.0,0.0,0.0,0.0,0.0,0.0,0.0,0.0,0.0,0.0,0.0,0.0,0.0,0.0,0.0,0.0,0.0,0.0,0.0,0.0,0.0,0.0,0.0,0.0,0.0,0.0,0.0,0.0,0.0,0.0,0.0,0.0,0.0,0.0,0.0,0.0,0.0,0.0,0.0,0.0,0.0,0.0,0.0,0.0,0.0,0.0,0.0,0.0,0.0,0.0,0.0,0.0,0.0,0.0,0.0,0.0,0.0,0.0,0.0,0.0,0.0,0.0,0.0,0.0,0.0,0.0,0.0,0.0,0.0,0.0,0.0,0.0,0.0,0.0,0.0,0.0,0.0,0.0,0.0,0.0,0.0,0.0,0.0,0.0,-6.0444,-6.1923,-6.3542,-6.5303,-6.6207,-6.6636,-6.656,-6.5108,-6.4245,-6.436,0.0,0.0,0.0,0.0,0.0,0.0,0.0,0.0,0.0,0.0,0.0,0.0,0.0,0.0,0.0,0.0,0.0,0.0,0.0,0.0,0.0,0.0,0.0,0.0,0.0,0.0,0.0,0.0,0.0,0.0,0.0,0.0,0.0,0.0,0.0,0.0,0.0,0.0,0.0,0.0,0.0,0.0,0.0,0.0,0.0,0.0,0.0,0.0,0.0,0.0,0.0,0.0,0.0,0.0,0.0,0.0,0.0,0.0,0.0,0.0,-7.491,-7.5544,0.0,0.0,0.0,0.0,0.0,0.0,0.0,0.0,0.0,0.0,0.0,0.0,0.0,0.0,0.0,0.0,0.0,0.0,0.0,0.0,0.0,0.0,0.0,0.0,0.0,0.0,0.0,0.0,0.0,0.0,0.0,0.0,0.0,0.0,0.0,0.0,0.0,0.0,0.0,0.0,-6.0158,-6.1291,-6.2806,-6.5176,-6.5597,-6.5696,-6.5681,-6.4764,-6.3977,-6.3526,-6.0923,0.0,0.0,0.0,0.0,0.0,0.0,0.0,0.0,0.0,0.0,0.0,0.0,0.0,0.0,0.0,0.0,0.0,0.0,0.0,0.0,0.0,0.0,0.0,0.0,0.0,0.0,0.0,0.0,0.0,0.0,0.0,0.0,0.0,0.0,0.0,0.0,0.0,0.0,0.0,0.0,0.0,0.0,0.0,0.0,0.0,0.0,0.0,0.0,0.0,0.0,0.0,0.0,0.0,0.0,0.0,0.0,0.0,0.0,0.0,-7.4807,-7.4962,0.0,0.0,0.0,0.0,0.0,0.0,0.0,0.0,0.0,0.0,0.0,0.0,0.0,0.0,0.0,0.0,0.0,0.0,0.0,0.0,0.0,0.0,0.0,0.0,0.0,0.0,0.0,0.0,0.0,0.0,0.0,0.0,0.0,0.0,0.0,0.0,0.0,0.0,0.0,0.0,-6.0078,-6.1096,-6.2586,-6.5146,-6.5413,-6.5413,-6.5413,-6.4649,-6.3882,-6.3102,-6.0661,0.0,0.0,0.0,0.0,0.0,0.0,0.0,0.0,0.0,0.0,0.0,0.0,0.0,0.0,0.0,0.0,0.0,0.0,0.0,0.0,0.0,0.0,0.0,0.0,0.0,0.0,0.0,0.0,0.0,0.0,0.0,0.0,0.0,0.0,0.0,0.0,0.0,0.0,0.0,0.0,0.0,0.0,0.0,0.0,0.0,0.0,0.0,0.0,0.0,0.0,0.0,0.0,0.0,-7.5246,-7.5682,-7.6972,-7.6126,-7.5745,-7.5694,-7.5253,-7.4789,-7.4336,-7.3657,0.0,0.0,0.0,0.0,0.0,0.0,0.0,0.0,0.0,0.0,0.0,0.0,0.0,0.0,0.0,0.0,0.0,0.0,0.0,0.0,0.0,0.0,0.0,0.0,-6.4991,-6.4082,-6.3169,0.0,0.0,0.0,0.0,0.0,0.0,0.0,0.0,0.0,0.0,0.0,-5.9835,-6.0905,-6.2357,-6.4917,-6.5337,-6.5413,-6.5413,-6.4802,-6.3962,-6.2968,-6.0637,-5.8918,0.0,0.0,0.0,0.0,0.0,0.0,0.0,0.0,0.0,0.0,0.0,0.0,0.0,0.0,0.0,0.0,0.0,0.0,0.0,0.0,0.0,0.0,0.0,0.0,0.0,0.0,0.0,0.0,0.0,0.0,0.0,0.0,-7.9204,-7.7569,0.0,0.0,0.0,0.0,0.0,0.0,0.0,0.0,0.0,0.0,0.0,0.0,0.0,-7.5019,-7.5839,-7.5649,-7.557,-7.5665,-7.6245,-7.656,-7.6699,-7.7217,-7.7484,-7.741,-7.6709,0.0,-7.3855,-7.3723,0.0,0.0,0.0,0.0,0.0,0.0,0.0,0.0,0.0,0.0,0.0,0.0,0.0,0.0,0.0,0.0,0.0,0.0,0.0,0.0,0.0,0.0,-6.4577,-6.5682,-6.5009,-6.3823,0.0,-6.226,-6.1837,-6.0851,-6.0684,0.0,0.0,0.0,0.0,0.0,0.0,0.0,-5.8956,-6.0026,-6.1516,-6.4091,-6.4993,-6.5413,-6.5413,-6.5299,-6.4573,-6.3006,-6.1211,-5.9529,-5.7963,-5.6282,0.0,0.0,0.0,0.0,0.0,0.0,0.0,0.0,0.0,0.0,0.0,0.0,0.0,0.0,0.0,0.0,0.0,0.0,0.0,0.0,0.0,0.0,0.0,0.0,0.0,0.0,0.0,0.0,0.0,-7.9554,-7.9095,-7.6702,-7.6841,-7.6243,0.0,0.0,0.0,0.0,0.0,0.0,0.0,0.0,0.0,-7.523,-7.5632,-7.6023,-7.6356,-7.6801,-7.7255,-7.7681,-7.8023,-7.8401,-7.8787,-7.8559,-7.8456,-7.8419,-7.7607,-7.6494,-7.516,-7.3734,-7.2643,-7.1797,0.0,0.0,0.0,0.0,-7.0567,-7.0771,-7.0045,-7.0079,-7.0317,-6.9472,0.0,0.0,0.0,0.0,0.0,0.0,0.0,0.0,0.0,0.0,-6.4249,-6.4784,-6.4498,-6.3723,-6.2296,-6.185,-6.1473,0.0,-6.0043,-5.9341,-5.8116,0.0,0.0,0.0,0.0,-5.6816,-5.8842,-5.9873,-6.1172,-6.3236,-6.4229,-6.4726,-6.4726,-6.4726,-6.4191,-6.2968,-6.0867,-5.9147,-5.7963,-5.6282,-5.5403,0.0,0.0,0.0,0.0,0.0,0.0,0.0,0.0,0.0,0.0,0.0,0.0,0.0,0.0,0.0,0.0,0.0,0.0,0.0,0.0,0.0,0.0,0.0,0.0,0.0,0.0,0.0,0.0,-7.869,-7.8723,-7.6101,-7.6753,-7.6419,0.0,0.0,0.0,0.0,0.0,0.0,-7.549,-7.5527,-7.601,-7.7013,-7.7534,-7.7894,-7.8117,-7.8903,-7.9438,-7.9853,-8.023,-8.0577,-8.0916,-8.0389,-7.9996,-7.9774,-7.8963,-7.8129,-7.7082,-7.4425,-7.2826,-7.2024,-7.1024,-7.0363,-6.9985,-6.9953,-6.9976,-6.9887,-6.9113,-6.9087,-6.9334,-6.8716,-6.8012,-6.7091,-6.5176,0.0,0.0,0.0,0.0,-6.216,-6.2882,-6.3418,-6.3787,-6.393,-6.3829,-6.3414,-6.2096,-6.1666,-6.1281,0.0,-5.9703,-5.8866,-5.8029,0.0,0.0,0.0,-5.5784,-5.6863,-5.8295,-5.9452,-6.07,-6.2262,-6.3383,-6.4077,-6.4191,-6.4206,-6.3732,-6.2624,-6.0408,-5.8651,-5.7619,-5.6167,-5.5403,-5.5403,0.0,0.0,0.0,0.0,0.0,0.0,0.0,0.0,0.0,0.0,0.0,0.0,0.0,0.0,0.0,0.0,0.0,0.0,0.0,0.0,0.0,0.0,0.0,0.0,0.0,0.0,0.0,0.0,0.0,-7.6037,-7.7236,0.0,0.0,0.0,0.0,-7.5676,-7.6456,-7.7273,-7.8053,-7.809,-7.8833,-8.0394,-8.0505,-8.0914,-8.1731,-8.2334,-8.2221,-8.1403,-8.2729,-8.2969,-8.2145,-8.288,-8.277,-8.1998,-8.1191,-8.0383,-7.9391,-7.6273,-7.3963,-7.2304,-7.0753,-6.9651,-6.898,-6.898,-6.898,-6.909,-6.9761,-6.9541,-6.8926,-6.8889,-6.7022,-6.4485,-6.2874,-6.2242,0.0,0.0,-6.2442,-6.2831,-6.3325,-6.3168,-6.2965,-6.3422,-6.3205,-6.2744,-6.2264,-6.1558,-6.089,0.0,-5.974,-5.8932,-5.805,0.0,-5.6151,-5.461,-5.5044,-5.587,-5.6715,-5.8256,-5.9716,-6.0984,-6.2627,-6.3802,-6.4176,-6.4206,-6.3465,-6.1784,-6.0064,-5.8383,-5.674,-5.5861,-5.5403,-5.5403,-5.5403,0.0,0.0,0.0,0.0,0.0,0.0,0.0,0.0,0.0,0.0,0.0,0.0,0.0,0.0,0.0,0.0,0.0,0.0,0.0,0.0,0.0,0.0,0.0,0.0,0.0,0.0,0.0,0.0,-7.9019,-7.9985,0.0,-7.8648,-7.783,-7.7608,-7.8128,-7.8462,-7.9242,-8.058,-8.0654,-8.1174,-8.2251,-8.272,-8.3069,-8.3328,-8.412,-8.4318,-8.4028,-8.3878,-8.364,-8.3281,-8.2835,-8.248,-8.215,-8.1342,-8.0534,-7.9648,-7.7439,-7.5536,-7.3891,-7.2275,-7.0844,-6.9669,-6.9669,-6.9009,-6.8164,-6.8458,-6.8017,-6.7283,-6.6769,-6.5147,-6.3419,-6.3419,-6.2338,-6.1245,-6.2277,-6.2304,-6.2194,-6.2879,-6.2929,-6.283,-6.299,-6.2929,-6.261,-6.1958,-6.16,-6.1168,-6.0537,-5.9316,-5.8258,-5.7958,-5.7245,-5.6514,-5.5913,-5.6514,-5.717,-5.7432,-5.8483,-5.9383,-5.9791,-6.092,-6.176,-6.2097,-6.2129,-6.1766,-6.0891,-5.9262,-5.781,-5.6625,-5.5823,-5.5403,-5.5403,-5.5403,-5.5135,0.0,0.0,0.0,0.0,0.0,0.0,0.0,0.0,0.0,0.0,0.0,0.0,0.0,0.0,0.0,0.0,0.0,0.0,0.0,0.0,0.0,0.0,0.0,0.0,0.0,-7.8871,-8.1137,-8.1137,-8.2586,-8.318,-8.2066,-8.1211,-8.0877,-8.1137,-8.1397,-8.2028,-8.3143,-8.3217,-8.3589,-8.4369,-8.4835,-8.504,-8.4941,-8.5725,-8.581,-8.5192,-8.4742,-8.424,-8.3687,-8.2945,-8.2296,-8.1782,-8.1232,-8.0534,-7.9653,-7.8002,-7.6503,-7.5139,-7.323,-7.1688,-7.044,-6.9889,-6.9009,-6.8017,-6.7467,-6.6953,-6.6329,-6.5228,-6.4127,-6.3282,-6.3576,-6.2511,-6.1447,-6.2487,-6.2438,-6.2144,-6.2658,-6.278,-6.278,-6.278,-6.2585,-6.2254,-6.1704,-6.1153,-6.0639,-6.0126,-5.9094,-5.8249,-5.7988,-5.728,-5.6646,-5.6385,-5.7019,-5.7541,-5.7541,-5.8269,-5.885,-5.8988,-5.9794,-6.0454,-6.078,-6.0815,-6.0463,-5.9642,-5.8022,-5.6578,-5.5475,-5.5026,-5.4775,-5.4775,-5.4893,-5.4409,-5.3263,0.0,0.0,0.0,0.0,0.0,0.0,0.0,0.0,0.0,0.0,0.0,0.0,0.0,0.0,0.0,0.0,0.0,0.0,0.0,0.0,0.0,0.0,0.0,-7.5936,-7.9465,-8.2103,-8.2251,-8.5,-8.6301,-8.4778,-8.5261,-8.5335,-8.4555,-8.5223,-8.5669,-8.5669,-8.5669,-8.6041,-8.6821,-8.6821,-8.6765,-8.6645,-8.7189,-8.655,-8.4842,-8.5444,-8.4903,-8.3398,-8.3361,-8.248,-8.1012,-8.0938,-8.0461,-7.958,-7.7965,-7.679,-7.5763,-7.345,-7.2018,-7.1101,-6.9486,-6.8862,-6.8568,-6.699,-6.6439,-6.6145,-6.4567,-6.4053,-6.3906,-6.3062,-6.278,-6.278,-6.278,-6.278,-6.278,-6.278,-6.278,-6.278,-6.278,-6.2218,-6.163,-6.1594,-6.0382,-5.9258,-5.9184,-5.9184,-5.8927,-5.8143,-5.7336,-5.6565,-5.5794,-5.6345,0.0,-5.6859,-5.7519,-5.8142,-5.8524,-5.935,-6.0021,-6.0398,-6.0398,-5.9647,-5.805,-5.6359,-5.4706,-5.3128,-5.3369,-5.3547,-5.3547,-5.3834,-5.32,-5.157,0.0,0.0,0.0,0.0,0.0,0.0,0.0,0.0,0.0,0.0,0.0,0.0,0.0,0.0,0.0,0.0,0.0,0.0,0.0,0.0,0.0,-7.6679,-7.8016,-7.9168,-8.188,-8.4815,-8.7787,-8.8418,-8.8901,-8.9607,-8.8307,-8.7304,-8.7081,-8.7267,-8.7415,-8.7415,-8.7415,-8.749,-8.775,-8.7587,-8.7492,-8.746,-8.693,-8.6357,-8.5881,-8.4797,-8.4036,-8.3594,-8.2288,-8.1415,-8.0938,-7.9764,-7.8772,-7.7928,-7.6864,-7.5285,-7.3487,-7.3413,-7.2165,-7.0293,-6.9302,-6.7797,-6.6145,-6.5118,-6.4751,-6.4567,-6.3503,-6.3172,-6.3135,-6.2879,-6.278,-6.278,-6.278,-6.278,-6.278,-6.278,-6.278,-6.278,-6.278,-6.2658,-6.2328,-6.1741,-6.1263,-6.0603,-5.9404,-5.9184,-5.8927,-5.8143,-5.7813,-5.7593,-5.7373,-5.7519,0.0,-5.7666,-5.785,-5.8042,-5.8142,-5.8385,-5.8695,-5.9086,-5.8045,-5.7024,-5.6229,-5.4647,-5.3273,-5.2188,-5.2247,-5.2294,-5.2294,-5.182,-5.1476,0.0,0.0,0.0,0.0,0.0,0.0,0.0,0.0,0.0,0.0,0.0,0.0,0.0,0.0,0.0,0.0,0.0,0.0,0.0,0.0,0.0,0.0,-7.9019,-8.1137,-8.3477,-8.5038,-8.7192,-9.061,-9.0907,-9.1353,-9.2616,-9.1167,-8.9867,-8.9161,-8.9124,-8.879,-8.8121,-8.8084,-8.8084,-8.8084,-8.7927,-8.7646,-8.7312,-8.6574,-8.5886,-8.5148,-8.377,-8.29,-8.2532,-8.1149,-8.0131,-7.9433,-7.8846,-7.7708,-7.6283,-7.6166,-7.4882,0.0,0.0,0.0,0.0,0.0,-6.7283,-6.5632,-6.4494,-6.409,-6.3943,-6.3099,-6.278,-6.278,-6.278,-6.278,-6.278,-6.278,-6.278,-6.278,-6.278,-6.2548,-6.2401,-6.2707,-6.2291,-6.1667,-6.119,-6.0823,-6.0236,-5.8951,-5.8694,0.0,-5.807,-5.7997,-5.7997,-5.7997,-5.7997,-5.7997,-5.7997,-5.7997,-5.7997,-5.7997,-5.7997,-5.7964,-5.7845,-5.7312,0.0,0.0,0.0,-5.2526,-5.1149,-5.1075,0.0,0.0,0.0,-5.0515,-5.034,0.0,0.0,0.0,-5.2221,-5.3225,0.0,0.0,0.0,0.0,0.0,0.0,0.0,0.0,0.0,0.0,0.0,0.0,0.0,0.0,0.0,0.0,-8.1843,-8.4629,-8.801,-8.8493,-8.9347,-9.1688,-9.2579,-9.3322,-9.4102,-9.3359,-9.2245,-9.0759,-9.0462,-8.9756,-8.8307,-8.8047,0.0,0.0,0.0,-8.7423,-8.6608,-8.6103,-8.5054,-8.3507,-8.2463,-8.1595,-8.086,-8.0052,-7.8846,-7.7457,-7.8075,-7.7011,-7.4955,-7.5579,-7.4845,-7.323,-7.2496,-7.1174,-6.9486,-6.7981,-6.6843,-6.5888,-6.4457,0.0,0.0,-6.3062,-6.278,-6.278,-6.278,-6.278,-6.278,-6.278,-6.278,-6.278,-6.278,-6.2291,-6.1924,-6.2658,-6.163,-6.0529,-6.0419,-5.9795,-5.8964,-5.8143,-5.7997,-5.7997,-5.7997,-5.7997,-5.7997,-5.7997,-5.7997,-5.7997,-5.7997,-5.7997,-5.7997,-5.7997,0.0,0.0,-5.7005,-5.7336,-5.6418,-5.3665,-5.3151,-5.1992,-4.9969,-4.9913,-5.0033,-5.0333,-5.0349,-4.9974,-4.9256,-4.9541,-5.0137,-5.1064,-5.1447,-5.2436,0.0,0.0,0.0,0.0,0.0,0.0,0.0,0.0,0.0,0.0,0.0,0.0,0.0,0.0,0.0,-8.1128,-8.3552,-8.6524,-9.0462,-9.1019,-9.1688,-9.3508,-9.3285,-9.3322,-9.4102,-9.2839,-9.1836,-9.1502,-9.0276,-8.9384,-8.9087,-8.7787,-8.7378,-8.8084,-8.7927,-8.7423,-8.6608,-8.5086,-8.3814,-8.2855,0.0,0.0,-8.0173,-7.9239,-7.8662,-7.8295,-7.7084,-7.5946,-7.4882,-7.4368,-7.2826,-7.077,-7.0624,-6.9192,-6.7063,-6.6109,-6.4824,-6.3466,-6.3172,-6.3062,-6.3025,-6.2853,-6.278,-6.278,-6.278,-6.278,0.0,-6.278,-6.278,-6.278,-6.278,-6.2695,-6.2622,-6.2768,-6.2071,-6.119,-6.0529,-5.9795,-5.8964,-5.8143,-5.7997,-5.7997,-5.7997,-5.7997,-5.7997,-5.7997,-5.7997,-5.7997,-5.7997,-5.7997,-5.7997,-5.7997,-5.7997,-5.7923,-5.7776,-5.6124,-5.5097,-5.5133,-5.2711,-5.0475,-4.8714,-4.866,-4.8678,-4.8735,-4.8735,-4.8807,-4.8919,-4.8949,-4.9594,-5.0719,-5.1319,-5.1967,0.0,0.0,0.0,0.0,0.0,0.0,0.0,0.0,0.0,0.0,0.0,-7.7927,-7.8288,0.0,-8.1545,-8.3997,-8.6449,-8.8901,-9.1353,-9.2765,-9.3842,-9.4697,-9.3731,-9.3136,-9.3545,-9.2468,-9.1353,-9.0573,-8.9384,-8.8678,-8.8678,-8.749,-8.7007,-8.7452,-8.7296,-8.6455,-8.4916,-8.3855,-8.2727,-8.1568,-8.0161,-7.9449,-7.9388,-7.8486,-7.7586,-7.6717,-7.6276,-7.5212,-7.3634,-7.2826,-7.1321,-6.9486,-6.9486,-6.8531,-6.6953,-6.5742,-6.4787,-6.3918,-6.3099,-6.278,-6.278,-6.278,-6.278,-6.278,-6.278,-6.278,-6.278,-6.278,-6.278,-6.278,-6.278,-6.2511,-6.2218,-6.2218,-6.1594,-6.0786,-5.9979,-5.9478,-5.8964,-5.8143,-5.7997,-5.7997,-5.7997,-5.7997,-5.7997,-5.7997,-5.7997,-5.7997,-5.7997,-5.7997,-5.7997,-5.7997,-5.7997,-5.785,-5.7446,-5.5574,-5.4399,-5.4399,-5.2123,-5.0068,-4.8379,-4.8306,-4.8306,-4.8306,-4.8306,-4.8401,-4.855,-4.8711,-4.9088,-4.9699,-5.0212,-5.0795,0.0,0.0,0.0,0.0,0.0,0.0,0.0,-7.7476,-7.7332,-7.9414,-7.9698,-8.0061,-8.1608,-8.3135,-8.4815,-8.6932,-8.9236,-9.1056,-9.2059,-9.3768,-9.4994,-9.5143,-9.4028,-9.3174,-9.3025,-9.2059,-9.0982,-8.983,-8.8567,-8.7898,-8.8084,-8.7118,-8.6561,-8.6561,-8.6623,-8.5547,-8.3217,-8.2763,-8.1814,-8.0303,-7.9305,-7.8751,-7.8632,-7.7938,-7.6744,-7.5264,-7.5595,-7.4427,-7.2231,-7.1423,-7.0248,-6.8926,-6.8752,-6.8301,-6.7557,-6.5888,-6.5118,-6.4615,-6.3257,-6.278,-6.278,-6.278,-6.278,-6.278,-6.278,-6.278,-6.278,-6.278,-6.278,-6.278,-6.278,-6.2218,-6.1594,-6.1594,-6.086,-6.0015,-5.9331,-5.9074,-5.8804,-5.8143,-5.7997,-5.7997,-5.7997,-5.7997,-5.7997,-5.7997,-5.7997,-5.7997,-5.7997,-5.7997,-5.7997,-5.7997,-5.7997,-5.7666,-5.6859,-5.5611,-5.4399,-5.3298,-5.183,-5.0288,-4.8636,-4.8379,-4.8306,-4.8306,-4.8306,-4.8306,-4.8306,-4.8587,-4.8693,-4.8693,-4.8982,-4.9535,-7.9622,-7.7645,-7.6736,-7.7988,-7.7136,-7.7015,0.0,-8.0516,-7.996,-8.207,-8.3257,-8.3881,-8.3752,-8.5814,-8.7861,-8.8864,-9.0462,-9.2133,-9.3694,-9.3545,-9.3545,-9.4251,-9.4177,-9.3768,-9.3062,-9.1576,-9.087,-9.139,-8.8641,-8.7267,-8.8047,-8.6598,-8.5743,-8.5743,-8.6382,-8.5632,-8.3217,-8.2445,-8.1257,-7.9585,-7.859,-7.8097,-7.8068,-7.785,-7.7274,-7.6359,-7.4994,-7.336,-7.1554,-7.0744,-6.9898,-6.8987,-6.8145,-6.7841,-6.7689,-6.5941,-6.4383,-6.3037,-6.2879,-6.278,-6.278,-6.278,-6.278,-6.278,-6.278,-6.278,-6.278,-6.278,-6.278,-6.278,-6.278,-6.2218,-6.1594,-6.1594,-6.0456,-5.9294,-5.9221,-5.8657,-5.8107,-5.8033,-5.7997,-5.7997,-5.7997,-5.7997,-5.7997,-5.7997,-5.7997,-5.7997,-5.7997,-5.7997,-5.7997,-5.7997,-5.7997,-5.7666,-5.6859,-5.6638,-5.5574,-5.3314,-5.2344,-5.1153,-4.9537,-4.871,-4.8306,-4.8306,-4.8306,-4.8306,-4.8306,-4.8344,-4.8363,-4.8363,-4.8383,-4.8624,-8.0353,-7.859,-7.7992,-7.9673,-7.9567,-7.9884,-8.307,-8.2862,-8.2726,-8.5284,-8.6171,-8.6715,-8.7415,-8.8898,-9.0109,-9.06,-9.1688,-9.2691,-9.3397,-9.3211,-9.2765,-9.2133,-9.2468,-9.2616,-9.2282,-9.1205,-9.0239,-8.9644,-8.7415,-8.6449,-8.7304,-8.6226,-8.5818,-8.6264,-8.6152,-8.4926,-8.2511,-8.1657,-8.0654,-7.9465,-7.8592,-7.8359,-7.8718,-7.7698,-7.6503,-7.5124,-7.3462,-7.2069,-7.087,-7.0032,-6.9221,-6.8472,-6.8088,-6.7631,-6.7126,-6.6308,-6.5264,-6.42,-6.3723,-6.3209,-6.278,-6.278,-6.278,-6.278,-6.278,-6.278,-6.278,-6.278,-6.278,-6.2695,-6.2292,-6.19,-6.1361,-6.0515,-5.9732,-5.9074,-5.8621,-5.8253,-5.7997,-5.7997,-5.7997,-5.7997,-5.7997,-5.7997,-5.7997,-5.7997,-5.7997,-5.7997,-5.7997,-5.7997,-5.7997,-5.7997,-5.7997,-5.785,-5.7519,-5.7079,-5.5978,-5.4032,-5.3151,-5.1756,-4.9684,-4.9243,-4.882,-4.8306,-4.8306,-4.8306,-4.8306,-4.8306,-4.8306,-4.8306,-4.8306,-4.8401,-8.0016,-7.9236,-7.958,-8.175,-8.2438,-8.3279,-8.5758,-8.5802,-8.6065,-8.8634,-8.9243,-8.9631,-9.0782,-9.1536,-9.1979,-9.2077,-9.2579,-9.2988,-9.2988,-9.2579,-9.1762,-9.035,-9.0276,-9.035,-9.035,-9.0053,-8.9347,-8.8195,-8.6338,-8.5521,-8.6115,-8.5781,-8.5669,-8.5781,-8.5669,-8.4332,-8.1657,-8.1025,-8.0171,-7.9168,-7.8796,-7.8889,-7.9323,-7.7626,-7.594,-7.4201,-7.2536,-7.1353,-7.0486,-6.9673,-6.886,-6.8121,-6.7874,-6.738,-6.6787,-6.6386,-6.5694,-6.4861,-6.4016,-6.3319,-6.278,-6.278,-6.278,-6.278,-6.278,-6.278,-6.278,-6.278,-6.283,-6.2696,-6.1984,-6.1592,-6.1077,-5.9771,-5.9164,-5.8777,-5.8189,-5.802,-5.7997,-5.7997,-5.7997,-5.7997,-5.7997,-5.7997,-5.7997,-5.7997,-5.7997,-5.7997,-5.7997,-5.7997,-5.7997,-5.7997,-5.7997,-5.7923,-5.7703,-5.6932,-5.5868,-5.4473,-5.3445,-5.1977,-5.0014,-4.9721,-4.9206,-4.8343,-4.8306,-4.8306,-4.8306,-4.8306,-4.8306,-4.8306,-4.8306,-4.8306,-7.7778,-7.8851,-8.0779,-8.4207,-8.5612,-8.6801,-8.936,-8.9816,-9.0192,-9.2,-9.2563,-9.2847,-9.3138,-9.3491,-9.3552,-9.3044,-9.2988,-9.2988,-9.2988,-9.1613,-9.0276,-8.9421,-8.7935,-8.6932,-8.6932,-8.7675,-8.8158,-8.8084,-8.5818,-8.4443,-8.448,-8.5186,-8.4889,-8.3366,-8.4778,-8.4035,-8.0765,-8.0691,-7.9874,-7.8351,-7.9094,-7.9465,-7.9428,-7.783,-7.6159,-7.4487,-7.2889,-7.1624,-7.0605,-6.9828,-6.9013,-6.821,-6.7271,-6.7,-6.6963,-6.5939,-6.4952,-6.4016,-6.3135,-6.2817,-6.278,-6.278,-6.278,-6.278,-6.278,-6.278,-6.278,-6.278,-6.288,-6.2818,-6.2008,-6.1329,-6.0609,-5.9797,-5.8895,-5.8215,-5.8215,-5.8088,-5.7997,-5.7997,-5.7997,-5.7997,-5.7997,-5.7997,-5.7997,-5.7997,-5.7997,-5.7997,-5.7997,-5.7997,-5.7997,-5.7997,-5.7997,-5.7666,-5.6895,-5.6088,-5.528,-5.4436,-5.2894,-5.1646,-5.0802,-5.0014,-4.9206,-4.8343,-4.8306,-4.8306,-4.8306,-4.8306,-4.8306,-4.8306,-4.8306,-4.8306,-8.0017,-8.2324,-8.5175,-8.8601,-8.9624,-9.0296,-9.2189,-9.2601,-9.2858,-9.3959,-9.2409,-9.0838,-9.0552,-9.0307,-8.9781,-8.865,-9.0534,-9.2133,-9.2133,-9.1205,-8.9793,-8.7861,-8.7155,-8.6152,-8.4555,-8.5632,-8.6449,-8.6449,-8.5149,-8.4406,-8.4406,-8.4666,-8.4778,-8.4778,-8.4778,-8.3737,-8.1583,-8.0988,-8.0134,-7.9094,-7.8833,-7.8128,-7.7013,-7.5936,-7.4848,-7.3707,-7.2072,-7.1155,-7.0733,-6.9397,-6.8692,-6.8395,-6.8087,-6.7926,-6.7728,-6.6285,-6.5521,-6.5004,-6.4019,-6.3282,-6.278,-6.278,-6.2855,-6.2929,-6.2929,-6.2978,-6.3051,-6.3051,-6.3099,-6.2962,-6.2244,-6.1468,-6.0632,-5.9908,-5.9006,-5.8305,-5.8238,-5.8156,-5.8088,-5.802,-5.7997,-5.7997,-5.7997,-5.7997,-5.7997,-5.7997,-5.7997,-5.7997,-5.7997,-5.7997,-5.7997,-5.7997,-5.7997,-5.7666,-5.6859,-5.6051,-5.5244,-5.4436,-5.3408,-5.2454,-5.161,-5.0802,-4.9994,-4.9187,-4.86,-4.8306,-4.8306,-4.8306,-4.8306,-4.8306,-4.8306,-4.8306,-8.2436,-8.5508,-8.8739,-9.1803,-9.2982,-9.3694,-9.4679,-9.4596,-9.4373,-9.459,-9.2112,-8.9548,-8.8418,-8.7528,-8.6555,-8.5146,-8.7004,-8.8976,-8.983,-8.8753,-8.749,-8.6486,-8.5595,-8.448,-8.292,-8.37,-8.4555,-8.5112,-8.4406,-8.396,-8.396,-8.422,-8.4518,-8.474,-8.4518,-8.3477,-8.1545,-8.0988,-8.0134,-7.9056,-7.8536,-7.7422,-7.5787,-7.5267,-7.429,-7.2889,-7.1515,-7.0747,-7.0375,-6.9038,-6.8357,-6.8036,-6.7763,-6.7393,-6.6876,-6.5517,-6.4964,-6.4757,-6.4021,-6.3407,-6.2929,-6.2929,-6.3002,-6.3075,-6.3075,-6.3123,-6.3194,-6.3194,-6.3218,-6.3104,-6.2396,-6.1804,-6.11,-6.0092,-5.936,-5.8806,-5.8386,-5.8268,-5.8238,-5.8088,-5.8065,-5.8042,-5.7997,-5.7997,-5.7997,-5.7997,-5.7997,-5.7997,-5.7997,-5.7997,-5.7997,-5.7997,-5.7997,-5.7556,-5.6455,-5.5904,-5.5133,-5.4032,-5.3482,-5.2858,-5.2013,-5.1242,-5.0398,-4.9574,-4.8746,-4.8306,-4.8306,-4.8306,-4.8306,-4.8306,-4.8306,-4.8306,-8.4833,-8.8235,-9.1434,-9.3811,-9.5578,-9.6715,-9.6715,-9.5836,-9.4793,-9.389,-9.1472,-8.8818,-8.6603,-8.5198,-8.398,-8.2646,-8.2995,-8.4213,-8.6598,-8.4963,-8.4035,-8.5409,-8.3589,-8.214,-8.1991,-8.2028,-8.2697,-8.422,-8.3626,-8.318,-8.318,-8.3923,-8.3997,-8.3217,-8.3886,-8.3106,-8.0728,-8.0617,-7.9799,-7.8276,-7.8202,-7.731,-7.5787,-7.5713,-7.4413,-7.2172,-7.1292,-7.045,-6.9633,-6.8816,-6.806,-6.7317,-6.6537,-6.5719,-6.4879,-6.391,-6.3553,-6.353,-6.3279,-6.3194,-6.3194,-6.3194,-6.3194,-6.3194,-6.3194,-6.3231,-6.3194,-6.3194,-6.3289,-6.322,-6.2442,-6.2287,-6.193,-6.0333,-5.9838,-5.9529,-5.8751,-5.848,-5.8371,-5.826,-5.8179,-5.8133,-5.802,-5.7997,-5.7997,-5.7997,-5.7997,-5.7997,-5.7997,-5.7997,-5.7997,-5.7997,-5.7997,-5.7373,-5.5794,-5.5611,-5.4913,-5.3371,-5.3203,-5.2858,-5.2087,-5.1279,-5.0435,-4.9591,-4.8783,-4.8343,-4.8306,-4.8306,-4.8306,-4.8306,-4.8306,-4.8306,-8.7985,-9.1432,-9.489,-9.6662,-9.6923,-9.6777,-9.6715,-9.547,-9.3731,-9.1534,-8.7478,-8.3564,-8.1019,-8.0503,-8.0418,-8.031,-8.3723,-8.6955,-8.8444,-8.8121,-8.7192,-8.5781,-8.5038,-8.396,-8.2177,-8.2511,-8.3032,-8.3477,-8.3329,-8.318,-8.318,-8.3366,-8.3403,-8.3217,-8.2809,-8.1991,-8.0691,-7.9502,-7.8685,-7.8276,-7.7013,-7.6196,-7.575,-7.4561,-7.3361,-7.2172,-7.1292,-7.045,-6.9633,-6.8816,-6.837,-6.8171,-6.7986,-6.7763,-6.7367,-6.5932,-6.5413,-6.5227,-6.3956,-6.3373,-6.3194,-6.3194,-6.3242,-6.3336,-6.3336,-6.3442,-6.3488,-6.3488,-6.3511,-6.3371,-6.2554,-6.1945,-6.141,-6.0964,-5.9903,-5.908,-5.9403,-5.8952,-5.8443,-5.8371,-5.8282,-5.8133,-5.802,-5.7997,-5.7997,-5.7997,-5.7997,-5.7997,-5.7997,-5.7997,-5.7997,-5.7997,-5.7997,-5.7593,-5.6565,-5.5941,-5.517,-5.4179,-5.3555,-5.3115,-5.2894,-5.2123,-5.1316,-5.0472,-4.9664,-4.893,-4.8306,-4.8306,-4.8306,-4.8306,-4.8306,-4.8306,-9.1954,-9.498,-9.7644,-9.8065,-9.8046,-9.731,-9.5022,-9.3446,-9.1376,-8.7573,-8.3595,-7.9914,-7.7299,-7.7138,-7.755,-7.8116,-8.1349,-8.4625,-8.7151,-8.6966,-8.6375,-8.5669,-8.5298,-8.4406,-8.2697,-8.292,-8.318,-8.318,-8.318,-8.318,-8.318,-8.318,-8.318,-8.318,-8.2734,-8.1917,-8.0691,-7.9094,-7.7905,-7.7199,-7.6233,-7.5416,-7.471,-7.3781,-7.2741,-7.1589,0.0,-7.0227,-6.9113,-6.8691,-6.8097,-6.7465,-6.7465,-6.702,-6.6239,-6.5348,-6.5013,-6.4865,-6.3936,-6.3511,-6.3396,-6.3396,-6.3442,-6.3488,-6.3488,-6.3534,-6.3602,-6.3602,-6.3602,-6.3416,-6.2636,-6.2339,-6.2004,-6.089,-6.0221,-5.9717,-5.9393,-5.8927,-5.8572,-5.8443,-5.8371,-5.826,-5.8111,-5.8133,-5.8133,-5.802,-5.8042,-5.8065,-5.7997,-5.7997,-5.7997,-5.7997,-5.7997,-5.7519,-5.6381,-5.5868,-5.5097,-5.3959,-5.3445,-5.3203,-5.3203,-5.2417,-5.1793,-5.1353,-5.0198,-4.9353,-4.8857,-4.8489,-4.8306,-4.8306,-4.8306,-4.8401,-9.6091,-9.8347,-9.9811,-9.9023,-9.8906,-9.7717,-9.2968,-9.0808,-8.834,-8.3172,-7.9962,-7.7333,-7.4836,-7.4734,-7.5476,-7.6741,-7.8268,-8.0768,-8.4925,-8.4452,-8.4123,-8.5409,-8.4889,-8.4072,-8.3254,-8.318,-8.318,-8.318,-8.318,-8.318,-8.318,-8.318,-8.3106,-8.2883,-8.2846,-8.2066,-8.0394,-7.8982,-7.7496,-7.5973,-7.5861,-7.5007,-7.3584,-7.3473,-7.2481,-7.0895,-7.0895,-6.9967,-6.8481,-6.8481,-6.7688,-6.6425,-6.6425,-6.5459,-6.4085,-6.3973,-6.3862,-6.3728,-6.3639,-6.3602,-6.3602,-6.3602,-6.3602,-6.3602,-6.3602,-6.3602,-6.3602,-6.3602,-6.3602,-6.3416,-6.2487,-6.2859,-6.2859,-6.0481,-6.0481,-6.063,-5.9181,-5.8772,-5.8656,-5.8551,-5.8443,-5.8371,-5.826,-5.8327,-5.8327,-5.8088,-5.8133,-5.8156,-5.8065,-5.802,-5.7997,-5.7997,-5.7997,-5.7373,-5.5868,-5.5647,-5.495,-5.3445,-5.324,-5.3203,-5.3203,-5.2527,-5.2087,-5.1977,-5.0528,-4.9721,-4.961,-4.871,-4.8306,-4.8306,-4.8363,-4.8532,-9.8944,-10.0282,-10.12,-10.1515,-9.9441,-9.6589,-9.3474,-8.9842,-8.5689,-8.0509,-7.7315,-7.4882,-7.299,-7.3279,-7.4858,-7.8042,-7.9971,-8.251,-8.6594,-8.6404,-8.5779,-8.5618,-8.4889,-8.4072,-8.3254,-8.318,-8.318,-8.318,-8.318,-8.318,-8.318,-8.318,-8.2549,-8.1174,-8.1137,-8.0357,-7.8722,-7.8425,-7.7793,-7.6892,-7.6121,-7.5304,-7.4338,-7.3696,-7.2481,-7.0895,-7.0895,0.0,-6.8481,-6.8481,-6.8333,-6.8097,-6.8097,-6.7503,-6.6574,-6.5905,-6.5236,-6.4508,-6.3802,-6.3602,-6.3602,-6.3602,-6.3602,-6.3602,-6.3602,-6.3602,-6.3602,-6.3602,-6.3602,-6.3267,-6.1781,-6.2004,-6.2153,-6.0311,-6.0014,-6.0072,-5.9754,-5.9181,-5.8656,-5.8551,-5.8508,-5.8465,-5.8393,-5.8371,-5.8371,-5.8349,-5.8349,-5.8349,-5.8327,-5.8133,-5.7997,-5.7997,-5.7997,-5.7629,-5.6675,-5.5978,-5.5207,-5.4252,-5.3592,-5.3203,-5.3203,-5.3078,-5.2674,-5.2013,-5.1059,-5.0251,-4.961,-4.871,-4.8306,-4.8306,-4.8568,-4.8746,-10.1788,-10.278,-10.3201,-10.2582,-9.9998,-9.6422,-9.156,-8.741,-8.3102,-7.7859,-7.5067,-7.3279,-7.2388,-7.2899,-7.4365,-7.6996,-7.9012,-8.1413,-8.4907,-8.5155,-8.504,-8.4949,-8.4629,-8.4072,-8.3254,-8.318,-8.318,-8.318,-8.318,-8.318,-8.318,-8.318,-8.2623,-8.1397,-8.0914,-8.0134,-7.8945,-7.809,-7.7236,-7.6382,-7.5564,-7.4747,-7.393,-7.3584,-7.2704,-7.1552,-7.1081,-7.0227,-6.9076,-6.8667,-6.8221,-6.7837,-6.7428,-6.676,-6.5905,-6.5125,-6.4531,-6.4122,-6.375,-6.3602,-6.3602,-6.3602,-6.3602,-6.3602,-6.3602,-6.3602,-6.3602,-6.3602,-6.3602,-6.3342,-6.2153,-6.2413,-6.2636,-6.0964,-6.0221,-6.0014,-6.0481,-5.9589,-5.8788,-5.9171,-5.8911,-5.8572,-5.8465,-5.8486,-5.8523,-5.8415,-5.8437,-5.8422,-5.8393,-5.8305,-5.8156,-5.8111,-5.8042,-5.7483,-5.6271,-5.5794,-5.506,-5.3849,-5.3408,-5.3203,-5.3203,-5.3203,-5.3041,-5.2637,-5.183,-5.1022,-5.0215,-4.937,-4.8746,-4.8306,-4.8622,-4.8881,-10.3281,-10.4405,-10.4879,-10.3304,-10.021,-9.5943,-8.977,-8.5197,-8.0871,-7.5954,-7.3703,-7.2559,-7.23,-7.2759,-7.3783,-7.5438,-7.7057,-7.9229,-8.2589,-8.3111,-8.3463,-8.4309,-8.4257,-8.3886,-8.3254,-8.318,-8.3106,-8.2957,-8.292,-8.2994,-8.318,-8.3032,-8.2549,-8.1731,-8.0877,-8.0059,-7.9242,-7.7979,-7.6902,-7.6047,-7.523,-7.4413,-7.3658,-7.351,-7.2852,-7.1886,-7.1218,-7.0338,-6.9373,-6.8741,-6.811,-6.7503,-6.6871,-6.6017,-6.499,-6.4382,-6.3936,-6.3602,-6.3602,-6.3602,-6.3602,-6.3602,-6.3602,-6.3602,-6.3602,-6.3602,-6.3602,-6.3602,-6.3602,-6.3416,-6.2636,-6.3007,-6.3267,-6.1819,-6.0815,-6.037,-6.1038,-6.0184,-5.9367,-5.9791,-5.9404,-5.8879,-5.8572,-5.8635,-5.8635,-5.8502,-5.8508,-5.8529,-5.848,-5.8437,-5.8393,-5.8268,-5.8133,-5.7455,-5.6022,-5.5853,-5.517,-5.3555,-5.3482,-5.3408,-5.3203,-5.3272,-5.3272,-5.3225,-5.2484,-5.1748,-5.1059,-5.0088,-4.9243,-4.8582,-4.8785,-4.9048,-10.1797,-10.3593,-10.5192,-10.4095,-9.9463,-9.4178,-9.0185,-8.4748,-7.9502,-7.577,-7.4192,-7.3253,-7.243,-7.2286,-7.286,-7.4553,-7.4985,-7.6777,-8.1534,-8.1605,-8.1982,-8.4145,-8.3737,-8.3254,-8.3217,-8.318,-8.2883,-8.2177,-8.2103,-8.24,-8.3143,-8.2511,-8.1694,-8.084,-8.0022,-7.9205,-7.8425,-7.8239,-7.7756,-7.6966,-7.6084,-7.5267,-7.445,-7.3733,-7.2518,-7.1007,-7.0932,-7.0004,0.0,-6.8518,-6.8444,-6.837,-6.8296,-6.7354,-6.5979,-6.5905,-6.4902,-6.3602,-6.3602,-6.3602,-6.3602,-6.3602,-6.3602,-6.3602,-6.3602,-6.3602,-6.3602,-6.3602,-6.3602,-6.3416,-6.2636,-6.3007,-6.3379,-6.2524,-6.167,-6.1113,-6.1187,-6.1076,-6.0778,-6.0035,-5.9828,-5.9531,-5.8826,-5.8677,-5.8677,-5.8656,-5.8677,-5.8677,-5.8656,-5.8572,-5.8508,-5.8449,-5.829,-5.7825,-5.6941,-5.6779,-5.6014,-5.4399,-5.4289,-5.3959,-5.3203,-5.3484,-5.3504,-5.3225,-5.269,-5.2266,-5.1867,-5.0345,-4.9574,-4.9483,-4.9321,-4.9287,-10.1719,-10.3906,-10.5117,-10.3703,-9.8622,-9.3142,-8.9611,-8.3591,-7.8181,-7.6183,-7.4255,-7.297,-7.3112,-7.2238,-7.1697,-7.2338,-7.2888,-7.4144,-7.6827,-7.6741,-7.7734,-8.1393,-8.0479,-8.0282,-8.2288,-8.1991,-8.1545,-8.1248,-8.1211,-8.136,-8.1657,-8.188,-8.136,-8.0022,-7.9651,-7.9094,-7.8313,-7.7273,-7.6604,-7.627,-7.497,-7.4216,-7.3855,-7.3547,-7.2778,-7.1663,-7.1143,-7.0264,0.0,-6.8704,-6.8481,-6.8468,-6.7986,-6.7391,-6.676,-6.6277,-6.5348,-6.4322,-6.4322,-6.3988,-6.3602,-6.3602,-6.3602,-6.3602,-6.3602,-6.3602,-6.3602,-6.3602,-6.3602,-6.3527,-6.323,-6.3379,-6.3527,-6.3193,-6.2524,-6.2041,-6.2562,-6.1893,-6.1261,-6.1373,-6.1001,-6.0407,-5.9589,-5.9441,-5.9255,-5.8772,-5.8698,-5.8698,-5.8698,-5.8656,-5.8614,-5.8614,-5.8422,-5.7995,-5.7183,-5.7,-5.6456,-5.5316,-5.4699,-5.4252,-5.3959,-5.3783,-5.3624,-5.3504,-5.3572,-5.3269,-5.2678,-5.1505,-5.0686,-5.0199,-4.9807,-4.9599,-9.9414,-10.2187,-10.3984,-10.25,-9.7235,-9.1705,-8.9019,-8.2876,-7.7484,-7.6517,-7.469,-7.3353,-7.3651,-7.2457,-7.1313,0.0,-7.1439,-7.2231,-7.3458,-7.3382,-7.4451,-7.789,-7.7027,-7.7324,-8.0274,-8.0431,-8.0357,-8.0357,-8.0357,-8.0245,-7.9985,-8.0542,-8.0468,-7.9502,-7.9242,-7.8759,-7.7969,-7.6753,-7.6047,-7.5787,-7.4413,-7.3632,-7.3398,-7.3175,-7.2469,-7.1441,-7.0809,-7.0078,0.0,-6.8704,-6.8481,-6.8444,-6.7874,-6.7354,-6.6871,-6.6314,-6.5422,-6.4433,-6.4433,-6.4062,-6.3602,-6.3602,-6.3602,-6.3602,-6.3602,-6.3602,-6.3602,-6.3602,-6.3602,-6.3602,-6.3602,-6.3602,-6.3602,-6.3602,-6.3193,-6.2933,-6.349,-6.271,-6.2004,-6.2339,-6.193,-6.1298,-6.0444,-6.0295,-5.9998,-5.9181,-5.9069,-5.8995,-5.8735,-5.8698,-5.8698,-5.8698,-5.8551,-5.8258,-5.7624,-5.7571,-5.7201,-5.6388,-5.5801,-5.5246,-5.4724,-5.4541,-5.424,-5.3888,-5.4262,-5.4096,-5.3449,-5.2623,-5.1743,-5.0948,-5.0435,-5.0123,-9.3984,-9.7734,-10.1406,-10.0508,-9.5029,-8.959,-8.8607,-8.2964,-7.7612,-7.661,-7.5654,-7.4717,-7.3944,-7.2945,-7.2006,-7.1159,-7.0939,-7.1348,-7.2525,-7.2685,-7.3042,-7.3934,-7.4043,-7.4847,-7.6956,-7.8573,-7.9502,-7.9502,-7.9502,-7.9168,-7.8351,-7.8313,-7.8685,-7.9465,-7.8722,-7.7905,-7.7115,-7.7115,-7.6642,-7.5787,-7.497,-7.4153,-7.3398,-7.2581,-7.1292,-6.9707,-6.9707,-6.9261,0.0,-6.8481,-6.8481,-6.8481,-6.8481,-6.7503,-6.6128,-6.6091,-6.5051,-6.3602,-6.3602,-6.3602,-6.3602,-6.3602,-6.3602,-6.3602,-6.3602,-6.3602,-6.3602,-6.3602,-6.3602,-6.3602,-6.3602,-6.3602,-6.3602,-6.3602,-6.3602,-6.3602,-6.3602,-6.3602,-6.3342,-6.2562,-6.2413,-6.2153,-6.1336,-6.1187,-6.089,-6.0014,-5.9865,-5.9627,-5.8809,-5.8698,-5.8698,-5.8698,-5.8677,-5.8635,-5.8492,-5.871,-5.8534,-5.7652,-5.7884,-5.7311,-5.5553,-5.5848,-5.5523,-5.4334,-5.4623,-5.4639,-5.4296,-5.3487,-5.2623,-5.178,-5.129,-5.0798,-8.9883,-9.2851,-9.5234,-9.4375,-9.0128,-8.5927,-8.503,-8.0729,-7.6615,-7.5713,-7.4839,-7.4003,-7.3164,-7.217,-7.1223,-7.0387,-7.0593,-7.0626,-6.9846,-7.1006,-7.2685,-7.4656,-7.6874,-7.8291,-7.8403,-7.8559,-7.8685,-7.8685,-7.8165,-7.7979,-7.8276,-7.7199,-7.7236,-7.8611,-7.731,-7.6753,-7.7115,-7.5936,-7.523,-7.497,-7.4179,-7.3658,-7.3398,-7.2581,-7.1589,-7.0487,-6.993,-6.9224,-6.8481,-6.8481,-6.8481,-6.8481,-6.8481,-6.8184,-6.7688,-6.7131,-6.6239,-6.5236,-6.4619,-6.4085,-6.3602,-6.3602,-6.3602,-6.3602,-6.3602,-6.3602,-6.3602,-6.3602,-6.3602,-6.3602,-6.3602,-6.3602,-6.3602,-6.3602,-6.3602,-6.3602,-6.3602,-6.3602,-6.3527,-6.3267,-6.323,-6.297,-6.2153,-6.2041,-6.1558,-6.0088,-5.9903,-5.9627,-5.8809,-5.8698,-5.8698,-5.8698,-5.8698,-5.8677,-5.8635,-5.8868,-5.8932,-5.8632,-5.8329,-5.7904,-5.7311,-5.7078,-5.6543,-5.5539,-5.5841,-5.5725,-5.5042,-5.4182,-5.3041,-5.1659,-5.0913,-5.0467,-8.6484,-8.9414,-9.1484,-9.0937,-8.7433,-8.3937,-8.3348,-7.9709,-7.62,-7.5287,-7.4463,-7.3612,-7.2761,-7.1792,-7.0872,-7.0023,-7.0221,-7.0131,-6.9091,-7.0297,-7.211,-7.4163,-7.6755,-7.814,-7.7638,-7.8032,-7.8276,-7.8276,-7.7561,-7.7338,-7.7793,-7.6233,-7.5936,-7.731,-7.6344,-7.5899,-7.6121,-7.5118,-7.445,-7.4115,-7.3658,-7.325,-7.2915,-7.2072,-7.1255,-7.0375,-6.9595,-6.8964,0.0,-6.8481,-6.8481,-6.8481,-6.8481,-6.8296,-6.7924,-6.7168,-6.6314,-6.5496,-6.4642,-6.4025,-6.3602,-6.3602,-6.3602,-6.3602,-6.3602,-6.3602,-6.3602,-6.3602,-6.3602,-6.3602,-6.3602,-6.3602,-6.3602,-6.3602,-6.3602,-6.3602,-6.3602,-6.3602,-6.3602,-6.3602,-6.3602,-6.3453,-6.2933,-6.2599,-6.193,-6.0593,-6.011,-5.9627,-5.8809,-5.8698,-5.876,-5.8885,-5.8905,-5.8965,-5.9083,-5.9271,-5.9397,-5.9502,-5.897,-5.8486,-5.8129,-5.7511,-5.6744,-5.5874,-5.6038,-5.5887,-5.5403,-5.4524,-5.3378,-5.204,-5.12,-5.0627,0.0,-8.6992,-8.9453,-8.9453,-8.6279,-8.3103,-8.2975,-7.9594,0.0,-7.5205,-7.4386,-7.3535,-7.2607,-7.175,-7.0892,-6.9876,-6.982,-6.9849,-6.9733,-7.0592,-7.1723,-7.2958,-7.4647,-7.5591,-7.5356,-7.7151,-7.8294,-7.823,-7.7486,-7.704,-7.704,-7.5416,-7.4858,-7.5676,-7.5639,-7.5304,-7.4598,-7.4524,-7.4115,-7.3398,-7.3398,-7.299,-7.2172,-7.1292,-7.045,0.0,-6.8853,-6.8481,0.0,-6.8481,-6.8481,-6.8481,-6.8481,-6.7999,-6.7205,-6.6425,-6.5571,-6.4656,-6.3899,-6.3602,-6.3602,-6.3602,-6.3602,-6.3602,-6.3602,-6.3602,-6.3602,-6.3602,-6.3602,-6.3602,-6.3602,-6.3602,-6.3602,-6.3602,-6.3624,-6.3624,-6.3602,-6.3624,-6.3624,-6.3602,-6.3602,-6.3602,-6.3602,-6.297,-6.219,-6.1336,-6.0518,-5.9701,-5.8809,-5.8719,-5.8845,-5.9178,-5.9234,-5.9415,-5.9788,-5.9842,-5.9953,-6.0179,-5.9779,-5.9125,-5.822,-5.7402,-5.6522,-5.5503,-5.5427,-5.539,-5.5403,-5.4524,-5.3645,-5.2766,-5.1964,-5.1123,-8.1367,0.0,-8.4101,-8.4101,-8.2293,-8.0446,0.0,-7.7874,-7.5312,-7.4392,-7.3496,-7.2452,-7.0905,-7.0938,-7.0467,-6.8342,-6.9586,-7.0323,-6.9001,-7.2286,-7.4909,-7.5234,-7.7582,-7.8306,-7.5977,-7.7635,-7.8424,-7.7476,-7.6567,-7.6084,-7.6084,-7.4561,-7.4041,-7.4858,-7.429,-7.4153,-7.4598,-7.3967,-7.3584,-7.3398,-7.3398,-7.299,-7.2172,-7.1292,-7.045,-6.967,-6.8853,-6.8481,-6.8481,-6.8481,-6.8481,-6.8481,-6.8481,-6.7999,-6.7205,-6.6425,-6.5571,-6.4656,-6.3899,-6.3602,-6.3602,-6.3602,-6.3602,-6.3602,-6.3602,-6.3602,-6.3602,-6.3602,-6.3602,-6.3602,-6.3602,-6.3602,-6.3602,-6.3602,-6.383,-6.3963,-6.3669,-6.3851,-6.3963,-6.3669,-6.3602,-6.3602,-6.3602,-6.3453,-6.2859,-6.141,-6.1038,-6.037,-5.8884,-5.8908,-5.9103,-5.9197,-5.9485,-5.9788,-6.0165,-6.0194,-6.0208,-6.0265,-6.038,-6.0042,-5.9125,-5.8894,-5.8052,-5.6484,-5.5758,-5.5415,-5.5402,-5.4549,-5.3645,-5.2766,-5.1964,-5.1123,-7.9609,-8.0469,-8.1211,-8.1601,-8.0387,-7.8955,-7.8335,-7.6755,-7.4989,-7.3612,-7.2916,-7.2181,-7.0827,-7.096,-7.0551,-6.8375,-6.9799,-7.0925,-7.0324,-7.2583,-7.4851,-7.6399,-7.7811,-7.8465,-7.8006,-7.8263,-7.8166,-7.7475,-7.6058,-7.5081,-7.471,-7.3855,-7.3435,-7.351,-7.3435,-7.3621,-7.4041,-7.3621,-7.3398,-7.3398,-7.3027,-7.2618,-7.2172,-7.092,-7.0115,-6.967,-6.8853,-6.8481,-6.8481,-6.8481,-6.8481,-6.8444,-6.8097,-6.7688,-6.7168,-6.5942,-6.5236,-6.4656,-6.3899,-6.3602,-6.3602,-6.3602,-6.3602,-6.3602,-6.3602,-6.3602,-6.3602,-6.3602,-6.3602,-6.3602,-6.3602,-6.3758,-6.3894,-6.3894,-6.4151,-6.4369,-6.4172,-6.4273,-6.4292,-6.3942,-6.3894,-6.3808,-6.3624,-6.3305,-6.2747,-6.1893,-6.1113,-6.0322,-5.9634,-5.9327,-5.9343,-5.9652,-5.9899,-6.0179,-6.0507,-6.0533,-6.0533,-6.0533,-6.0325,-6.0,-5.9465,-5.9081,-5.8239,-5.6875,-5.5897,-5.5389,-5.5389,-5.4931,-5.4027,-5.2805,-5.2346,-5.1505,-7.8633,-7.9101,-7.9726,-8.0586,-7.9648,-7.8237,-7.7238,-7.6126,-7.4833,-7.318,-7.259,-7.2142,-7.1253,-7.1214,-7.075,-6.9087,-7.0347,-7.1926,-7.2971,-7.3303,-7.434,-7.6799,-7.7226,-7.7885,-7.9474,-7.8625,-7.7857,-7.7451,-7.5608,-7.4145,-7.325,-7.3212,-7.2915,-7.2246,-7.299,-7.3398,-7.3398,-7.3398,-7.3398,-7.3398,-7.2581,-7.2135,-7.1923,-7.04,-6.9633,-6.9484,0.0,0.0,-6.8481,-6.8481,-6.8407,-6.8221,-6.7577,-6.7168,-6.676,-6.5325,-6.4693,-6.4508,-6.3862,-6.3602,-6.3602,-6.3602,-6.3602,-6.3602,-6.3602,-6.3602,-6.3602,-6.3602,-6.3602,-6.3602,-6.3602,-6.3915,-6.4209,-6.4209,-6.4501,-6.4769,-6.4716,-6.4751,-6.4681,-6.4349,-6.4271,-6.4151,-6.3851,-6.3162,-6.2634,-6.2523,-6.1119,-6.0183,-6.0453,-5.9778,-5.9534,-6.0237,-6.0335,-6.0494,-6.0769,-6.0781,-6.0781,-6.0781,-6.0127,-5.9627,-5.9511,-5.8588,-5.772,-5.6944,-5.5945,-5.5413,-5.5413,-5.5415,-5.4575,-5.302,-5.3008,-5.2117,-7.9336,-7.9101,-7.8867,-7.9687,-7.918,-7.8436,-7.8158,-7.618,-7.4281,-7.3937,-7.2589,-7.1214,-7.0363,-7.0789,-7.075,-6.9087,-7.1344,-7.4115,-7.6378,-7.7834,-7.803,-7.6399,-7.87,-7.9287,-7.6341,-7.7779,-7.7997,-7.5845,-7.469,-7.3613,-7.2458,-7.2395,-7.2321,-7.2209,-7.299,-7.3398,-7.3398,-7.3398,-7.3398,-7.3398,-7.2581,-7.1812,-7.1044,-7.0115,-6.9335,-6.8667,0.0,-6.8481,-6.8481,-6.8481,-6.8073,-6.7465,-6.7354,-6.6425,-6.5139,-6.4879,-6.4359,-6.3765,-6.3639,-6.3602,-6.3602,-6.3602,-6.3602,-6.3602,-6.3602,-6.3602,-6.3602,-6.3602,-6.3602,-6.3602,-6.3602,-6.3915,-6.4209,-6.4209,-6.4701,-6.5105,-6.4769,-6.4976,-6.5089,-6.4699,-6.461,-6.4592,-6.4537,-6.4197,-6.3658,-6.2908,-6.1778,-6.089,-6.0528,-6.0051,-5.9852,-6.0265,-6.0559,-6.0746,-6.0781,-6.0781,-6.0781,-6.0781,-6.0666,-6.0281,-5.9511,-5.8011,-5.7126,-5.7011,-5.6049,-5.5593,-5.5593,-5.5463,-5.4917,-5.396,-5.3937,-5.2996,-7.7656,-7.7383,-7.7305,-7.8125,-7.8437,-7.8202,-7.7156,-7.5911,-7.4714,-7.3612,-7.2323,-7.1407,-7.1401,-7.1717,-7.2375,-7.3419,-7.4096,-7.5001,-7.6597,-7.6646,-7.6563,-7.6683,-7.8092,-7.8685,-7.7834,-7.7747,-7.717,-7.5777,-7.3831,-7.2351,-7.154,-7.1515,-7.1292,-7.0846,-7.2072,-7.2767,-7.2767,-7.2767,-7.299,-7.3372,-7.2109,-7.1292,-7.0858,-6.9595,-6.8853,-6.8481,0.0,-6.8481,-6.8444,-6.8023,-6.7651,-6.7205,-6.6314,-6.5473,-6.473,-6.4285,-6.3913,-6.3602,-6.3602,-6.3602,-6.3602,-6.3602,-6.3602,-6.3602,-6.3602,-6.3742,-6.3937,-6.3937,-6.3937,-6.3937,-6.3937,-6.4368,-6.4772,-6.4772,-6.5222,-6.5556,-6.5374,-6.5485,-6.5499,-6.5089,-6.5025,-6.4976,-6.4734,-6.4556,-6.4332,-6.3916,-6.305,-6.2278,-6.1818,-6.1125,-6.0666,-6.0572,-6.071,-6.0781,-6.0781,-6.0781,-6.0781,-6.0781,-6.0781,-6.0627,-6.0204,-5.8588,-5.7703,-5.7703,-5.6302,-5.5615,-5.5615,-5.5485,-5.5054,-5.4261,-5.4226,-5.3295,-7.6133,-7.5898,-7.6015,-7.6484,-7.7265,-7.7733,-7.7093,-7.6607,-7.5986,-7.4931,-7.3776,-7.2979,-7.2966,-7.2767,-7.3574,-7.6591,-7.6463,-7.6338,-7.7267,-7.6262,-7.6041,-7.7684,-7.79,-7.8246,-7.9131,-7.7527,-7.6173,-7.5469,-7.2956,-7.1193,-7.0648,-7.0598,-7.0338,-6.9707,-7.1329,-7.2098,-7.1886,-7.2098,-7.2506,-7.3101,-7.1441,-7.0598,-7.0561,-6.915,-6.8481,-6.8481,-6.8481,-6.8394,-6.8171,-6.7577,-6.7094,-6.6611,-6.5287,-6.4656,-6.4433,-6.3802,-6.3602,-6.3602,-6.3602,-6.3602,-6.3602,-6.3602,-6.3669,-6.372,-6.372,-6.4004,-6.433,-6.433,-6.4388,-6.4445,-6.4349,-6.4807,-6.5299,-6.5299,-6.5608,-6.5897,-6.5897,-6.5897,-6.5795,-6.5499,-6.5441,-6.5329,-6.5041,-6.4888,-6.4837,-6.4837,-6.4086,-6.3334,-6.2848,-6.2051,-6.1335,-6.0834,-6.0781,-6.0781,-6.0781,-6.0781,-6.0781,-6.0781,-6.0781,-6.0781,-6.0781,-5.9204,-5.8319,-5.8319,-5.6544,-5.5638,-5.5638,-5.557,-5.5201,-5.4588,-5.4576,-5.3809,-7.6133,-7.5898,-7.5703,-7.4961,-7.543,-7.6875,-7.9921,-7.9324,-7.8512,-8.0029,-7.8792,-7.6713,-7.442,-7.3239,-7.3187,-7.5005,-7.7149,-7.9172,-8.0726,-8.0772,-8.0414,-7.9708,-7.9631,-7.9054,-7.763,-7.6615,-7.5376,-7.3819,-7.2052,-7.0663,-6.9855,-6.9781,-6.9744,-6.9707,-7.1329,-7.1812,-7.1007,-7.1812,-7.2246,-7.2283,-7.0586,-6.9781,-6.9744,-6.889,-6.8481,-6.8481,-6.8481,-6.8097,-6.7391,-6.7317,-6.6364,-6.4953,-6.4842,-6.4322,-6.3653,-6.3616,-6.3602,-6.3602,-6.3602,-6.3602,-6.3602,-6.3602,-6.3851,-6.4169,-6.4169,-6.4388,-6.4664,-6.4664,-6.4942,-6.5121,-6.4751,-6.4992,-6.5299,-6.5299,-6.5608,-6.5897,-6.5897,-6.5897,-6.5897,-6.5872,-6.5872,-6.5859,-6.5808,-6.5499,-6.5253,-6.5253,-6.4253,-6.3334,-6.2848,-6.2051,-6.1335,-6.0834,-6.0781,-6.0781,-6.0781,-6.0781,-6.0781,-6.0781,-6.0781,-6.0781,-6.0781,-5.9204,-5.8319,-5.8319,-5.6588,-5.5703,-5.5703,-5.5638,-5.5566,-5.5489,-5.5431,-5.4948,-7.5312,-7.5078,-7.5156,-7.5351,-7.5664,-7.6523,-7.8906,-7.9295,-7.9209,-7.9265,-7.9047,-7.7968,-7.5246,-7.6156,-7.721,-7.6784,-7.8849,-8.0693,-8.1228,-8.08,-8.028,-7.9838,-7.89,-7.7784,-7.6592,-7.5245,-7.4052,-7.3148,-7.1294,-7.0166,-7.0083,-6.9381,-6.9187,-6.967,-7.0326,-7.0735,-7.0895,-7.0735,-7.066,-7.066,-7.0029,-6.9447,-6.8927,-6.863,-6.7924,-6.7057,-6.754,-6.7317,-6.6537,-6.5979,-6.5362,-6.473,-6.4248,-6.3899,-6.3602,-6.3602,-6.3602,-6.3602,-6.3602,-6.3742,-6.3963,-6.3963,-6.4212,-6.452,-6.452,-6.4751,-6.5073,-6.5073,-6.5344,-6.5594,-6.5191,-6.5359,-6.5663,-6.5663,-6.5781,-6.5897,-6.5897,-6.5897,-6.5897,-6.5897,-6.5897,-6.5897,-6.5897,-6.5768,-6.5663,-6.5663,-6.5273,-6.4747,-6.3999,-6.3629,-6.2951,-6.1743,-6.1127,-6.0781,-6.0781,-6.0781,-6.0781,-6.0781,-6.0781,-6.0781,-6.0781,-5.9665,-5.8819,-5.8319,-5.7126,-5.6252,-5.5703,-5.5682,-5.5671,-5.5671,-5.5649,-5.5176,-7.4844,-7.4609,-7.4726,-7.5351,-7.5703,-7.6484,-7.8789,-7.9922,-8.0663,-8.1119,-7.986,-7.8072,-7.6267,-7.6985,-7.7755,-7.7338,-7.9415,-8.1028,-8.0919,-8.0365,-7.9654,-7.8723,-7.7592,-7.6438,-7.5322,-7.3937,-7.2923,-7.2461,-7.0829,-6.9929,-7.0114,-6.9185,-6.8931,-6.949,-6.9619,-6.9818,-7.0115,-6.9855,-6.9558,-6.9298,-6.9298,-6.889,-6.8134,-6.8134,-6.754,-6.65,-6.6797,-6.6611,-6.6054,-6.5162,-6.4656,-6.4359,-6.3825,-6.3691,-6.3764,-6.3647,-6.3691,-6.3786,-6.3786,-6.3963,-6.4229,-6.433,-6.4612,-6.4871,-6.4871,-6.5153,-6.5485,-6.5485,-6.5676,-6.5859,-6.558,-6.5676,-6.5897,-6.5897,-6.5897,-6.5897,-6.5897,-6.5897,-6.5897,-6.5897,-6.5897,-6.5897,-6.5897,-6.5897,-6.5897,-6.5897,-6.5897,-6.559,-6.4705,-6.4589,-6.3974,-6.2293,-6.1562,-6.1089,-6.0819,-6.0781,-6.0781,-6.0781,-6.0781,-6.0781,-6.0781,-5.9973,-5.9242,-5.8704,-5.7857,-5.6973,-5.6088,-5.6088,-5.5972,-5.5703,-5.5703,-5.5395,-7.4844,-7.4609,-7.4609,-7.4609,-7.5273,-7.6836,-8.0234,-8.1679,-8.3242,-8.6758,-8.1904,-7.7194,-7.7616,-7.5051,-7.3645,-7.6006,-7.8525,-8.0138,-8.0032,-7.9979,-7.8998,-7.6299,-7.5976,-7.5322,-7.3668,-7.2706,-7.2001,-7.1636,-7.0779,-7.0116,-6.9721,-6.9344,-6.9091,-6.9091,-6.9514,-6.9298,-6.8518,-6.9261,-6.9261,-6.8481,-6.8481,-6.8073,-6.7317,-6.7317,-6.7317,-6.7243,-6.6425,-6.6091,-6.6017,-6.5139,-6.4345,-6.3602,-6.3602,-6.3851,-6.4169,-6.3742,-6.3873,-6.4209,-6.4209,-6.4229,-6.4251,-6.4592,-6.4992,-6.5299,-6.5299,-6.5594,-6.5897,-6.5897,-6.5897,-6.5897,-6.5897,-6.5897,-6.5897,-6.5897,-6.5897,-6.5897,-6.5897,-6.5897,-6.5897,-6.5897,-6.5897,-6.5897,-6.5897,-6.5897,-6.5897,-6.5897,-6.5897,-6.559,-6.4705,-6.4628,-6.3974,-6.2293,-6.2101,-6.1755,-6.0858,-6.0781,-6.0781,-6.0781,-6.0781,-6.0781,-6.0781,-5.9973,-5.9511,-5.9511,-5.8704,-5.7857,-5.6983,-5.6983,-5.656,-5.5703,-5.5703,-5.5703,-7.4687,-7.4609,-7.4609,-7.4609,-7.6601,-7.914,-8.1406,-8.1172,-8.1402,-8.4724,-8.2767,-8.0241,-7.9598,-7.865,-7.786,-7.7376,-7.8448,-7.952,-7.9955,-7.8475,-7.6993,-7.6106,-7.4399,-7.3129,-7.2629,-7.1783,-7.1241,-7.1118,-7.0601,-7.0271,-7.0116,-6.9468,-6.9353,-6.9954,-6.9253,-6.9001,-6.9335,-6.9001,-6.8741,-6.8481,-6.8481,-6.78,-6.65,-6.7057,-6.6685,-6.5534,-6.5311,-6.5199,-6.5102,-6.4308,-6.3988,-6.4004,-6.4004,-6.4251,-6.4557,-6.4426,-6.4426,-6.4537,-6.4537,-6.4754,-6.4976,-6.5073,-6.5374,-6.5742,-6.5742,-6.5795,-6.5897,-6.5897,-6.5897,-6.5897,-6.5897,-6.5897,-6.5897,-6.5897,-6.5897,-6.5897,-6.5897,-6.5897,-6.5897,-6.5897,-6.5897,-6.5897,-6.5897,-6.5897,-6.5897,-6.5897,-6.5897,-6.582,-6.5551,-6.4974,-6.4166,-6.3051,-6.2435,-6.1755,-6.0858,-6.0781,-6.0781,-6.0781,-6.0781,-6.0781,-6.0781,-6.055,-6.0127,-5.9511,-5.8704,-5.7857,-5.6983,-5.6368,-5.5934,-5.5703,-5.5703,-5.5703,-7.5195,-7.5351,-7.5781,-7.6445,-7.8164,-8.0156,-8.1914,-8.2578,-8.3315,-8.521,-8.3381,-8.1435,-8.1318,-7.9903,-7.8657,-7.8266,-7.8641,-7.8979,-7.9003,-7.7408,-7.5889,-7.5106,-7.3053,-7.1668,-7.1668,-7.0937,-7.0437,-7.0437,-7.0498,-7.0394,-7.0088,-6.9587,-6.9553,-7.006,-6.9047,-6.8704,-6.9224,-6.8741,-6.8481,-6.8481,-6.8481,-6.7837,-6.6574,-6.676,-6.6091,-6.4805,-6.4805,-6.4619,-6.4308,-6.3988,-6.3963,-6.4229,-6.4368,-6.463,-6.4904,-6.4769,-6.4803,-6.4959,-6.4959,-6.5089,-6.5314,-6.5485,-6.569,-6.5897,-6.5897,-6.5897,-6.5897,-6.5897,-6.5897,-6.5897,-6.5897,-6.5897,-6.5897,-6.5897,-6.5897,-6.5897,-6.5897,-6.5897,-6.5897,-6.5897,-6.5897,-6.5897,-6.5897,-6.5897,-6.5897,-6.5897,-6.5897,-6.5897,-6.5897,-6.5436,-6.4666,-6.3435,-6.2858,-6.2089,-6.0896,-6.0781,-6.0781,-6.0781,-6.0781,-6.0781,-6.0781,-6.0781,-6.055,-6.0012,-5.9204,-5.8357,-5.7511,-5.6626,-5.6049,-5.5703,-5.5703,-5.5703,-7.6133,-7.6484,-7.75,-7.918,-7.9883,-8.0625,-8.2383,-8.5234,-8.7381,-8.6954,-8.3738,-8.1421,-8.2751,-7.9747,-7.7526,-7.887,-7.9067,-7.8643,-7.755,-7.6636,-7.5387,-7.3504,-7.1937,-7.0937,-7.0706,-7.009,-6.9667,-6.959,-7.0321,-7.0475,-6.9744,-6.973,-6.974,-6.9702,-6.8952,-6.853,-6.8481,-6.8481,-6.8444,-6.8394,-6.8394,-6.7948,-6.7057,-6.6425,-6.5571,-6.4693,-6.4768,-6.4368,-6.3691,-6.4046,-6.4249,-6.433,-6.4666,-6.5009,-6.5299,-6.4921,-6.5041,-6.5344,-6.5344,-6.5344,-6.5427,-6.5781,-6.5897,-6.5897,-6.5897,-6.5897,-6.5897,-6.5897,-6.5897,-6.5897,-6.5897,-6.5897,-6.5897,-6.5897,-6.5897,-6.5897,-6.5897,-6.5897,-6.5897,-6.5897,-6.5897,-6.5897,-6.5897,-6.5897,-6.5897,-6.5897,-6.5897,-6.5897,-6.5897,-6.5897,-6.5243,-6.3512,-6.3308,-6.2627,-6.0935,-6.0781,-6.0781,-6.0781,-6.0781,-6.0781,-6.0781,-6.0781,-6.0781,-6.0781,-5.9935,-5.9127,-5.8396,-5.7473,-5.6599,-5.5818,-5.5818,-5.578,-7.5937,-7.6055,-7.6601,-7.832,-8.1289,-8.4258,-8.5976,-8.6953,-8.6873,-8.4687,-8.3465,-8.2869,-8.2975,-8.1689,-8.0456,-7.9993,-7.9415,-7.8423,-7.6791,-7.5774,-7.4282,-7.1839,-7.1747,-7.1129,-6.9129,-6.9398,-6.9436,-6.8744,-6.9475,-6.9898,-6.9706,-6.9995,-7.003,-6.9702,-6.924,-6.8832,-6.8506,-6.8481,-6.8208,0.0,-6.7577,-6.6773,-6.5325,-6.5868,-6.5274,-6.3876,-6.4508,-6.451,-6.4067,-6.4169,-6.4558,-6.5095,-6.5121,-6.5427,-6.5768,-6.5663,-6.5676,-6.5768,-6.5768,-6.5768,-6.5781,-6.5885,-6.5897,-6.5897,-6.5897,-6.5897,-6.5897,-6.5897,-6.5897,-6.5897,-6.5897,-6.5897,-6.5897,-6.5897,-6.5897,-6.5897,-6.5897,-6.5897,-6.5897,-6.5897,-6.5897,-6.5897,-6.5897,-6.5897,-6.5897,-6.5897,-6.5897,-6.5897,-6.5897,-6.5897,-6.5243,-6.3512,-6.3308,-6.2627,-6.0935,-6.0781,-6.0781,-6.0781,-6.0781,-6.0781,-6.0781,-6.0781,-6.0781,-6.0781,-5.9935,-5.9396,-5.9242,-5.7742,-5.6907,-5.6714,-5.6714,-5.6368,-7.6523,-7.6836,-7.7773,-8.0312,-8.2929,-8.5234,-8.6562,-8.6211,-8.5234,-8.3778,-8.3797,-8.3818,-8.3205,-8.1995,-8.0776,-7.976,-7.8912,-7.7727,-7.5927,-7.4899,-7.3485,-7.1287,-7.0631,-6.986,-6.8552,-6.8436,-6.8282,-6.7821,-6.8975,-6.936,-6.8513,-6.9651,-6.9908,-6.9096,-6.9097,-6.8908,-6.8506,-6.8481,-6.8073,-6.7317,-6.7317,-6.6425,-6.4805,-6.4865,-6.4419,-6.3639,-6.4233,-6.4395,-6.4249,-6.4595,-6.4942,-6.5314,-6.5499,-6.5728,-6.5897,-6.5897,-6.5897,-6.5897,-6.5897,-6.5897,-6.5897,-6.5897,-6.5897,-6.5897,-6.5897,-6.5897,-6.5897,-6.5897,-6.5897,-6.5897,-6.5897,-6.5897,-6.5897,-6.5897,-6.5897,-6.5897,-6.5897,-6.5897,-6.5897,-6.5897,-6.5897,-6.5897,-6.5897,-6.5897,-6.5897,-6.5897,-6.5897,-6.5897,-6.5897,-6.5897,-6.5397,-6.4051,-6.3551,-6.2974,-6.2089,-6.1243,-6.1127,-6.1935,-6.1627,-6.1396,-6.1396,-6.1396,-6.1243,-6.0819,-5.9935,-5.9511,-5.9511,-5.8242,-5.7407,-5.6983,-5.6983,-5.6522,-7.6992,-7.7734,-7.9219,-8.2187,-8.3828,-8.4883,-8.5781,-8.4844,-8.3789,-8.3633,-8.3974,-8.4011,-8.3176,-8.1622,-8.0133,-7.9183,-7.8286,-7.7051,-7.5101,-7.4294,-7.3061,-7.0838,-6.9566,-6.859,-6.8013,-6.759,-6.7244,-6.709,-6.859,-6.8898,-6.7628,-6.9082,-6.9535,-6.8543,-6.8822,-6.8794,-6.8366,-6.8307,-6.7887,-6.7094,-6.6797,-6.5942,-6.4568,-6.3967,-6.3714,-6.3698,-6.4046,-6.4251,-6.4445,-6.5063,-6.5329,-6.5441,-6.5768,-6.5897,-6.5897,-6.5897,-6.5897,-6.5897,-6.5897,-6.5897,-6.5897,-6.5897,-6.5897,-6.5897,-6.5897,-6.5897,-6.5897,-6.5897,-6.5897,-6.5897,-6.5897,-6.5897,-6.5897,-6.5897,-6.5897,-6.5897,-6.5897,-6.5897,-6.5897,-6.5897,-6.5897,-6.5897,-6.5897,-6.5897,-6.5897,-6.5897,-6.5897,-6.5897,-6.5897,-6.5897,-6.5551,-6.4705,-6.3935,-6.3462,-6.3308,-6.205,-6.1743,-6.3012,-6.2589,-6.2166,-6.1908,-6.2024,-6.1678,-6.0819,-6.0089,-5.9704,-5.9704,-5.8781,-5.8011,-5.7407,-5.7137,-5.6599,-7.6055,-7.7265,-7.8789,-7.9922,-8.1992,-8.3984,-8.4883,-8.4883,-8.4492,-8.375,-8.3086,-8.2533,-8.2293,-8.141,-8.0407,-7.9355,-7.8437,-7.6973,-7.4409,-7.4473,-7.3266,-6.937,-6.99,-6.9436,-6.6513,-6.7436,-6.7898,-6.7167,-6.8013,-6.8821,-6.9321,-6.8896,-6.8767,-6.9017,-6.8675,-6.8294,-6.791,-6.7617,-6.7057,-6.6239,-6.4791,-6.3973,-6.375,-6.4016,-6.4128,-6.4128,-6.4189,-6.4576,-6.5175,-6.5253,-6.5499,-6.5846,-6.5885,-6.5897,-6.5897,-6.5897,-6.5897,-6.5897,-6.5897,-6.5897,-6.5897,-6.5897,-6.5897,-6.5897,-6.5897,-6.5897,-6.5897,-6.5897,-6.5897,-6.5897,-6.5897,-6.5897,-6.5897,-6.5897,-6.5897,-6.5897,-6.5897,-6.5897,-6.5897,-6.5897,-6.5897,-6.5897,-6.5897,-6.5897,-6.5897,-6.5897,-6.5897,-6.5897,-6.5897,-6.5897,-6.5551,-6.4705,-6.4512,-6.4128,-6.3346,-6.3077,-6.2781,-6.2281,-6.282,-6.2474,-6.1012,-6.1716,-6.1678,-6.0819,-6.0704,-6.0627,-6.0627,-5.905,-5.8588,-5.9127,-5.7665,-5.6945,-7.5898,-7.6445,-7.7461,-7.9258,-8.0547,-8.1758,-8.3125,-8.3437,-8.332,-8.2969,-8.2578,-8.2263,-8.211,-8.1005,-7.9955,-7.9403,-7.7687,-7.5883,-7.4247,-7.3717,-7.2276,-6.8996,-6.9143,-6.8552,-6.6128,-6.6551,-6.6821,-6.6436,-6.7205,-6.7628,-6.7552,-6.809,-6.8377,-6.8356,-6.865,-6.8697,-6.8527,-6.7957,-6.6986,-6.5693,-6.4272,-6.3736,-6.392,-6.4128,-6.4209,-6.4229,-6.4649,-6.4976,-6.5314,-6.5527,-6.5755,-6.5897,-6.5897,-6.5897,-6.5897,-6.5897,-6.5897,-6.5897,-6.5897,-6.5897,-6.5897,-6.5897,-6.5897,-6.5897,-6.5897,-6.5897,-6.5897,-6.5897,-6.5897,-6.5897,-6.5897,-6.5897,-6.5897,-6.5897,-6.5897,-6.5897,-6.5897,-6.5897,-6.5897,-6.5897,-6.5897,-6.5897,-6.5897,-6.5897,-6.5897,-6.5897,-6.5897,-6.5897,-6.5897,-6.5897,-6.5743,-6.5359,-6.4897,-6.4628,-6.4743,-6.3858,-6.3589,-6.4166,-6.4089,-6.3705,-6.2974,-6.282,-6.2397,-6.155,-6.105,-6.0781,-6.0781,-6.005,-5.9627,-5.9473,-5.828,-5.7742,-7.5312,-7.539,-7.6015,-7.793,-7.8906,-7.9805,-8.1289,-8.1797,-8.2031,-8.2265,-8.2304,-8.2186,-8.1892,-8.0636,-7.9528,-7.9169,-7.7203,-7.5354,-7.4264,-7.3333,-7.173,-6.893,-6.8488,-6.7744,-6.6051,-6.609,-6.6205,-6.6205,-6.6744,-6.6936,-6.6551,-6.7321,-6.7714,-6.7638,-6.8158,-6.8434,-6.8425,-6.7676,-6.6537,-6.509,-6.4084,-6.3873,-6.433,-6.433,-6.4388,-6.452,-6.5079,-6.5344,-6.547,-6.5781,-6.5897,-6.5897,-6.5897,-6.5897,-6.5897,-6.5897,-6.5897,-6.5897,-6.5897,-6.5897,-6.5897,-6.5897,-6.5897,-6.5897,-6.5897,-6.5897,-6.5897,-6.5897,-6.5897,-6.5897,-6.5897,-6.5897,-6.5897,-6.5897,-6.5897,-6.5897,-6.5897,-6.5897,-6.5897,-6.5897,-6.5897,-6.5897,-6.5897,-6.5897,-6.5897,-6.5897,-6.5897,-6.5897,-6.5897,-6.5897,-6.5897,-6.5897,-6.532,-6.5205,-6.582,-6.4705,-6.4436,-6.5513,-6.5166,-6.4743,-6.4282,-6.3666,-6.2935,-6.2139,-6.1243,-6.0781,-6.0781,-6.0589,-6.0242,-5.9819,-5.8781,-5.8396,-7.3672,-7.4023,-7.4687,-7.4844,-7.6719,-7.8789,-7.9648,-8.0469,-8.1289,-8.2148,-8.2304,-8.2031,-8.1211,-8.0312,-7.9411,-7.8512,-7.7525,-7.6258,-7.4375,-7.3926,-7.251,-6.9031,-6.8488,-6.7744,-6.6051,-6.659,-6.7051,-6.7051,-6.709,-6.7436,-6.8244,-6.6859,-6.6359,-6.7115,-6.681,-6.6628,-6.6634,-6.5899,-6.511,-6.4247,-6.3823,-6.4004,-6.4681,-6.4681,-6.4871,-6.5238,-6.5284,-6.5499,-6.5885,-6.5897,-6.5897,-6.5897,-6.5897,-6.5897,-6.5897,-6.5897,-6.5897,-6.5897,-6.5897,-6.5897,-6.5897,-6.5897,-6.5897,-6.5897,-6.5897,-6.5897,-6.5897,-6.5897,-6.5897,-6.5897,-6.5897,-6.5897,-6.5897,-6.5897,-6.5897,-6.5897,-6.5897,-6.5897,-6.5897,-6.5897,-6.5897,-6.5897,-6.5897,-6.5897,-6.5897,-6.5897,-6.5897,-6.5897,-6.5897,-6.5897,-6.5897,-6.5897,-6.5859,-6.5859,-6.5897,-6.582,-6.5436,-6.4705,-6.5397,-6.5089,-6.3435,-6.332,-6.2935,-6.2139,-6.1243,-6.0781,-6.0781,-5.9973,-5.9973,-6.0704,-5.905,-5.8704,-7.2851,-7.2695,-7.3086,-7.3633,-7.4883,-7.6211,-7.707,-7.8359,-7.9648,-8.0469,-8.1094,-8.1211,-8.0312,-7.9922,-7.9414,-7.8589,-7.6696,-7.5293,-7.5157,-7.3487,-7.1823,-7.0485,-6.9714,-6.8835,-6.7628,-6.7244,-6.709,-6.709,-6.6628,-6.6474,-6.6782,-6.6244,-6.6282,-6.7051,-6.6946,-6.6754,-6.656,-6.6041,-6.548,-6.4892,-6.4501,-6.4556,-6.5089,-6.5089,-6.5153,-6.5314,-6.5594,-6.5768,-6.5897,-6.5897,-6.5897,-6.5897,-6.5897,-6.5897,-6.5897,-6.5897,-6.5897,-6.5897,-6.5897,-6.5897,-6.5897,-6.5897,-6.5897,-6.5897,-6.5897,-6.5897,-6.5897,-6.5897,-6.5897,-6.5897,-6.5897,-6.5897,-6.5897,-6.5897,-6.5897,-6.5897,-6.5897,-6.5897,-6.5897,-6.5897,-6.5897,-6.5897,-6.5897,-6.5897,-6.5897,-6.5897,-6.5897,-6.5897,-6.5897,-6.5897,-6.5897,-6.5897,-6.5897,-6.5897,-6.5897,-6.5897,-6.5782,-6.5436,-6.5743,-6.5628,-6.4974,-6.4436,-6.3743,-6.2897,-6.205,-6.1358,-6.0781,-6.0473,-6.0473,-6.0781,-5.9627,-5.9511,-7.2734,-7.2422,-7.2578,-7.3164,-7.3945,-7.4844,-7.5703,-7.7031,-7.8281,-7.914,-7.9961,-8.0312,-7.9453,-7.9062,-7.8594,-7.7773,-7.6322,-7.5211,-7.4882,-7.3402,-7.2011,-7.0998,-7.0247,-6.9345,-6.8103,-6.7436,-6.6974,-6.6705,-6.6205,0.0,-6.5897,-6.5897,-6.6128,-6.6667,-6.6705,-6.6535,-6.6193,-6.5917,-6.5596,-6.5284,-6.4871,-6.4992,-6.5485,-6.5344,-6.5359,-6.5499,-6.5781,-6.5897,-6.5897,-6.5897,-6.5897,-6.5897,-6.5897,-6.5897,-6.5897,-6.5897,-6.5897,-6.5897,-6.5897,-6.5897,-6.5897,-6.5897,-6.5897,-6.5897,-6.5897,-6.5897,-6.5897,-6.5897,-6.5897,-6.5897,-6.5897,-6.5897,-6.5897,-6.5897,-6.5897,-6.5897,-6.5897,-6.5897,-6.5897,-6.5897,-6.5897,-6.5897,-6.5897,-6.5897,-6.5897,-6.5897,-6.5897,-6.5897,-6.5897,-6.5897,-6.5897,-6.5897,-6.5897,-6.5897,-6.5897,-6.5897,-6.5897,-6.5897,-6.5897,-6.5897,-6.5897,-6.5051,-6.4205,-6.332,-6.2512,-6.1678,-6.0781,-6.0781,-6.0781,-6.0781,-6.0204,-6.0242,0.0,0.0,0.0,-7.3242,-7.3906,-7.4726,-7.5547,-7.6445,-7.7305,-7.8164,-7.9023,-7.9336,-7.8555,-7.7734,-7.6875,-7.5976,-7.6523,-7.6169,-7.3523,-7.3774,-7.3188,-7.0412,-6.9992,-6.922,-6.741,-6.718,-6.6821,-6.6013,-6.5936,-6.5936,-6.5897,-6.5897,-6.5897,-6.5897,-6.5897,-6.569,-6.5314,-6.5314,-6.5314,-6.5299,-6.4904,-6.5137,-6.5897,-6.5485,-6.5513,-6.5897,-6.5897,-6.5897,-6.5897,-6.5897,-6.5897,-6.5897,-6.5897,-6.5897,-6.5897,-6.5897,-6.5897,-6.5897,-6.5897,-6.5897,-6.5897,-6.5897,-6.5897,-6.5897,-6.5897,-6.5897,-6.5897,-6.5897,-6.5897,-6.5897,-6.5897,-6.5897,-6.5897,-6.5897,-6.5897,-6.5897,-6.5897,-6.5897,-6.5897,-6.5897,-6.5897,-6.5897,-6.5897,-6.5897,-6.5897,-6.5897,-6.5897,-6.5897,-6.5897,-6.5897,-6.5897,-6.5897,-6.5897,-6.5897,-6.5897,-6.5897,-6.5897,-6.5897,-6.5897,-6.5897,-6.5897,-6.5089,-6.4205,-6.332,-6.2512,-6.1678,-6.0781,-6.0781,-6.0781,-6.0781,-6.0781,-6.0781,-7.2695,0.0,0.0,0.0,0.0,0.0,-7.2226,-7.3281,-7.4453,-7.4687,-7.5937,-7.6875,-7.664,-7.6406,-7.5781,-7.4258,-7.4219,-7.4336,-7.4216,-7.3219,-7.2392,-7.2209,-7.1443,-7.0689,-7.0109,-6.8846,-6.7936,0.0,-6.7128,-6.6513,-6.5936,-6.5897,-6.5897,-6.5897,-6.5897,-6.5859,-6.5742,-6.5742,-6.5742,-6.5742,-6.5622,-6.5676,-6.5897,-6.5781,-6.5795,-6.5897,-6.5897,-6.5897,-6.5897,-6.5897,-6.5897,-6.5897,-6.5897,-6.5897,-6.5897,-6.5897,-6.5897,-6.5897,-6.5897,-6.5897,-6.5897,-6.5897,-6.5897,-6.5897,-6.5897,-6.5897,-6.5897,-6.5897,-6.5897,-6.5897,-6.5897,-6.5897,-6.5897,-6.5897,-6.5897,-6.5897,-6.5897,-6.5897,-6.5897,-6.5897,-6.5897,-6.5897,-6.5897,-6.5897,-6.5897,-6.5897,-6.5897,-6.5897,-6.5897,-6.5897,-6.5897,-6.5897,-6.5897,-6.5897,-6.5897,-6.5897,-6.5897,-6.5897,-6.5897,-6.5897,-6.5897,-6.5667,-6.482,-6.332,-6.3089,-6.2243,-6.0781,-6.0781,-6.0781,-6.0781,-6.0781,-6.0781,-7.3359,-7.3086,-7.3164,-7.3555,0.0,0.0,-7.2265,-7.2265,-7.2305,-7.2695,-7.3555,-7.4258,-7.4258,-7.457,-7.4375,-7.2969,-7.3359,-7.3789,-7.3555,-7.2885,-7.2434,-7.2466,-7.1823,-7.1201,-7.0697,-6.9615,-6.8783,-6.8436,-6.7936,-6.7282,-6.6436,-6.609,-6.5897,-6.5897,-6.5897,-6.5897,-6.5897,-6.5897,-6.5897,-6.5897,-6.5897,-6.5897,-6.5897,-6.5897,-6.5897,-6.5897,-6.5897,-6.5897,-6.5897,-6.5897,-6.5897,-6.5897,-6.5897,-6.5897,-6.5897,-6.5897,-6.5897,-6.5897,-6.5897,-6.5897,-6.5897,-6.5897,-6.5897,-6.5897,-6.5897,-6.5897,-6.5897,-6.5897,-6.5897,-6.5897,-6.5897,-6.5897,-6.5897,-6.5897,-6.5897,-6.5897,-6.5897,-6.5897,-6.5897,-6.5897,-6.5897,-6.5897,-6.5897,-6.5897,-6.5897,-6.5897,-6.5897,-6.5897,-6.5897,-6.5897,-6.5897,-6.5897,-6.5897,-6.5897,-6.5897,-6.5897,-6.5743,-6.5397,-6.5359,-6.5205,-6.482,-6.482,-6.4166,-6.282,-6.2781,-6.2127,-6.0781,-6.0781,-6.0781,-6.0781,-6.0781,-6.0781,-7.4648,-7.4609,-7.4765,-7.543,-7.3945,0.0,-7.3789,-7.2461,-7.1094,-7.1484,-7.1797,-7.1953,-7.1875,-7.2578,-7.2851,-7.1992,-7.3242,-7.3789,-7.2344,-7.2812,-7.2963,-7.2002,-7.165,-7.1125,-7.0176,-6.9847,-6.9398,-6.859,-6.8359,-6.7975,-6.7282,-6.6397,-6.5897,-6.5897,-6.5897,-6.5897,-6.5897,-6.5897,-6.5897,-6.5897,-6.5897,-6.5897,-6.5897,-6.5897,-6.5897,-6.5897,-6.5897,-6.5897,-6.5897,-6.5897,-6.5897,-6.5897,-6.5897,-6.5897,-6.5897,-6.5897,-6.5897,-6.5897,-6.5897,-6.5897,-6.5897,-6.5897,-6.5897,-6.5897,-6.5897,-6.5897,-6.5897,-6.5897,-6.5897,-6.5897,-6.5897,-6.5897,-6.5897,-6.5897,-6.5897,-6.5897,-6.5897,-6.5897,-6.5897,-6.5897,-6.5897,-6.5897,-6.5897,-6.5897,-6.5897,-6.5897,-6.5897,-6.5897,-6.5897,-6.5897,-6.5897,-6.5897,-6.5897,-6.5897,-6.5897,-6.5897,-6.5513,-6.4666,-6.4589,-6.4205,-6.3346,-6.3308,-6.2935,-6.2139,-6.1985,-6.1562,-6.0781,-6.0781,-6.0781,-6.0781,-6.0781,-6.0781,-7.4805,-7.4609,-7.4453,-7.3945,-7.3945,0.0,-7.1055,-7.168,-7.207,-6.9453,-7.0586,-7.1797,-7.1094,-7.168,-7.1953,-7.1094,-7.1836,-7.2617,-7.3008,-7.3203,-7.3202,-7.2999,-7.2101,-7.1411,-7.1217,-7.0285,-6.9629,-6.9475,-6.8167,-6.759,-6.8129,-6.6705,-6.5897,-6.5897,-6.5897,-6.5897,-6.5897,-6.5897,-6.5897,-6.5897,-6.5897,-6.5897,-6.5897,-6.5897,-6.5897,-6.5897,-6.5897,-6.5897,-6.5897,-6.5897,-6.5897,-6.5897,-6.5897,-6.5897,-6.5897,-6.5897,-6.5897,-6.5897,-6.5897,-6.5897,-6.5897,-6.5897,-6.5897,-6.5897,-6.5897,-6.5897,-6.5897,-6.5897,-6.5897,-6.5897,-6.5897,-6.5897,-6.5897,-6.5897,-6.5897,-6.5897,-6.5897,-6.5897,-6.5897,-6.5897,-6.5897,-6.5897,-6.5897,-6.5897,-6.5897,-6.5897,-6.5897,-6.5897,-6.5897,-6.5897,-6.5897,-6.5897,-6.5897,-6.5897,-6.5897,-6.5897,-6.5513,-6.4666,-6.4589,-6.4205,-6.3346,-6.3308,-6.2935,-6.2139,-6.1408,-6.0973,-6.0781,-6.0781,-6.0781,-6.0781,-6.0781,-6.0781,-7.6015,-7.5898,-7.5781,-7.5351,-7.4922,0.0,0.0,-7.1719,-7.1172,-7.0273,-6.9765,-6.9609,-7.0039,-7.043,-7.0586,-7.0156,-7.1172,-7.2305,-7.3164,-7.293,-7.2499,-7.2065,-7.1406,-7.0797,-7.0246,-6.9554,-6.9116,-6.9052,-6.8244,-6.7744,-6.7744,-6.6551,-6.5897,-6.5897,-6.5897,-6.5897,-6.5897,-6.5897,-6.5897,-6.5897,-6.5897,-6.5897,-6.5897,-6.5897,-6.5897,-6.5897,-6.5897,-6.5897,-6.5897,-6.5897,-6.5897,-6.5897,-6.5897,-6.5897,-6.5897,-6.5897,-6.5897,-6.5897,-6.5897,-6.5897,-6.5897,-6.5897,-6.5897,-6.5897,-6.5897,-6.5897,-6.5897,-6.5897,-6.5897,-6.5897,-6.5897,-6.5897,-6.5897,-6.5897,-6.5897,-6.5897,-6.5897,-6.5897,-6.5897,-6.5897,-6.5897,-6.5897,-6.5897,-6.5897,-6.5897,-6.5897,-6.5897,-6.5897,-6.5897,-6.5897,-6.5897,-6.5897,-6.5897,-6.5897,-6.5897,-6.5897,-6.532,-6.4051,-6.3935,-6.3397,-6.2127,-6.205,-6.1858,-6.1447,-6.1012,-6.0781,-6.0781,-6.0781,-6.0781,-6.0781,-6.0781,-6.0781,-7.6992,-7.707,-7.7148,-7.6992,-7.6015,-7.4961,0.0,0.0,0.0,-7.1328,-6.9297,-6.7773,-6.9023,-6.9336,-6.9375,-6.9258,-7.0664,-7.1953,0.0,-7.2109,0.0,-7.1243,-7.0654,-6.9967,-6.9228,-6.8946,-6.8699,-6.8411,-6.8385,-6.8013,-6.7128,-6.632,-6.5897,-6.5897,-6.5897,-6.5897,-6.5897,-6.5897,-6.5897,-6.5897,-6.5897,-6.5897,-6.5897,-6.5897,-6.5897,-6.5897,-6.5897,-6.5897,-6.5897,-6.5897,-6.5897,-6.5897,-6.5897,-6.5897,-6.5897,-6.5897,-6.5897,-6.5897,-6.5897,-6.5897,-6.5897,-6.5897,-6.5897,-6.5897,-6.5897,-6.5897,-6.5897,-6.5897,-6.5897,-6.5897,-6.5897,-6.5897,-6.5897,-6.5897,-6.5897,-6.5897,-6.5897,-6.5897,-6.5897,-6.5897,-6.5897,-6.5897,-6.5897,-6.5897,-6.5897,-6.5897,-6.5897,-6.5897,-6.5897,-6.5897,-6.5897,-6.5897,-6.5897,-6.5897,-6.5897,-6.5897,-6.5166,-6.3423,-6.3308,-6.2551,-6.0858,-6.0781,-6.0781,-6.0781,-6.0973,-6.0973,-6.0781,-6.0973,-6.0973,-6.0781,-6.0781,-6.0781,-7.625,-7.6601,-7.6992,-7.625,-7.6484,-7.6289,-7.3984,0.0,-7.2265,-7.0117,0.0,-6.9023,-6.8437,0.0,0.0,-6.8476,-6.9765,-7.0625,-7.0039,-7.0469,-7.1367,-7.2849,-7.0855,-6.9543,-7.0003,-6.9761,-6.9232,-6.8475,-6.8385,-6.8013,-6.7128,-6.632,-6.5897,-6.5897,-6.5897,-6.5897,-6.5897,-6.5897,-6.5897,-6.5897,-6.5897,-6.5897,-6.5897,-6.5897,-6.5897,-6.5897,-6.5897,-6.5897,-6.5897,-6.5897,-6.5897,-6.5897,-6.5897,-6.5897,-6.5897,-6.5897,-6.5897,-6.5897,-6.5897,-6.5897,-6.5897,-6.5897,-6.5897,-6.5897,-6.5897,-6.5897,-6.5897,-6.5897,-6.5897,-6.5897,-6.5897,-6.5897,-6.5897,-6.5897,-6.5897,-6.5897,-6.5897,-6.5897,-6.5897,-6.5897,-6.5897,-6.5897,-6.5897,-6.5897,-6.5897,-6.5897,-6.5897,-6.5897,-6.5897,-6.5897,-6.5897,-6.5897,-6.5897,-6.5897,-6.5897,-6.5897,-6.5166,-6.3423,-6.3308,-6.2551,-6.0858,-6.0781,-6.0781,-6.0781,-6.1562,-6.1562,-6.0781,-6.1601,-6.1562,-6.0781,-6.0781,-6.0781,-7.6624,-7.687,-7.7109,-7.6668,-7.6819,-7.6657,-7.4945,-7.426,-7.3615,-7.2522,0.0,0.0,0.0,0.0,0.0,0.0,-6.8359,-6.8711,0.0,0.0,-6.914,-7.0818,0.0,0.0,-6.8034,-6.858,-6.8398,-6.7051,-6.7859,-6.7821,-6.6474,-6.609,-6.5897,-6.5897,-6.5897,-6.5897,-6.5897,-6.5897,-6.5897,-6.5897,-6.5897,-6.5897,-6.5897,-6.5897,-6.5897,-6.5897,-6.5897,-6.5897,-6.5897,-6.5897,-6.5897,-6.5897,-6.5897,-6.5897,-6.5897,-6.5897,-6.5897,-6.5897,-6.5897,-6.5897,-6.5897,-6.5897,-6.5897,-6.5897,-6.5897,-6.5897,-6.5897,-6.5897,-6.5897,-6.5897,-6.5897,-6.5897,-6.5897,-6.5897,-6.5897,-6.5897,-6.5897,-6.5897,-6.5897,-6.5897,-6.5897,-6.5897,-6.5897,-6.5897,-6.5897,-6.5897,-6.5897,-6.5897,-6.5897,-6.5897,-6.5897,-6.5897,-6.5897,-6.5897,-6.5897,-6.5436,-6.4628,-6.3397,-6.2858,-6.2281,-6.1601,-6.155,-6.1781,-6.2243,-6.2127,-6.2127,-6.2243,-6.2127,-6.1908,-6.1562,-6.105,-6.0781,-7.6291,-7.6641,-7.7089,-7.6968,-7.6954,-7.6743,-7.6003,-7.507,-7.4339,-7.4399,-7.1934,0.0,0.0,0.0,-6.7734,0.0,0.0,-6.8047,-6.9297,-6.8203,-6.7773,-6.9218,-6.886,0.0,0.0,-6.8161,-6.8012,-6.6097,-6.7475,-6.7552,-6.5667,-6.5782,-6.5897,-6.5897,-6.5897,-6.5897,-6.5897,-6.5897,-6.5897,-6.5897,-6.5897,-6.5897,-6.5897,-6.5897,-6.5897,-6.5897,-6.5897,-6.5897,-6.5897,-6.5897,-6.5897,-6.5897,-6.5897,-6.5897,-6.5897,-6.5897,-6.5897,-6.5897,-6.5897,-6.5897,-6.5897,-6.5897,-6.5897,-6.5897,-6.5897,-6.5897,-6.5897,-6.5897,-6.5897,-6.5897,-6.5897,-6.5897,-6.5897,-6.5897,-6.5897,-6.5897,-6.5897,-6.5897,-6.5897,-6.5897,-6.5897,-6.5897,-6.5897,-6.5897,-6.5897,-6.5897,-6.5897,-6.5897,-6.5897,-6.5897,-6.5897,-6.5897,-6.5897,-6.5782,-6.5551,-6.5166,-6.4589,-6.3705,-6.2897,-6.2435,-6.2435,-6.2435,-6.2704,-6.3269,-6.2974,-6.2974,-6.3308,-6.2935,-6.2666,-6.2397,-6.132,-6.0781,-7.4511,-7.5524,-7.6816,-7.681,-7.681,-7.6804,-7.6765,-7.5435,-7.426,-7.435,-7.2294,-7.0516,-7.0663,0.0,0.0,0.0,0.0,0.0,0.0,-6.8672,-6.8476,-6.9297,-6.9267,-6.9155,0.0,-6.9558,-6.8816,-6.6273,-6.7547,-6.7321,-6.4782,-6.5436,-6.5897,-6.5897,-6.5897,-6.5897,-6.5897,-6.5897,-6.5897,-6.5897,-6.5897,-6.5897,-6.5897,-6.5897,-6.5897,-6.5897,-6.5897,-6.5897,-6.5897,-6.5897,-6.5897,-6.5897,-6.5897,-6.5897,-6.5897,-6.5897,-6.5897,-6.5897,-6.5897,-6.5897,-6.5897,-6.5897,-6.5897,-6.5897,-6.5897,-6.5897,-6.5897,-6.5897,-6.5897,-6.5897,-6.5897,-6.5897,-6.5897,-6.5897,-6.5897,-6.5897,-6.5897,-6.5897,-6.5897,-6.5897,-6.5897,-6.5897,-6.5897,-6.5897,-6.5897,-6.5897,-6.5897,-6.5897,-6.5897,-6.5897,-6.5897,-6.5897,-6.5897,-6.5551,-6.4705,-6.5397,-6.5474,-6.4628,-6.3743,-6.3281,-6.3281,-6.3281,-6.3281,-6.3308,-6.4089,-6.4128,-6.3308,-6.4128,-6.4089,-6.3243,-6.155,-6.0781,0.0,0.0,-7.5078,-7.5019,0.0,-7.5121,-7.5575,-7.4861,-7.4141,-7.4152,-7.2629,-7.1152,-7.0714,0.0,0.0,0.0,0.0,0.0,0.0,-6.7851,-6.7656,-6.8433,-6.8435,-6.8336,-6.8344,0.0,0.0,-6.5383,-6.562,-6.5513,-6.4666,-6.4897,-6.5282,-6.5859,-6.5897,-6.5897,-6.5897,-6.5897,-6.5897,-6.5897,-6.5897,-6.5897,-6.5897,-6.5897,-6.5897,-6.5897,-6.5897,-6.5897,-6.5897,-6.5897,-6.5897,-6.5897,-6.5897,-6.5897,-6.5897,-6.5897,-6.5897,-6.5897,-6.5897,-6.5897,-6.5897,-6.5897,-6.5897,-6.5897,-6.5897,-6.5897,-6.5897,-6.5897,-6.5897,-6.5897,-6.5897,-6.5897,-6.5897,-6.5897,-6.5897,-6.5897,-6.5897,-6.5897,-6.5897,-6.5897,-6.5897,-6.5897,-6.5897,-6.5897,-6.5897,-6.5897,-6.5897,-6.5897,-6.5897,-6.5897,-6.5897,-6.5897,-6.5897,-6.5782,-6.5474,-6.5205,-6.4666,-6.3782,-6.4012,-6.4166,-6.4166,-6.4166,-6.4436,-6.5013,-6.4743,-6.4743,-6.5013,-6.4743,-6.4436,-6.4128,-6.3012,-6.2166,-7.3558,-7.3812,0.0,-7.4022,-7.4024,0.0,-7.4575,0.0,-7.4372,-7.4102,-7.327,-7.2365,-7.169,0.0,0.0,0.0,0.0,0.0,0.0,-6.7539,-6.7539,-6.808,-6.8603,-6.8639,-6.7959,-6.8532,-6.7644,-6.459,-6.4861,-6.484,0.0,-6.4436,-6.5013,-6.5859,-6.5897,-6.5897,-6.5897,-6.5897,-6.5897,-6.5897,-6.5897,-6.5897,-6.5897,-6.5897,-6.5897,-6.5897,-6.5897,-6.5897,-6.5897,-6.5897,-6.5897,-6.5897,-6.5897,-6.5897,-6.5897,-6.5897,-6.5897,-6.5897,-6.5897,-6.5897,-6.5897,-6.5897,-6.5897,-6.5897,-6.5897,-6.5897,-6.582,-6.5513,-6.5667,-6.582,-6.5513,-6.5667,-6.5897,-6.5897,-6.5897,-6.5897,-6.5897,-6.5897,-6.5897,-6.5897,-6.5897,-6.5897,-6.5897,-6.5897,-6.5897,-6.5897,-6.5897,-6.5897,-6.5897,-6.5897,-6.5897,-6.5897,-6.5897,-6.5897,-6.5897,-6.5089,-6.4474,-6.4243,-6.4743,-6.5051,-6.5051,-6.5051,-6.5897,-6.7628,-6.5974,-6.5936,-6.7667,-6.5936,-6.5051,-6.5051,-6.4166,-6.3474]},{"header":{"parameterUnit":"m.s-1","parameterCategory":1,"la1":30.6,"la2":29.2853,"lo1":-89.7004,"lo2":-87.6739,"dy":0.0162,"dx":0.0183,"nx":112,"ny":82,"refTime":"2023-03-21T12:00:00:Z","depth":0,"parameterNumber":3,"parameterNumberName":"V-component_of_WINDS"},"data":[0.0,0.0,0.0,0.0,0.0,0.0,0.0,0.0,0.0,0.0,0.0,0.0,0.0,0.0,0.0,0.0,0.0,0.0,0.0,0.0,0.0,0.0,0.0,0.0,0.0,0.0,0.0,0.0,0.0,0.0,0.0,0.0,0.0,0.0,0.0,0.0,0.0,0.0,0.0,0.0,0.0,0.0,0.0,0.0,0.0,0.0,0.0,0.0,0.0,0.0,0.0,0.0,0.0,0.0,0.0,0.0,0.0,0.0,0.0,0.0,0.0,0.0,0.0,0.0,0.0,0.0,0.0,0.0,0.0,0.0,0.0,0.0,0.0,0.0,0.0,0.0,0.0,0.0,0.0,0.0,0.0,0.0,0.0,0.0,0.0,0.0,0.0,0.0,0.0,0.0,0.2428,0.2559,0.277,0.2901,0.2896,0.2887,0.2797,0.2601,0.0,0.0,0.0,0.0,0.0,0.0,0.0,0.0,0.0,0.0,0.0,0.0,0.0,0.0,0.0,0.0,0.0,0.0,0.0,0.0,0.0,0.0,0.0,0.0,0.0,0.0,0.0,0.0,0.0,0.0,0.0,0.0,0.0,0.0,0.0,0.0,0.0,0.0,0.0,0.0,0.0,0.0,0.0,0.0,0.0,0.0,0.0,0.0,0.0,0.0,0.0,0.0,0.0,0.0,0.0,0.0,0.0,0.0,0.0,0.0,0.0,0.0,0.0,0.0,0.0,0.0,0.0,0.0,0.0,0.0,0.0,0.0,0.0,0.0,0.0,0.0,0.0,0.0,0.0,0.0,0.0,0.0,0.0,0.0,0.0,0.0,0.0,0.0,0.0,0.0,0.0,0.0,0.0,0.0,0.0,0.0,0.0,0.0,0.0,0.0,0.0,0.0,0.0,0.0,0.2444,0.2616,0.2759,0.2831,0.2806,0.2757,0.2669,0.2536,0.0,0.0,0.0,0.0,0.0,0.0,0.0,0.0,0.0,0.0,0.0,0.0,0.0,0.0,0.0,0.0,0.0,0.0,0.0,0.0,0.0,0.0,0.0,0.0,0.0,0.0,0.0,0.0,0.0,0.0,0.0,0.0,0.0,0.0,0.0,0.0,0.0,0.0,0.0,0.0,0.0,0.0,0.0,0.0,0.0,0.0,0.0,0.0,0.0,0.0,0.0,0.0,0.0,0.0,0.0,0.0,0.0,0.0,0.0,0.0,0.0,0.0,0.0,0.0,0.0,0.0,0.0,0.0,0.0,0.0,0.0,0.0,0.0,0.0,0.0,0.0,0.0,0.0,0.0,0.0,0.0,0.0,0.0,0.0,0.0,0.0,0.0,0.0,0.0,0.0,0.0,0.0,0.0,0.0,0.0,0.0,0.0,0.0,0.0,0.0,0.0,0.0,0.0,0.2382,0.2484,0.2549,0.2742,0.2799,0.2784,0.2743,0.2658,0.2523,0.2525,0.0,0.0,0.0,0.0,0.0,0.0,0.0,0.0,0.0,0.0,0.0,0.0,0.0,0.0,0.0,0.0,0.0,0.0,0.0,0.0,0.0,0.0,0.0,0.0,0.0,0.0,0.0,0.0,0.0,0.0,0.0,0.0,0.0,0.0,0.0,0.0,0.0,0.0,0.0,0.0,0.0,0.0,0.0,0.0,0.0,0.0,0.0,0.0,0.0,0.0,0.0,0.0,0.0,0.0,0.0,0.0,0.0,0.0,0.0,0.0,0.0,0.0,0.0,0.0,0.0,0.0,0.0,0.0,0.0,0.0,0.0,0.0,0.0,0.0,0.0,0.0,0.0,0.0,0.0,0.0,0.0,0.0,0.0,0.0,0.0,0.0,0.0,0.0,0.0,0.0,0.0,0.0,0.0,0.0,0.0,0.0,0.0,0.0,0.0,0.0,0.0,0.0,0.3323,0.3583,0.3766,0.354,0.3343,0.3351,0.2879,0.263,0.2502,0.2451,0.0,0.0,0.0,0.0,0.0,0.0,0.0,0.0,0.0,0.0,0.0,0.0,0.0,0.0,0.0,0.0,0.0,0.0,0.0,0.0,0.0,0.0,0.0,0.0,0.0,0.0,0.0,0.0,0.0,0.0,0.0,0.0,0.0,0.0,0.0,0.0,0.0,0.0,0.0,0.0,0.0,0.0,0.0,0.0,0.0,0.0,0.0,0.0,0.0,0.0,0.0,0.0,0.0,0.0,0.0,0.0,0.0,0.0,0.0,0.0,0.0,0.0,0.0,0.0,0.0,0.0,0.0,0.0,0.0,0.0,0.0,0.0,0.0,0.0,0.0,0.0,0.0,0.0,0.0,0.0,0.0,0.0,0.0,0.0,0.0,0.0,0.0,0.0,0.0,0.0,0.0,0.0,0.0,0.0,0.0,0.0,0.0,0.0,0.0,0.0,0.0,0.0,0.5863,0.6838,0.7175,0.586,0.4915,0.4969,0.3464,0.2502,0.2433,0.235,0.0,0.0,0.0,0.0,0.0,0.0,0.0,0.0,0.0,0.0,0.0,0.0,0.0,0.0,0.0,0.0,0.0,0.0,0.0,0.0,0.0,0.0,0.0,0.0,0.0,0.0,0.0,0.0,0.0,0.0,0.0,0.0,0.0,0.0,0.0,0.0,0.0,0.0,0.0,0.0,0.0,0.0,0.0,0.0,0.0,0.0,0.0,0.0,0.0,0.0,0.0,0.0,0.0,0.0,0.0,0.0,0.0,0.0,0.0,0.0,0.0,0.0,0.0,0.0,0.0,0.0,0.0,0.0,0.0,0.0,0.0,0.0,0.0,0.0,0.0,0.0,0.0,0.0,0.0,0.0,0.0,0.0,0.0,0.0,0.0,0.0,0.0,0.0,0.0,0.0,0.0,0.0,0.0,0.0,0.0,0.0,0.0,0.0,0.0,0.0,0.0,0.0,0.6743,0.7306,0.8115,0.7465,0.6739,0.5957,0.5175,0.4256,0.2851,0.0,0.0,0.0,0.0,0.0,0.0,0.0,0.0,0.0,0.0,0.0,0.0,0.0,0.0,0.0,0.0,0.0,0.0,0.0,0.0,0.0,0.0,0.0,0.0,0.0,0.0,0.0,0.0,0.0,0.0,0.0,0.0,0.0,0.0,0.0,0.0,0.0,0.0,0.0,0.0,0.0,0.0,0.0,0.0,0.0,0.0,0.0,0.0,0.0,0.0,0.0,0.0,0.0,0.0,0.0,0.0,0.0,0.0,0.0,0.0,0.0,0.0,0.0,0.0,0.0,0.0,0.0,0.0,0.0,0.0,0.0,0.0,0.0,0.0,0.0,0.0,0.0,0.0,0.0,0.0,0.0,0.0,0.0,0.0,0.0,0.0,0.0,0.0,0.0,0.0,0.0,0.0,0.0,0.0,0.0,0.0,0.0,0.0,0.0,0.0,0.0,0.0,0.7818,0.8294,0.8892,0.9687,0.9276,0.8609,0.7844,0.7162,0.5988,0.4087,0.0,0.0,0.0,0.0,0.0,0.0,0.0,0.0,0.0,0.0,0.0,0.0,0.0,0.0,0.0,0.0,0.0,0.0,0.0,0.0,0.0,0.0,0.0,0.0,0.0,0.0,0.0,0.0,0.0,0.0,0.0,0.0,0.0,0.0,0.0,0.0,0.0,0.0,0.0,0.0,0.0,0.0,0.0,0.0,0.0,0.0,0.0,0.0,0.0,0.0,0.0,0.0,0.0,0.0,0.0,0.0,0.0,0.0,0.0,0.0,0.0,0.0,0.0,0.0,0.0,0.0,0.0,0.0,0.0,0.0,0.0,0.0,0.0,0.0,0.0,0.0,0.0,0.0,0.0,0.0,0.0,0.0,0.0,0.0,0.0,0.0,0.0,0.0,0.0,0.0,0.0,0.0,0.0,0.0,0.0,0.0,0.0,0.0,0.0,0.0,0.0,0.0,0.9043,1.0728,1.2059,1.2607,1.1346,1.0556,1.0993,0.925,0.7507,0.0,0.0,0.0,0.0,0.0,0.0,0.0,0.0,0.0,0.0,0.0,0.0,0.0,0.0,0.0,0.0,0.0,0.0,0.0,0.0,0.0,0.0,0.0,0.0,0.0,0.0,0.0,0.0,0.0,0.0,0.0,0.0,0.0,0.0,0.0,0.0,0.0,0.0,0.0,0.0,0.0,0.0,0.0,0.0,0.0,0.0,0.0,0.0,0.0,0.0,0.0,0.0,0.0,0.0,0.0,0.0,0.0,0.0,0.0,0.0,0.0,0.0,0.0,0.0,0.0,0.0,0.0,0.0,0.0,0.0,0.0,0.0,0.0,0.0,0.0,0.0,0.0,0.0,0.0,0.0,0.0,0.0,0.0,0.0,0.0,0.0,0.0,0.0,0.0,0.0,0.0,0.0,0.0,0.0,0.0,0.0,0.0,0.0,0.0,0.0,0.0,0.0,0.0,1.1496,1.1989,1.2663,1.3629,1.3148,1.251,1.1792,1.0989,0.9242,0.641,0.0,0.0,0.0,0.0,0.0,0.0,0.0,0.0,0.0,0.0,0.0,0.0,0.0,0.0,0.0,0.0,0.0,0.0,0.0,0.0,0.0,0.0,0.0,0.0,0.0,0.0,0.0,0.0,0.0,0.0,0.0,0.0,0.0,0.0,0.0,0.0,0.0,0.0,0.0,0.0,0.0,0.0,0.0,0.0,0.0,0.0,0.0,0.0,0.0,0.0,0.0,0.0,0.0,0.0,0.0,0.0,0.0,0.0,0.0,0.0,0.0,0.0,0.0,0.0,0.0,0.0,0.0,0.0,0.0,0.0,0.0,0.0,0.0,0.0,0.0,0.0,0.0,0.0,0.0,0.0,0.0,0.0,0.0,0.0,0.0,0.0,0.0,0.0,0.0,0.0,0.0,0.0,0.0,0.0,0.0,0.0,0.0,0.0,0.0,0.0,0.0,0.0,1.2222,1.2483,1.2966,1.3738,1.379,1.3524,1.2919,1.2538,1.1228,0.8535,0.0,0.0,0.0,0.0,0.0,0.0,0.0,0.0,0.0,0.0,0.0,0.0,0.0,0.0,0.0,0.0,0.0,0.0,0.0,0.0,0.0,0.0,0.0,0.0,0.0,0.0,0.0,0.0,0.0,0.0,0.0,0.0,0.0,0.0,0.0,0.0,0.0,0.0,0.0,0.0,0.0,0.0,0.0,0.0,0.0,0.0,0.0,0.0,0.0,0.0,0.0,0.0,0.0,0.0,0.0,0.0,0.0,0.0,0.0,0.0,0.0,0.0,0.0,0.0,0.0,0.0,0.0,0.0,0.0,0.0,0.0,0.0,0.0,0.0,0.0,0.0,0.0,0.0,0.0,0.0,0.0,0.0,0.0,0.0,0.0,0.0,0.0,0.0,0.0,0.0,0.0,0.0,0.0,0.0,0.0,0.0,0.0,0.0,0.0,0.0,0.0,0.0,1.1886,1.2458,1.2928,1.3286,1.3545,1.3784,1.4148,1.3839,1.2998,1.1566,0.0,0.0,0.0,0.0,0.0,0.0,0.0,0.0,0.0,0.0,0.0,0.0,0.0,0.0,0.0,0.0,0.0,0.0,0.0,0.0,0.0,0.0,0.0,0.0,0.0,0.0,0.0,0.0,0.0,0.0,0.0,0.0,0.0,0.0,0.0,0.0,0.0,0.0,0.0,0.0,0.0,0.0,0.0,0.0,0.0,0.0,0.0,0.0,0.0,0.0,0.0,0.0,0.0,0.0,0.0,0.0,0.0,0.0,0.0,0.0,1.6008,1.5456,0.0,0.0,0.0,0.0,0.0,0.0,0.0,0.0,0.0,0.0,0.0,0.0,0.0,0.0,0.0,0.0,0.0,0.0,0.0,0.0,0.0,0.0,0.0,0.0,0.0,0.0,0.0,0.0,0.0,0.0,0.0,0.0,0.0,0.0,0.0,0.0,0.0,0.0,0.0,0.0,1.2513,1.2818,1.3207,1.3705,1.3793,1.3889,1.3961,1.3766,1.2944,1.1344,1.0811,0.0,0.0,0.0,0.0,0.0,0.0,0.0,0.0,0.0,0.0,0.0,0.0,0.0,0.0,0.0,0.0,0.0,0.0,0.0,0.0,0.0,0.0,0.0,0.0,0.0,0.0,0.0,0.0,0.0,0.0,0.0,0.0,0.0,0.0,0.0,0.0,0.0,0.0,0.0,0.0,0.0,0.0,0.0,0.0,0.0,0.0,0.0,0.0,0.0,0.0,0.0,0.0,0.0,0.0,0.0,0.0,0.0,0.0,0.0,1.8046,1.7392,0.0,0.0,0.0,0.0,0.0,0.0,0.0,0.0,0.0,0.0,0.0,0.0,0.0,0.0,0.0,0.0,0.0,0.0,0.0,0.0,0.0,0.0,0.0,0.0,0.0,0.0,0.0,0.0,0.0,0.0,0.0,0.0,0.0,0.0,0.0,0.0,0.0,0.0,0.0,0.0,1.2702,1.2986,1.3303,1.3847,1.3904,1.3904,1.3904,1.3742,1.3215,1.2337,1.1791,0.0,0.0,0.0,0.0,0.0,0.0,0.0,0.0,0.0,0.0,0.0,0.0,0.0,0.0,0.0,0.0,0.0,0.0,0.0,0.0,0.0,0.0,0.0,0.0,0.0,0.0,0.0,0.0,0.0,0.0,0.0,0.0,0.0,0.0,0.0,0.0,0.0,0.0,0.0,0.0,0.0,0.0,0.0,0.0,0.0,0.0,0.0,0.0,0.0,0.0,0.0,0.0,0.0,2.3095,2.3138,2.0625,2.1919,2.2526,2.2422,2.0693,1.9865,1.9745,1.9564,0.0,0.0,0.0,0.0,0.0,0.0,0.0,0.0,0.0,0.0,0.0,0.0,0.0,0.0,0.0,0.0,0.0,0.0,0.0,0.0,0.0,0.0,0.0,0.0,1.3444,1.3402,1.2995,0.0,0.0,0.0,0.0,0.0,0.0,0.0,0.0,0.0,0.0,0.0,1.2718,1.2946,1.3254,1.3798,1.3888,1.3904,1.3904,1.3774,1.3595,1.3384,1.2889,1.2523,0.0,0.0,0.0,0.0,0.0,0.0,0.0,0.0,0.0,0.0,0.0,0.0,0.0,0.0,0.0,0.0,0.0,0.0,0.0,0.0,0.0,0.0,0.0,0.0,0.0,0.0,0.0,0.0,0.0,0.0,0.0,0.0,1.9473,1.925,0.0,0.0,0.0,0.0,0.0,0.0,0.0,0.0,0.0,0.0,0.0,0.0,0.0,2.3563,2.3821,2.4034,2.4281,2.4494,2.5234,2.5524,2.5477,2.6024,2.6208,2.6183,2.5573,0.0,2.1614,2.1925,0.0,0.0,0.0,0.0,0.0,0.0,0.0,0.0,0.0,0.0,0.0,0.0,0.0,0.0,0.0,0.0,0.0,0.0,0.0,0.0,0.0,0.0,1.7379,1.6224,1.6813,1.7176,0.0,1.3518,1.209,1.2242,1.2277,0.0,0.0,0.0,0.0,0.0,0.0,0.0,1.2532,1.2759,1.3076,1.355,1.3815,1.3904,1.3904,1.388,1.3725,1.3392,1.3011,1.2653,1.232,1.1963,0.0,0.0,0.0,0.0,0.0,0.0,0.0,0.0,0.0,0.0,0.0,0.0,0.0,0.0,0.0,0.0,0.0,0.0,0.0,0.0,0.0,0.0,0.0,0.0,0.0,0.0,0.0,0.0,0.0,2.0945,2.1749,2.2175,2.2397,2.2494,0.0,0.0,0.0,0.0,0.0,0.0,0.0,0.0,0.0,2.4444,2.4848,2.516,2.5271,2.5418,2.5662,2.5992,2.6201,2.6423,2.6745,2.705,2.711,2.7097,2.6817,2.5966,2.4784,2.4492,2.3428,2.1951,0.0,0.0,0.0,0.0,1.9902,2.0043,2.0998,2.1425,2.1582,2.1406,0.0,0.0,0.0,0.0,0.0,0.0,0.0,0.0,0.0,0.0,1.8272,1.7662,1.7963,1.8122,1.6984,1.5924,1.4687,0.0,1.2489,1.241,1.2353,0.0,0.0,0.0,0.0,1.2077,1.2507,1.2726,1.3003,1.3441,1.3652,1.3758,1.3758,1.3758,1.3644,1.3384,1.2938,1.2572,1.232,1.1963,1.1776,0.0,0.0,0.0,0.0,0.0,0.0,0.0,0.0,0.0,0.0,0.0,0.0,0.0,0.0,0.0,0.0,0.0,0.0,0.0,0.0,0.0,0.0,0.0,0.0,0.0,0.0,0.0,0.0,2.3309,2.388,2.4543,2.4939,2.483,0.0,0.0,0.0,0.0,0.0,0.0,2.4528,2.454,2.4697,2.5023,2.5567,2.5969,2.6043,2.6401,2.6772,2.7009,2.7234,2.7548,2.7763,2.7975,2.8034,2.7956,2.7672,2.7571,2.7486,2.6447,2.5343,2.4186,2.385,2.2608,2.1063,2.1303,2.1227,2.1117,2.2539,2.3116,2.3115,2.2992,2.2509,2.1557,1.9693,0.0,0.0,0.0,0.0,1.9004,1.8776,1.9162,1.9426,1.9089,1.9286,1.9312,1.8541,1.834,1.7427,0.0,1.3852,1.3658,1.3464,0.0,0.0,0.0,1.2943,1.3128,1.3525,1.3725,1.3874,1.3874,1.4052,1.3986,1.3644,1.3574,1.3547,1.3311,1.284,1.2467,1.2247,1.1939,1.1776,1.1776,0.0,0.0,0.0,0.0,0.0,0.0,0.0,0.0,0.0,0.0,0.0,0.0,0.0,0.0,0.0,0.0,0.0,0.0,0.0,0.0,0.0,0.0,0.0,0.0,0.0,0.0,0.0,0.0,0.0,2.4614,2.5096,0.0,0.0,0.0,0.0,2.4589,2.4842,2.5108,2.5361,2.5373,2.5615,2.6122,2.6158,2.6291,2.6556,2.7349,2.781,2.8029,2.9093,2.9585,2.9797,3.0063,3.0023,2.9744,2.9451,2.9158,2.8798,2.7197,2.6464,2.6227,2.5577,2.5179,2.4851,2.4851,2.4851,2.4891,2.5219,2.5139,2.5002,2.4988,2.3241,2.1108,2.0505,2.0299,0.0,0.0,2.1424,2.2327,2.0882,2.1596,2.2297,2.0837,2.1609,2.2219,2.0607,2.0002,1.9272,0.0,1.6989,1.669,1.6509,0.0,1.5902,1.5466,1.5654,1.5889,1.6062,1.6498,1.635,1.5205,1.5397,1.5023,1.3714,1.3574,1.349,1.3133,1.2767,1.241,1.206,1.1874,1.1776,1.1776,1.1776,0.0,0.0,0.0,0.0,0.0,0.0,0.0,0.0,0.0,0.0,0.0,0.0,0.0,0.0,0.0,0.0,0.0,0.0,0.0,0.0,0.0,0.0,0.0,0.0,0.0,0.0,0.0,0.0,2.5675,2.5989,0.0,2.5554,2.5289,2.5216,2.5385,2.5494,2.5747,2.6182,2.6206,2.6375,2.6725,2.7177,2.7492,2.7578,2.8044,2.8315,2.8319,2.8881,2.9208,2.9287,2.9843,3.002,2.99,2.9606,2.9312,2.8891,2.7994,2.7399,2.6894,2.6306,2.5785,2.5358,2.5358,2.5117,2.481,2.4917,2.4756,2.4489,2.4302,2.339,2.2302,2.2302,2.1846,2.1538,2.1901,2.2293,2.2483,2.219,2.2516,2.2791,2.2229,2.2516,2.2711,2.1865,2.1587,2.1286,2.0476,1.8418,1.6774,1.6688,1.6482,1.6339,1.6165,1.6339,1.6461,1.6536,1.6839,1.6818,1.6371,1.6537,1.6116,1.4765,1.4629,1.4118,1.3012,1.2596,1.2288,1.2036,1.1866,1.1776,1.1776,1.1776,1.1719,0.0,0.0,0.0,0.0,0.0,0.0,0.0,0.0,0.0,0.0,0.0,0.0,0.0,0.0,0.0,0.0,0.0,0.0,0.0,0.0,0.0,0.0,0.0,0.0,0.0,2.5627,2.6363,2.6363,2.6834,2.7027,2.6665,2.6387,2.6278,2.6363,2.6447,2.6653,2.7015,2.7039,2.716,2.7413,2.7872,2.8248,2.8421,2.8787,2.9024,2.9022,2.949,2.9624,2.943,2.9883,2.9953,2.9766,2.9566,2.9312,2.8991,2.839,2.7939,2.7348,2.6653,2.6092,2.5638,2.5438,2.5117,2.4756,2.4556,2.4369,2.4142,2.3741,2.334,2.3033,2.314,2.2752,2.2365,2.282,2.2726,2.2619,2.2806,2.2928,2.2928,2.2928,2.2779,2.2659,2.2458,2.2258,2.2071,2.1884,1.9988,1.8296,1.8214,1.7992,1.7793,1.7711,1.791,1.8074,1.8074,1.8232,1.8203,1.7753,1.7783,1.7335,1.6002,1.5869,1.5356,1.4113,1.3662,1.3322,1.3063,1.2577,1.2269,1.2269,1.1918,1.1565,1.1321,0.0,0.0,0.0,0.0,0.0,0.0,0.0,0.0,0.0,0.0,0.0,0.0,0.0,0.0,0.0,0.0,0.0,0.0,0.0,0.0,0.0,0.0,0.0,2.4673,2.582,2.6677,2.6725,2.7618,2.8041,2.7546,2.7703,2.7727,2.7473,2.7691,2.7836,2.7836,2.7836,2.7956,2.821,2.821,2.8506,2.8991,2.9703,3.0119,3.0148,3.0783,3.0902,3.0354,3.0341,3.002,2.9486,2.9459,2.9285,2.8965,2.8377,2.7949,2.7575,2.6734,2.6213,2.5879,2.5291,2.5064,2.4957,2.4382,2.4182,2.4075,2.35,2.3313,2.326,2.2953,2.2928,2.2928,2.2928,2.2928,2.2928,2.2928,2.2928,2.2928,2.2928,2.2645,2.2432,2.2418,2.1977,2.1641,2.1614,2.1614,2.1521,2.1162,2.0869,2.0588,2.0307,2.0508,0.0,2.0695,2.0935,2.0589,1.9228,1.9213,1.8781,1.739,1.7248,1.7033,1.6509,1.6028,1.5558,1.5109,1.3926,1.3227,1.3227,1.2181,1.1429,1.102,0.0,0.0,0.0,0.0,0.0,0.0,0.0,0.0,0.0,0.0,0.0,0.0,0.0,0.0,0.0,0.0,0.0,0.0,0.0,0.0,0.0,2.4914,2.5349,2.5723,2.6604,2.7558,2.8524,2.8729,2.8886,2.9115,2.8693,2.8367,2.8294,2.8355,2.8403,2.8403,2.8403,2.8427,2.8512,2.8882,2.9168,2.9264,2.9614,2.984,2.9781,2.9924,2.9965,2.9808,2.9747,2.9633,2.9459,2.9032,2.8671,2.8364,2.7976,2.7402,2.6747,2.672,2.6266,2.5585,2.5224,2.4676,2.4075,2.3701,2.3567,2.35,2.3113,2.2993,2.2979,2.2886,2.2928,2.2928,2.2928,2.2928,2.2928,2.2928,2.2928,2.2928,2.2928,2.2806,2.2686,2.2472,2.2298,2.2058,2.1695,2.1614,2.1521,2.1162,2.1042,2.0962,2.0882,2.0935,0.0,2.0989,2.1056,2.0982,2.0589,2.0604,2.0067,1.863,1.8162,1.7366,1.6057,1.5477,1.5025,1.4842,1.4489,1.4318,1.4318,1.3825,1.3133,0.0,0.0,0.0,0.0,0.0,0.0,0.0,0.0,0.0,0.0,0.0,0.0,0.0,0.0,0.0,0.0,0.0,0.0,0.0,0.0,0.0,0.0,2.5675,2.6363,2.7123,2.763,2.8331,2.9441,2.9538,2.9682,3.0093,2.9622,2.92,2.897,2.8958,2.885,2.8632,2.862,2.862,2.862,2.91,2.9326,2.9214,2.981,2.9888,2.9631,2.9664,2.9662,2.953,2.9336,2.9165,2.8911,2.8698,2.8283,2.7859,2.7722,2.7255,0.0,0.0,0.0,0.0,0.0,2.4489,2.3888,2.3474,2.3327,2.3273,2.2966,2.2928,2.2928,2.2928,2.2928,2.2928,2.2928,2.2928,2.2928,2.2928,2.2766,2.2712,2.2901,2.2672,2.2445,2.2271,2.2138,2.1924,2.1456,2.1363,0.0,2.1136,2.1109,2.1109,2.1109,2.1109,2.1109,2.1109,2.1109,2.1109,2.1109,2.1109,2.074,1.9777,1.9525,0.0,0.0,0.0,1.631,1.5333,1.5311,0.0,0.0,0.0,1.4009,1.3312,0.0,0.0,0.0,1.1338,1.1313,0.0,0.0,0.0,0.0,0.0,0.0,0.0,0.0,0.0,0.0,0.0,0.0,0.0,0.0,0.0,0.0,2.6592,2.7498,2.8596,2.8753,2.9031,2.9791,3.0081,3.0322,3.0576,3.0334,2.9972,2.9489,2.9393,2.9163,2.8693,2.8608,0.0,0.0,0.0,2.9251,2.8979,2.9858,3.0015,2.9469,2.9607,2.9597,2.9331,2.9038,2.8698,2.8288,2.8417,2.803,2.7281,2.7509,2.7241,2.6653,2.6386,2.5905,2.5291,2.4743,2.4329,2.3981,2.346,0.0,0.0,2.2953,2.2928,2.2928,2.2928,2.2928,2.2928,2.2928,2.2928,2.2928,2.2928,2.2672,2.2539,2.2806,2.2432,2.2031,2.1991,2.1764,2.1534,2.1162,2.1109,2.1109,2.1109,2.1109,2.1109,2.1109,2.1109,2.1109,2.1109,2.1109,2.1109,2.1109,0.0,0.0,2.0748,2.0869,2.0535,1.9533,1.9345,1.8411,1.6357,1.6278,1.5775,1.479,1.4735,1.4625,1.4298,1.3275,1.285,1.285,1.1582,1.1265,0.0,0.0,0.0,0.0,0.0,0.0,0.0,0.0,0.0,0.0,0.0,0.0,0.0,0.0,0.0,2.6262,2.7148,2.8113,2.9393,2.9574,2.9791,3.0383,3.031,3.0322,3.0576,3.0165,2.9839,2.9731,2.9332,2.9043,2.8946,2.8524,2.8391,2.862,2.91,2.9251,2.8979,2.909,2.9064,2.8732,0.0,0.0,2.8588,2.8645,2.8631,2.8497,2.8056,2.7642,2.7255,2.7068,2.6507,2.5758,2.5705,2.5184,2.4409,2.4062,2.3594,2.31,2.2993,2.2953,2.2939,2.2954,2.2928,2.2928,2.2928,2.2928,0.0,2.2928,2.2928,2.2928,2.2928,2.2819,2.2792,2.2846,2.2592,2.2271,2.2031,2.1764,2.1534,2.1162,2.1109,2.1109,2.1109,2.1109,2.1109,2.1109,2.1109,2.1109,2.1109,2.1109,2.1109,2.1109,2.1109,2.1082,2.1029,2.0428,2.0054,2.0067,1.9185,1.8247,1.737,1.7291,1.7238,1.6959,1.6959,1.6508,1.5541,1.5316,1.4808,1.4006,1.1966,1.158,0.0,0.0,0.0,0.0,0.0,0.0,0.0,0.0,0.0,0.0,0.0,2.0063,2.2172,0.0,2.6496,2.7292,2.8089,2.8886,2.9682,3.0141,3.0491,3.0769,3.0455,3.0262,3.0395,3.0045,2.9682,2.9429,2.9043,2.8813,2.8813,2.8427,2.827,2.8415,2.8892,2.8823,2.8001,2.8465,2.8384,2.7788,2.7797,2.7939,2.8113,2.8083,2.8047,2.7923,2.7762,2.7375,2.68,2.6507,2.5959,2.5291,2.5291,2.4943,2.4369,2.3928,2.3581,2.3343,2.2966,2.2928,2.2928,2.2928,2.2928,2.2928,2.2928,2.2928,2.2928,2.2928,2.2928,2.2928,2.2928,2.2752,2.2645,2.2645,2.2418,2.2124,2.183,2.1722,2.1534,2.1162,2.1109,2.1109,2.1109,2.1109,2.1109,2.1109,2.1109,2.1109,2.1109,2.1109,2.1109,2.1109,2.1109,2.1056,2.0909,2.0227,1.98,1.98,1.8971,1.8223,1.7609,1.7582,1.7582,1.7582,1.7582,1.7318,1.6776,1.618,1.5654,1.5135,1.3337,1.2959,0.0,0.0,0.0,0.0,0.0,0.0,0.0,1.3661,1.4245,1.6609,1.8583,2.0705,2.3208,2.5615,2.7558,2.8246,2.8994,2.9586,2.9912,3.0467,3.0865,3.0914,3.0552,3.0274,3.0226,2.9912,2.9562,2.9188,2.8777,2.856,2.862,2.8306,2.8125,2.8125,2.8564,2.8209,2.7039,2.7792,2.7673,2.6772,2.692,2.7212,2.7556,2.7408,2.7271,2.7115,2.7235,2.6905,2.6201,2.5908,2.5481,2.5002,2.5024,2.4775,2.4422,2.3981,2.3701,2.3598,2.3102,2.2928,2.2928,2.2928,2.2928,2.2928,2.2928,2.2928,2.2928,2.2928,2.2928,2.2928,2.2928,2.2645,2.2418,2.2418,2.2151,2.1844,2.1668,2.1574,2.1403,2.1162,2.1109,2.1109,2.1109,2.1109,2.1109,2.1109,2.1109,2.1109,2.1109,2.1109,2.1109,2.1109,2.1109,2.0989,2.0695,2.0241,1.98,1.9399,1.8865,1.8303,1.7702,1.7609,1.7582,1.7582,1.7582,1.7582,1.7582,1.667,1.6234,1.6234,1.5209,1.4732,1.1367,1.2906,1.3358,1.3226,1.3341,1.358,0.0,1.4197,1.4639,1.6884,1.9317,2.1693,2.3522,2.6338,2.8548,2.8874,2.9393,2.9936,3.0443,3.0395,3.0395,3.0624,3.06,3.0467,3.0238,2.9755,2.9526,2.9695,2.8801,2.8355,2.8608,2.8137,2.786,2.786,2.8171,2.7824,2.7039,2.6887,2.65,2.5955,2.6105,2.6226,2.6311,2.6711,2.6702,2.6479,2.6006,2.5708,2.5426,2.5139,2.4838,2.4599,2.4634,2.4441,2.4053,2.3838,2.3434,2.3021,2.2886,2.2928,2.2928,2.2928,2.2928,2.2928,2.2928,2.2928,2.2928,2.2928,2.2928,2.2928,2.2928,2.2645,2.2418,2.2418,2.2004,2.1655,2.1628,2.1349,2.1149,2.1122,2.1109,2.1109,2.1109,2.1109,2.1109,2.1109,2.1109,2.1109,2.1109,2.1109,2.1109,2.1109,2.1109,2.0989,2.0695,2.0615,2.0227,1.947,1.9052,1.8555,1.7969,1.7729,1.7582,1.7582,1.7582,1.7582,1.7582,1.7477,1.7424,1.7424,1.7252,1.6683,1.0936,1.2448,1.2964,1.3333,1.3493,1.3727,1.4554,1.4611,1.5146,1.7545,1.9005,2.0819,2.4345,2.6122,2.7657,2.9219,2.9791,3.0117,3.0346,3.0286,3.0141,2.9936,3.0045,3.0093,2.9984,2.9634,2.932,2.9127,2.8403,2.8089,2.8367,2.8017,2.7884,2.8029,2.7993,2.7594,2.681,2.6532,2.6206,2.582,2.5726,2.5934,2.6339,2.6186,2.6062,2.5867,2.5295,2.4903,2.4662,2.4456,2.4173,2.3828,2.3861,2.3866,2.3771,2.397,2.3754,2.3367,2.3193,2.3006,2.2928,2.2928,2.2928,2.2928,2.2928,2.2928,2.2928,2.2928,2.2928,2.2819,2.2442,2.2377,2.2258,2.1727,2.1593,2.1574,2.1336,2.1203,2.1109,2.1109,2.1109,2.1109,2.1109,2.1109,2.1109,2.1109,2.1109,2.1109,2.1109,2.1109,2.1109,2.1109,2.1109,2.1056,2.0935,2.0775,2.0374,1.9666,1.9345,1.8838,1.8022,1.7862,1.7769,1.7582,1.7582,1.7582,1.7582,1.7582,1.7582,1.7582,1.7582,1.7318,1.0801,1.2107,1.2693,1.3222,1.3611,1.403,1.4832,1.5033,1.5563,1.753,1.8461,2.0179,2.4325,2.5708,2.7136,2.9474,3.0081,3.0214,3.0214,3.0081,2.9815,2.9357,2.9332,2.9357,2.9357,2.926,2.9031,2.8656,2.8053,2.7787,2.798,2.7872,2.7836,2.7872,2.7836,2.7401,2.6532,2.6327,2.6049,2.5723,2.5602,2.5823,2.6253,2.5785,2.5409,2.5188,2.4623,2.4221,2.4099,2.382,2.3542,2.329,2.3288,2.3283,2.3323,2.3753,2.383,2.3607,2.33,2.3046,2.2928,2.2928,2.2928,2.2928,2.2928,2.2928,2.2928,2.2928,2.2791,2.2587,2.2026,2.1962,2.1779,2.1019,2.1096,2.1248,2.1036,2.1046,2.1109,2.1109,2.1109,2.1109,2.1109,2.1109,2.1109,2.1109,2.1109,2.1109,2.1109,2.1109,2.1109,2.1109,2.1109,2.1082,2.1002,2.0722,2.0334,1.9826,1.9452,1.8918,1.8142,1.8035,1.7849,1.7595,1.7582,1.7582,1.7582,1.7582,1.7582,1.7582,1.7582,1.7582,1.1018,1.1784,1.2614,1.2679,1.356,1.4525,1.4853,1.5433,1.6005,1.6326,1.8202,2.0477,2.3006,2.5379,2.76,2.9784,3.0214,3.0214,3.0214,2.9767,2.9332,2.9055,2.8572,2.8246,2.8246,2.8487,2.8644,2.862,2.7884,2.7437,2.7449,2.7679,2.7582,2.7087,2.7546,2.7304,2.6242,2.6218,2.5953,2.5458,2.5699,2.582,2.5808,2.5289,2.4745,2.4202,2.3683,2.3531,2.3624,2.3364,2.3091,2.2905,2.2999,2.2825,2.2568,2.3027,2.324,2.33,2.2979,2.2941,2.2928,2.2928,2.2928,2.2928,2.2928,2.2928,2.2928,2.2928,2.2654,2.2245,2.1958,2.1417,2.0869,2.059,2.0567,2.0615,2.0615,2.0856,2.1109,2.1109,2.1109,2.1109,2.1109,2.1109,2.1109,2.1109,2.1109,2.1109,2.1109,2.1109,2.1109,2.1109,2.1109,2.0989,2.0708,2.0414,2.012,1.9813,1.9252,1.8798,1.849,1.8142,1.7849,1.7595,1.7582,1.7582,1.7582,1.7582,1.7582,1.7582,1.7582,1.7582,0.9559,1.093,1.254,1.3143,1.3694,1.4201,1.5221,1.56,1.5956,1.6462,1.6919,1.7863,2.0179,2.2412,2.4582,2.6681,2.8654,2.9936,2.9936,2.9634,2.9175,2.8548,2.8318,2.7993,2.7473,2.7824,2.8089,2.8089,2.7667,2.7425,2.7425,2.751,2.7546,2.7546,2.7546,2.7208,2.6508,2.6315,2.6037,2.5699,2.5615,2.5385,2.5023,2.4673,2.4229,2.3949,2.3418,2.3206,2.3239,2.28,2.2568,2.2471,2.2534,2.2645,2.2744,2.2501,2.2561,2.286,2.3064,2.3033,2.2928,2.2928,2.2722,2.2516,2.2516,2.2379,2.2173,2.2173,2.2035,2.1833,2.128,2.1015,2.0803,2.0263,2.0245,2.0361,2.0552,2.0666,2.0856,2.1046,2.1109,2.1109,2.1109,2.1109,2.1109,2.1109,2.1109,2.1109,2.1109,2.1109,2.1109,2.1109,2.1109,2.0989,2.0695,2.0401,2.0107,1.9813,1.9439,1.9092,1.8784,1.849,1.8196,1.7903,1.7689,1.7582,1.7582,1.7582,1.7582,1.7582,1.7582,1.7582,0.8664,1.0026,1.1584,1.3106,1.3689,1.4212,1.4996,1.5512,1.5898,1.6254,1.6138,1.6496,1.8592,2.061,2.2586,2.4616,2.712,2.891,2.9188,2.8837,2.8427,2.8101,2.7811,2.7449,2.6942,2.7196,2.7473,2.7655,2.7425,2.728,2.728,2.7365,2.7461,2.7534,2.7461,2.7123,2.6496,2.6315,2.6037,2.5687,2.5518,2.5156,2.4625,2.4456,2.4049,2.3683,2.3237,2.3072,2.2951,2.2515,2.2211,2.2188,2.2017,2.2142,2.2214,2.1842,2.1894,2.214,2.2592,2.2687,2.2516,2.2516,2.231,2.2104,2.2104,2.1966,2.176,2.176,2.1691,2.1421,2.0953,2.0754,2.0518,1.9961,1.9933,2.0105,2.0246,2.0348,2.0552,2.0856,2.0919,2.0982,2.1109,2.1109,2.1109,2.1109,2.1109,2.1109,2.1109,2.1109,2.1109,2.1109,2.1109,2.0949,2.0548,2.0347,2.0067,1.9666,1.9466,1.9239,1.8931,1.8651,1.8343,1.7982,1.7742,1.7582,1.7582,1.7582,1.7582,1.7582,1.7582,1.7582,0.8262,0.9177,1.0115,1.2559,1.3752,1.4346,1.4346,1.5179,1.5757,1.5712,1.5718,1.6361,1.8112,1.9767,2.1621,2.3698,2.5671,2.7261,2.8137,2.7606,2.7304,2.7751,2.716,2.6689,2.6641,2.6653,2.687,2.7365,2.7172,2.7027,2.7027,2.7268,2.7292,2.7039,2.7256,2.7003,2.623,2.6194,2.5928,2.5433,2.5409,2.512,2.4625,2.4601,2.4178,2.3363,2.3164,2.2975,2.2709,2.2443,2.2114,2.1873,2.1619,2.1354,2.1159,2.1229,2.1188,2.1257,2.1634,2.176,2.176,2.176,2.176,2.176,2.176,2.1772,2.176,2.176,2.1484,2.1076,2.0817,2.0539,2.0122,1.9603,1.9732,1.9918,1.9658,1.9851,2.017,2.0488,2.0602,2.0729,2.1046,2.1109,2.1109,2.1109,2.1109,2.1109,2.1109,2.1109,2.1109,2.1109,2.1109,2.0882,2.0307,2.0241,1.9987,1.9426,1.943,1.9239,1.8958,1.8664,1.8357,1.805,1.7756,1.7595,1.7582,1.7582,1.7582,1.7582,1.7582,1.7582,0.6731,0.8603,1.0497,1.3048,1.3729,1.3924,1.4346,1.4481,1.4741,1.5112,1.4737,1.4453,1.4925,1.6745,1.8936,2.1144,2.3908,2.6481,2.8524,2.8632,2.8331,2.7872,2.763,2.728,2.6701,2.681,2.6979,2.7123,2.7075,2.7027,2.7027,2.7087,2.7099,2.7039,2.6906,2.6641,2.6218,2.5832,2.5566,2.5433,2.5023,2.4758,2.4613,2.4226,2.3748,2.3363,2.3164,2.2975,2.2709,2.2443,2.2297,2.215,2.209,2.2017,2.197,2.1582,2.1412,2.1351,2.109,2.1358,2.176,2.176,2.1622,2.1346,2.1346,2.1151,2.1012,2.1012,2.0943,2.0743,2.0476,2.0202,1.9953,1.9808,1.9536,1.941,1.9804,1.9797,1.9839,2.017,2.0425,2.0729,2.1046,2.1109,2.1109,2.1109,2.1109,2.1109,2.1109,2.1109,2.1109,2.1109,2.1109,2.0962,2.0588,2.0361,2.008,1.972,1.9492,1.9332,1.9252,1.8971,1.8677,1.837,1.8076,1.7809,1.7582,1.7582,1.7582,1.7582,1.7582,1.7582,0.4618,0.6954,0.9295,1.1607,1.3017,1.3784,1.3778,1.3757,1.386,1.4164,1.3802,1.3552,1.3543,1.5256,1.7104,1.8484,2.1797,2.4866,2.6645,2.7629,2.8065,2.7836,2.7715,2.7425,2.687,2.6942,2.7027,2.7027,2.7027,2.7027,2.7027,2.7027,2.7027,2.7027,2.6882,2.6616,2.6218,2.5699,2.5313,2.5083,2.477,2.4504,2.4275,2.3973,2.3635,2.3261,0.0,2.2903,2.2539,2.2319,2.2126,2.1921,2.1921,2.1776,2.1523,2.1233,2.1124,2.1076,2.0774,2.0943,2.1289,2.1289,2.1151,2.1012,2.1012,2.0873,2.0665,2.0665,2.0665,2.0605,2.0352,2.0255,2.0146,1.9784,1.9567,1.9475,1.9585,1.9502,1.9456,1.9839,2.017,2.0488,2.0792,2.0729,2.0729,2.1046,2.0982,2.0919,2.1109,2.1109,2.1109,2.1109,2.1109,2.0935,2.0521,2.0334,2.0054,1.9639,1.9452,1.943,1.943,1.9078,1.8851,1.8691,1.8209,1.7902,1.7782,1.7649,1.7582,1.7582,1.7582,1.7318,0.2831,0.5047,0.7308,0.9644,1.1816,1.3407,1.2962,1.3167,1.3301,1.2987,1.3023,1.3115,1.3112,1.4527,1.5785,1.6224,1.9514,2.2589,2.4252,2.5719,2.7029,2.7751,2.7582,2.7317,2.7051,2.7027,2.7027,2.7027,2.7027,2.7027,2.7027,2.7027,2.7003,2.693,2.6918,2.6665,2.6122,2.5663,2.518,2.4685,2.4649,2.4371,2.382,2.3784,2.355,2.3121,2.3121,2.2818,2.2334,2.2334,2.1993,2.1583,2.1583,2.1269,2.0822,2.0786,2.075,2.0783,2.0678,2.0665,2.0665,2.0665,2.0665,2.0665,2.0665,2.0665,2.0665,2.0665,2.0665,2.0605,2.0303,2.0424,2.0424,1.9652,1.9652,1.97,1.9229,1.9096,1.92,1.952,1.9839,2.017,2.0488,2.0297,2.0297,2.0856,2.0729,2.0666,2.0919,2.1046,2.1109,2.1109,2.1109,2.0882,2.0334,2.0254,2.0,1.9452,1.9444,1.943,1.943,1.9118,1.8958,1.8918,1.8328,1.8035,1.7995,1.7729,1.7582,1.7582,1.7424,1.6829,0.2807,0.3721,0.5082,0.944,1.0561,1.1112,1.2721,1.3026,1.2806,1.2571,1.2505,1.2615,1.2788,1.3168,1.4297,1.6677,1.7912,2.0095,2.4524,2.5185,2.5919,2.7613,2.7582,2.7317,2.7051,2.7027,2.7027,2.7027,2.7027,2.7027,2.7027,2.7027,2.6822,2.6375,2.6363,2.6109,2.5578,2.5482,2.5277,2.4891,2.4733,2.4468,2.4154,2.3856,2.355,2.3121,2.3121,0.0,2.2334,2.2334,2.2285,2.2126,2.2126,2.1933,2.1631,2.1414,2.1197,2.1038,2.0807,2.0665,2.0665,2.0665,2.0665,2.0665,2.0665,2.0665,2.0665,2.0665,2.0665,2.0557,2.0074,2.0146,2.0195,1.9669,1.9572,1.9519,1.9487,1.9229,1.92,1.952,1.9647,1.9775,2.0106,2.017,2.017,2.0234,2.0234,2.0234,2.0297,2.0729,2.1109,2.1109,2.1109,2.0975,2.0628,2.0374,2.0094,1.9746,1.9506,1.943,1.943,1.9319,1.9172,1.8931,1.8584,1.829,1.7995,1.7729,1.7582,1.7582,1.6605,1.6074,0.1332,0.2579,0.4055,0.6274,0.8419,1.0134,1.0736,1.1508,1.2142,1.2071,1.1973,1.2016,1.2601,1.2854,1.3531,1.4967,1.6434,1.8796,2.2552,2.4016,2.5392,2.7397,2.7498,2.7317,2.7051,2.7027,2.7027,2.7027,2.7027,2.7027,2.7027,2.7027,2.6846,2.6447,2.6291,2.6037,2.5651,2.5373,2.5096,2.4818,2.4552,2.4287,2.4021,2.382,2.3623,2.3249,2.3181,2.2903,2.2527,2.2394,2.2249,2.2042,2.1909,2.1691,2.1414,2.116,2.0967,2.0834,2.0714,2.0665,2.0665,2.0665,2.0665,2.0665,2.0665,2.0665,2.0665,2.0665,2.0665,2.0581,2.0195,2.0279,2.0352,1.9808,1.9567,1.9572,1.9652,1.9362,1.9172,1.9512,1.9426,1.9456,1.9775,1.9711,1.9724,2.0043,1.9979,1.9903,2.0106,2.0361,2.0666,2.0792,2.0982,2.0922,2.0481,2.0307,2.004,1.9599,1.9439,1.943,1.943,1.943,1.9305,1.9158,1.8865,1.8571,1.8277,1.7969,1.7742,1.7582,1.6446,1.553,0.0,0.1367,0.2975,0.3382,0.6019,0.8605,0.8743,0.999,1.1186,1.1606,1.1591,1.1817,1.2423,1.2748,1.301,1.3302,1.5066,1.7474,2.0592,2.2464,2.4525,2.7089,2.7377,2.7256,2.7051,2.7027,2.7003,2.6954,2.6942,2.6966,2.7027,2.6979,2.6822,2.6556,2.6278,2.6013,2.5747,2.5337,2.4987,2.4709,2.4444,2.4178,2.3844,2.3796,2.3671,2.3357,2.314,2.2939,2.2624,2.2418,2.2212,2.1933,2.1728,2.145,2.1195,2.0919,2.0774,2.0665,2.0665,2.0665,2.0665,2.0665,2.0665,2.0665,2.0665,2.0665,2.0665,2.0665,2.0665,2.0605,2.0352,2.0472,2.0557,2.0086,1.976,1.9615,1.9833,1.9555,1.9289,1.9499,1.9301,1.9273,1.9456,1.9264,1.9264,1.9788,1.9647,1.9584,1.9851,1.9979,2.0106,2.0348,2.0729,2.077,2.0252,2.026,2.008,1.9492,1.9466,1.9439,1.943,1.9127,1.9127,1.9372,1.8779,1.8516,1.8584,1.8169,1.7862,1.7622,1.6205,1.4995,0.0,0.0113,0.0803,0.3067,0.3691,0.473,0.8088,0.9094,0.9586,1.0986,1.1751,1.2176,1.2121,1.2502,1.2847,1.3146,1.3391,1.5272,2.014,2.082,2.2447,2.6834,2.7208,2.7051,2.7039,2.7027,2.693,2.6701,2.6677,2.6773,2.7015,2.681,2.6544,2.6266,2.6001,2.5735,2.5482,2.5421,2.5264,2.4915,2.4721,2.4456,2.419,2.3868,2.3562,2.3157,2.3133,2.283,0.0,2.2346,2.2321,2.2297,2.2273,2.1885,2.1438,2.1414,2.1088,2.0665,2.0665,2.0665,2.0665,2.0665,2.0665,2.0665,2.0665,2.0665,2.0665,2.0665,2.0665,2.0605,2.0352,2.0472,2.0593,2.0315,2.0038,1.9857,1.9881,1.9845,1.9748,1.9507,1.9512,1.9415,1.9185,1.9136,1.9136,1.92,1.9136,1.9136,1.92,1.9456,1.9647,1.9699,2.0284,2.0548,2.0234,2.0456,2.0388,1.98,1.976,1.9639,1.943,1.8286,1.8227,1.9372,1.795,1.7742,1.8878,1.8262,1.7982,1.7888,1.5433,1.4191,0.0,0.0,0.0229,0.1244,0.3121,0.5085,0.6463,0.8509,1.0379,1.1131,1.1346,1.1476,1.1825,1.2088,1.2239,1.243,1.2688,1.4077,1.7472,1.869,2.0647,2.4497,2.5472,2.6085,2.6737,2.6641,2.6496,2.6399,2.6387,2.6435,2.6532,2.6604,2.6435,2.6001,2.588,2.5699,2.5446,2.5108,2.489,2.4782,2.4359,2.4025,2.3997,2.3808,2.3647,2.3285,2.3116,2.2915,0.0,2.2406,2.2334,2.2247,2.209,2.1897,2.1691,2.1535,2.1233,2.0977,2.0977,2.0868,2.0665,2.0665,2.0665,2.0665,2.0665,2.0665,2.0665,2.0665,2.0665,2.0641,2.0545,2.0593,2.0641,2.0533,2.0315,2.0158,2.0327,2.011,1.9905,1.9941,1.982,1.9627,1.9362,1.9314,1.9253,1.9096,1.9072,1.9072,1.9072,1.92,1.9328,1.9328,1.9903,2.0182,1.9899,2.0185,2.02,1.9792,1.9774,1.9746,1.9639,1.8257,1.7747,1.8227,1.6891,1.6286,1.6609,1.6301,1.6042,1.5768,1.393,1.3058,0.0,0.0,0.0,0.0,0.244,0.4906,0.5347,0.7798,1.0287,1.1009,1.1079,1.1044,1.1418,1.1719,1.1934,0.0,1.2356,1.3469,1.5698,1.6942,1.8995,2.2427,2.355,2.4566,2.5986,2.6134,2.6109,2.6109,2.6109,2.6073,2.5989,2.617,2.6146,2.5832,2.5747,2.559,2.524,2.4939,2.4709,2.4625,2.4178,2.3925,2.376,2.3688,2.3459,2.3212,2.3007,2.2854,0.0,2.2406,2.2334,2.2321,2.2054,2.1885,2.1728,2.1547,2.1257,2.1013,2.1013,2.0892,2.0665,2.0665,2.0665,2.0665,2.0665,2.0665,2.0665,2.0665,2.0665,2.0665,2.0665,2.0665,2.0665,2.0665,2.0533,2.0448,2.0629,2.0376,2.0146,2.0255,2.0122,1.9917,1.9639,1.9591,1.9495,1.9229,1.9193,1.9169,1.9084,1.9072,1.9072,1.9072,1.952,1.9776,1.9701,1.9613,1.9487,1.921,1.8874,1.8686,1.8643,1.7197,1.6583,1.6926,1.5688,1.5129,1.5263,1.5027,1.4837,1.4489,1.3102,1.2265,0.0,0.0,0.0,0.0,0.1348,0.3226,0.5031,0.6803,0.8586,1.0341,1.0969,1.1167,1.1051,1.1635,1.205,1.1908,1.2269,1.3304,1.5581,1.5948,1.7367,2.12,2.1669,2.2527,2.4819,2.553,2.5832,2.5832,2.5832,2.5723,2.5458,2.5446,2.5566,2.582,2.5578,2.5313,2.4963,2.4963,2.4902,2.4625,2.4359,2.4094,2.376,2.3495,2.3164,2.2733,2.2733,2.2588,0.0,2.2334,2.2334,2.2334,2.2334,2.1933,2.1486,2.1474,2.1136,2.0665,2.0665,2.0665,2.0665,2.0665,2.0665,2.0665,2.0665,2.0665,2.0665,2.0665,2.0665,2.0665,2.0665,2.0665,2.0665,2.0665,2.0665,2.0665,2.0665,2.0665,2.0581,2.0327,2.0279,2.0195,1.9929,1.9881,1.9784,1.9572,1.9524,1.9374,1.9108,1.9072,1.9072,1.9072,1.9136,1.9264,1.9571,1.8652,1.8035,1.8109,1.6803,1.5961,1.5864,1.4638,1.4489,1.558,1.4381,1.4321,1.5569,1.5274,1.5027,1.4848,1.3384,1.1961,0.0,0.0,0.0,0.0,0.2262,0.4691,0.5294,0.7684,1.0002,1.0557,1.0601,1.0648,1.0445,1.1027,1.152,1.1306,1.1972,1.2692,1.3261,1.4446,1.5948,1.7837,2.0688,2.2727,2.3317,2.4676,2.5566,2.5566,2.5397,2.5337,2.5433,2.5083,2.5096,2.5542,2.512,2.4939,2.4963,2.4673,2.4444,2.4359,2.4013,2.3844,2.376,2.3495,2.3261,2.2988,2.2806,2.2576,2.2334,2.2334,2.2334,2.2334,2.2334,2.2237,2.1993,2.1812,2.1523,2.1197,2.1074,2.0822,2.0665,2.0665,2.0665,2.0665,2.0665,2.0665,2.0665,2.0665,2.0665,2.0665,2.0665,2.0665,2.0665,2.0665,2.0665,2.0665,2.0665,2.0665,2.0641,2.0557,2.0545,2.046,2.0195,2.0158,2.0002,1.9596,1.9536,1.9374,1.9108,1.9072,1.9072,1.9072,1.9072,1.9136,1.9264,1.8279,1.7667,1.7716,1.6382,1.5719,1.5961,1.4562,1.3967,1.4428,1.3213,1.2673,1.3024,1.2758,1.249,1.2224,1.1637,1.113,0.0,0.0,0.0,0.0,0.2194,0.4583,0.528,0.7675,0.9863,1.0497,1.0465,1.0346,1.0226,1.0649,1.0987,1.0856,1.1594,1.2129,1.195,1.3187,1.4507,1.5764,1.9761,2.2406,2.2171,2.4136,2.5433,2.5433,2.5107,2.5035,2.5277,2.477,2.4673,2.512,2.4806,2.4661,2.4733,2.4407,2.419,2.4082,2.3844,2.3712,2.3604,2.3418,2.3152,2.2951,2.2697,2.2491,0.0,2.2334,2.2334,2.2334,2.2334,2.2273,2.2152,2.1824,2.1547,2.1281,2.1003,2.088,2.0665,2.0665,2.0665,2.0665,2.0665,2.0665,2.0665,2.0665,2.0665,2.0665,2.0665,2.0665,2.0665,2.0665,2.0665,2.0665,2.0665,2.0665,2.0665,2.0665,2.0665,2.0617,2.0448,2.034,2.0122,1.9688,1.9531,1.9374,1.9108,1.9072,1.888,1.8355,1.8291,1.8098,1.7571,1.6926,1.6333,1.5944,1.4566,1.3906,1.4224,1.3277,1.2775,1.29,1.2167,1.1752,1.1776,1.1589,1.1346,1.1062,1.0883,1.0761,0.0,0.0,0.0,0.0,0.1318,0.3174,0.4984,0.6789,0.0,1.0235,1.0454,1.0335,1.0204,1.0403,1.0595,1.0521,1.1137,1.1689,1.1669,1.2209,1.3212,1.4844,1.8698,2.123,2.1341,2.3679,2.5251,2.5324,2.5083,2.4939,2.4939,2.4504,2.4323,2.4589,2.4576,2.4468,2.4238,2.4214,2.4082,2.376,2.376,2.3628,2.3363,2.3164,2.2975,0.0,2.2455,2.2334,0.0,2.2334,2.2334,2.2334,2.2334,2.2176,2.1836,2.1583,2.1305,2.1086,2.0762,2.0665,2.0665,2.0665,2.0665,2.0665,2.0665,2.0665,2.0665,2.0665,2.0665,2.0665,2.0665,2.0665,2.0665,2.0665,2.0596,2.0596,2.0665,2.0596,2.0596,2.0665,2.0665,2.0665,2.0665,2.046,2.0207,1.9929,1.9664,1.9398,1.9108,1.9008,1.8483,1.7109,1.6915,1.6268,1.4838,1.4782,1.4324,1.3341,1.1823,1.1092,1.1251,1.1158,1.1179,1.1292,1.1277,1.1458,1.1776,1.1589,1.1403,1.1216,1.1045,1.0867,0.0,0.0,0.0,0.0,0.1347,0.3161,0.0,0.6727,0.8414,1.0124,1.0329,1.0182,0.9965,1.0285,1.0531,1.0214,1.0866,1.1453,1.1547,1.2502,1.3377,1.3774,1.6402,1.8529,1.9649,2.1895,2.379,2.4987,2.4878,2.4721,2.4721,2.4226,2.4057,2.4323,2.4049,2.4094,2.4238,2.4033,2.382,2.376,2.376,2.3628,2.3363,2.3164,2.2975,2.2721,2.2455,2.2334,2.2334,2.2334,2.2334,2.2334,2.2334,2.2176,2.1836,2.1583,2.1305,2.1086,2.0762,2.0665,2.0665,2.0665,2.0665,2.0665,2.0665,2.0665,2.0665,2.0665,2.0665,2.0665,2.0665,2.0665,2.0665,2.0665,1.982,1.9251,2.0457,1.975,1.9251,2.0457,2.0665,2.0665,2.0665,2.0617,2.0424,1.9953,1.9833,1.9615,1.9132,1.815,1.7367,1.7044,1.6009,1.4838,1.3407,1.3276,1.321,1.2947,1.16,1.0857,1.1092,1.1048,1.1087,1.1171,1.1217,1.1337,1.1398,1.147,1.1403,1.1216,1.1045,1.0867,0.0,0.0,0.0,0.0,0.0702,0.2154,0.4705,0.6041,0.7386,0.9773,1.0248,1.0144,0.9954,1.0131,1.0229,0.999,1.0509,1.1154,1.1689,1.239,1.303,1.3471,1.5478,1.7126,1.8099,2.0788,2.2876,2.3687,2.4164,2.4395,2.4275,2.3997,2.3772,2.3796,2.3772,2.3832,2.4057,2.3832,2.376,2.376,2.364,2.3507,2.3363,2.3043,2.2866,2.2721,2.2455,2.2334,2.2334,2.2334,2.2334,2.2321,2.2126,2.1993,2.1824,2.1426,2.1197,2.1086,2.0762,2.0665,2.0665,2.0665,2.0665,2.0665,2.0665,2.0665,2.0665,2.0665,2.0665,2.0665,2.0665,2.0179,1.9611,1.9611,1.8471,1.7549,1.8401,1.79,1.783,1.932,1.9611,1.9889,2.0596,2.0569,2.0388,2.011,1.9857,1.9382,1.8446,1.7573,1.6527,1.5219,1.4381,1.3341,1.1967,1.1835,1.1835,1.1835,1.1045,1.0647,1.0753,1.0684,1.0728,1.0798,1.1119,1.1269,1.1269,1.1551,1.1484,1.1224,1.1126,1.0948,0.0,0.0,0.0,0.0,0.0,0.0853,0.4048,0.499,0.6054,0.9148,1.004,1.0139,1.0014,1.0008,0.9943,0.9709,1.0278,1.1071,1.1966,1.2349,1.2774,1.3455,1.5011,1.6289,1.6893,1.9695,2.1683,2.2117,2.3116,2.3734,2.3712,2.37,2.3604,2.3387,2.3628,2.376,2.376,2.376,2.376,2.376,2.3495,2.3351,2.3369,2.2874,2.2709,2.2661,0.0,0.0,2.2334,2.2334,2.2309,2.2249,2.1957,2.1824,2.1691,2.1304,2.1098,2.1038,2.075,2.0665,2.0665,2.0665,2.0665,2.0665,2.0665,2.0665,2.0665,2.0665,2.0665,2.0665,2.0665,1.9541,1.8412,1.8412,1.7057,1.5849,1.6061,1.5919,1.6202,1.777,1.8051,1.8471,1.975,1.9991,1.9974,1.9938,1.9711,1.9048,1.762,1.7,1.5674,1.3079,1.2618,1.2033,1.0784,1.0717,1.0717,1.0717,1.0602,1.0514,1.0493,1.0331,1.0307,1.0425,1.0875,1.1148,1.1148,1.1526,1.1538,1.1149,1.1207,1.1078,0.0,0.0,0.0,0.0,0.0,0.0513,0.2644,0.4076,0.5602,0.769,0.9154,1.0008,0.9889,0.9949,0.9943,0.9709,1.0742,1.1739,1.2183,1.32,1.3671,1.3471,1.4143,1.5053,1.6227,1.7154,1.8815,2.148,2.1682,2.2155,2.3368,2.3435,2.3411,2.3375,2.3628,2.376,2.376,2.376,2.376,2.376,2.3495,2.3333,2.3169,2.2866,2.2612,2.2394,0.0,2.2334,2.2334,2.2334,2.22,2.1921,2.1885,2.1583,2.1244,2.1159,2.0989,2.0795,2.0678,2.0665,2.0665,2.0665,2.0665,2.0665,2.0665,2.0665,2.0665,2.0665,2.0665,2.0665,2.0665,1.9541,1.8412,1.8412,1.6282,1.4583,1.5849,1.515,1.4654,1.6131,1.6484,1.6554,1.6766,1.7879,1.863,1.8411,1.9182,1.9272,1.7642,1.6161,1.4577,1.2947,1.1703,1.0916,1.0717,1.0717,1.0717,1.0717,1.0697,1.0629,1.0493,1.0229,1.0073,1.0053,1.0325,1.0429,1.0429,1.1095,1.1235,1.104,1.1342,1.1265,0.0,0.0,0.0,0.0,0.0,0.0427,0.2189,0.3148,0.4406,0.7007,0.808,0.8847,0.9797,1.0079,1.0172,1.0318,1.0826,1.1376,1.2046,1.2483,1.2984,1.3435,1.377,1.4228,1.4953,1.5994,1.755,1.995,2.0562,2.1603,2.3159,2.3237,2.3164,2.3019,2.3418,2.3556,2.3556,2.3556,2.3628,2.384,2.343,2.3164,2.3109,2.2697,2.2455,2.2334,0.0,2.2334,2.2321,2.2102,2.1981,2.1836,2.1547,2.1353,2.111,2.0965,2.0844,2.0665,2.0665,2.0665,2.0665,2.0665,2.0665,2.0665,2.0665,2.0098,1.9471,1.9471,1.9471,1.9471,1.9471,1.77,1.5999,1.5999,1.4236,1.2817,1.3523,1.3174,1.3103,1.4654,1.4937,1.515,1.599,1.6695,1.7087,1.6977,1.7337,1.7052,1.5413,1.4463,1.3311,1.1843,1.1115,1.0717,1.0717,1.0717,1.0717,1.0717,1.0717,1.069,1.0616,1.0331,1.0175,1.0175,1.0244,1.0308,1.0308,1.0785,1.0951,1.0732,1.0909,1.0782,0.0,0.0,0.0,0.0,0.0,0.0339,0.1598,0.2257,0.3235,0.5815,0.6941,0.7831,0.9283,0.9903,1.034,1.0764,1.0831,1.1153,1.2065,1.2164,1.2554,1.361,1.3736,1.3797,1.3953,1.4894,1.6452,1.8467,1.9463,2.0835,2.287,2.3024,2.2939,2.2733,2.3176,2.3339,2.3357,2.3339,2.3471,2.3664,2.3212,2.3024,2.3012,2.2552,2.2334,2.2334,2.2334,2.2223,2.215,2.1957,2.18,2.1643,2.1292,2.1086,2.1013,2.0807,2.0665,2.0665,2.0665,2.0665,2.0665,2.0665,2.0457,2.0167,2.0167,1.9111,1.784,1.784,1.763,1.7419,1.777,1.5858,1.388,1.388,1.2753,1.1619,1.1619,1.1619,1.1972,1.3103,1.3389,1.3737,1.4867,1.5354,1.5566,1.5566,1.5682,1.5132,1.3574,1.3189,1.2409,1.0864,1.0717,1.0717,1.0717,1.0717,1.0717,1.0717,1.0717,1.0717,1.0717,1.0439,1.0283,1.0283,1.0225,1.0186,1.0186,1.055,1.0605,1.0487,1.0547,1.0399,0.0,0.0,0.0,0.0,0.0,0.0,0.0174,0.1385,0.257,0.2795,0.551,0.7809,0.7576,0.8993,1.0286,1.0541,1.1272,1.2009,1.2696,1.3154,1.3637,1.4055,1.4041,1.3939,1.3688,1.3596,1.4908,1.7978,1.7965,1.9265,2.2529,2.2757,2.2745,2.2733,2.3176,2.3333,2.3157,2.3333,2.3387,2.3399,2.2935,2.2757,2.2745,2.2467,2.2334,2.2334,2.2334,2.2126,2.1897,2.1873,2.1643,2.1183,2.1147,2.0977,2.0759,2.0747,2.0665,2.0665,2.0665,2.0665,2.0665,2.0665,1.975,1.8552,1.8552,1.7479,1.6272,1.6272,1.5292,1.4512,1.5919,1.5079,1.388,1.388,1.2753,1.1619,1.1619,1.1619,1.1619,1.1763,1.1763,1.1835,1.19,1.3103,1.4093,1.4093,1.4982,1.5132,1.3574,1.3189,1.2409,1.0864,1.0717,1.0717,1.0717,1.0717,1.0717,1.0717,1.0717,1.0717,1.0717,1.0439,1.0283,1.0283,0.9978,0.9822,0.9822,1.0186,1.0361,1.0347,1.0649,1.0681,0.0,0.0,0.0,0.0,0.0,0.0,0.0,0.0519,0.121,0.2249,0.4575,0.6993,0.8989,1.0195,1.0851,1.0791,1.1257,1.188,1.2774,1.2978,1.3254,1.3988,1.3912,1.3715,1.3505,1.3268,1.4143,1.6384,1.7116,1.8555,2.1009,2.1959,2.2564,2.2721,2.285,2.2983,2.3121,2.2983,2.2959,2.2959,2.2754,2.2648,2.2479,2.2382,2.2152,2.1788,2.1945,2.1873,2.1619,2.1438,2.1316,2.111,2.0953,2.0762,2.0665,2.0665,2.0665,2.0665,2.0665,2.0098,1.9251,1.9251,1.8261,1.6987,1.6987,1.5919,1.4725,1.4725,1.3666,1.2824,1.4378,1.3595,1.2466,1.2466,1.2043,1.1619,1.1619,1.1619,1.1619,1.1619,1.1619,1.1619,1.1619,1.2115,1.2466,1.2466,1.2836,1.2879,1.2223,1.208,1.1667,1.0887,1.0778,1.0717,1.0717,1.0717,1.0717,1.0717,1.0717,1.0717,1.0717,1.0521,1.0371,1.0283,1.0073,0.9856,0.9822,0.9943,1.0004,1.0004,1.0126,1.0102,0.0,0.0,0.0,0.0,0.0,0.0,0.0,0.0,0.0352,0.1504,0.3138,0.5716,0.9956,1.0477,1.0323,1.0783,1.1161,1.1748,1.2726,1.2729,1.2972,1.3792,1.3682,1.3478,1.3281,1.3037,1.3598,1.5319,1.619,1.7435,1.9198,2.074,2.1569,2.1744,2.2369,2.277,2.2866,2.2782,2.2685,2.26,2.26,2.2467,2.2138,2.2138,2.1945,2.1607,2.1704,2.1643,2.1462,2.1172,2.1086,2.0989,2.0738,2.0388,2.0028,2.0527,2.0388,1.9959,1.9959,1.9251,1.8342,1.784,1.6635,1.5425,1.5425,1.4369,1.3174,1.3174,1.2395,1.1835,1.2896,1.2395,1.1619,1.1619,1.1619,1.1619,1.1619,1.1619,1.1619,1.1619,1.1619,1.1619,1.1619,1.1619,1.1619,1.1619,1.1619,1.1565,1.1409,1.1389,1.128,1.0914,1.0786,1.0772,1.0724,1.0717,1.0717,1.0717,1.0717,1.0717,1.0717,1.0575,1.0446,1.0351,1.0202,1.0046,0.989,0.989,0.9869,0.9822,0.9822,0.9768,0.0,0.0,0.0,0.0,0.0,0.0,0.0,0.0,0.0,0.0095,0.1251,0.413,0.9874,0.9298,0.8554,1.0428,1.1036,1.162,1.2586,1.2667,1.2866,1.3368,1.3397,1.3281,1.299,1.282,1.3426,1.5063,1.4964,1.5625,1.7303,1.8905,1.9811,1.9811,2.1668,2.26,2.2346,2.2588,2.2588,2.2334,2.2334,2.22,2.1873,2.1873,2.1873,2.1848,2.1583,2.1474,2.145,2.1244,2.0907,2.0665,2.0665,1.975,1.8552,2.0098,1.968,1.8412,1.8412,1.8342,1.8121,1.6554,1.5079,1.388,1.388,1.2824,1.1619,1.1619,1.1619,1.1619,1.1619,1.1619,1.1619,1.1619,1.1619,1.1619,1.1619,1.1619,1.1619,1.1619,1.1619,1.1619,1.1619,1.1619,1.1619,1.1619,1.1619,1.1565,1.1409,1.1396,1.128,1.0914,1.088,1.082,1.0731,1.0717,1.0717,1.0717,1.0717,1.0717,1.0717,1.0575,1.0493,1.0493,1.0351,1.0202,0.9984,0.9984,0.9909,0.9822,0.9822,0.9822,0.0,0.0,0.0,0.0,0.0,0.0,0.0,0.0,0.0799,0.3699,0.4519,0.6051,1.0391,1.0704,1.0423,1.0788,1.1025,1.153,1.2574,1.2429,1.2539,1.3334,1.3119,1.2895,1.2807,1.2657,1.2802,1.3261,1.4284,1.5097,1.5625,1.829,1.9887,2.0059,2.1586,2.2503,2.2612,2.2503,2.2418,2.2334,2.2334,2.2029,2.1607,2.1788,2.1667,2.1293,2.1221,2.1185,2.1231,2.0895,2.0099,1.9111,1.9111,1.8121,1.6846,1.7338,1.7188,1.6766,1.6766,1.607,1.515,1.4725,1.3523,1.2259,1.2259,1.1972,1.1619,1.1619,1.1619,1.1619,1.1619,1.1619,1.1619,1.1619,1.1619,1.1619,1.1619,1.1619,1.1619,1.1619,1.1619,1.1619,1.1619,1.1619,1.1619,1.1619,1.1619,1.1606,1.1558,1.1457,1.1314,1.1118,1.1009,1.082,1.0731,1.0717,1.0717,1.0717,1.0717,1.0717,1.0717,1.0677,1.0602,1.0493,1.0351,1.0202,0.9984,0.9876,0.9863,0.9822,0.9822,0.9822,0.0,0.0,0.0,0.0,0.0,0.0,0.0,0.0,0.0909,0.4186,0.4735,0.5784,0.9535,1.0165,1.0355,1.0913,1.1052,1.1451,1.2336,1.2174,1.2274,1.3159,1.2881,1.2637,1.2637,1.2508,1.242,1.242,1.3385,1.3922,1.3862,1.7028,1.8881,1.9101,2.1192,2.2406,2.2576,2.2418,2.2334,2.2334,2.2334,2.2042,2.1631,2.1691,2.1474,2.1135,2.1135,2.1074,2.0895,2.0099,1.9251,1.8342,1.77,1.6564,1.5283,1.5849,1.5707,1.5221,1.5221,1.4654,1.3808,1.3174,1.2323,1.1619,1.1619,1.1619,1.1619,1.1619,1.1619,1.1619,1.1619,1.1619,1.1619,1.1619,1.1619,1.1619,1.1619,1.1619,1.1619,1.1619,1.1619,1.1619,1.1619,1.1619,1.1619,1.1619,1.1619,1.1619,1.1619,1.1538,1.1402,1.1185,1.1084,1.0948,1.0738,1.0717,1.0717,1.0717,1.0717,1.0717,1.0717,1.0717,1.0677,1.0582,1.0439,1.029,1.0141,0.9985,0.9883,0.9822,0.9822,0.9822,0.0,0.0,0.0,0.0,0.0,0.0,0.0,0.0,0.0572,0.2562,0.2924,0.4089,0.7877,0.847,0.9004,1.0821,1.1112,1.1315,1.2023,1.2052,1.2193,1.2795,1.2684,1.2508,1.2467,1.2359,1.2284,1.2271,1.24,1.2427,1.2298,1.5379,1.7227,1.7379,2.0425,2.2184,2.2334,2.2334,2.2321,2.2223,2.2223,2.2078,2.1788,2.1583,2.1305,2.1098,2.1122,2.0837,2.0388,1.8971,1.8272,1.784,1.6423,1.5008,1.388,1.5212,1.4867,1.3666,1.3666,1.3666,1.346,1.2043,1.1619,1.1619,1.1619,1.1619,1.1619,1.1619,1.1619,1.1619,1.1619,1.1619,1.1619,1.1619,1.1619,1.1619,1.1619,1.1619,1.1619,1.1619,1.1619,1.1619,1.1619,1.1619,1.1619,1.1619,1.1619,1.1619,1.1619,1.1619,1.1504,1.1199,1.1234,1.1043,1.0744,1.0717,1.0717,1.0717,1.0717,1.0717,1.0717,1.0717,1.0717,1.0717,1.0568,1.0426,1.0297,1.0134,0.9916,0.9842,0.9842,0.9836,0.0,0.0,0.0,0.0,0.0,0.0,0.0,0.0,0.0569,0.2587,0.2915,0.4071,0.799,0.8676,0.9167,1.0975,1.1161,1.1196,1.1562,1.1747,1.1931,1.2102,1.2409,1.2542,1.2189,1.2237,1.2244,1.2121,1.225,1.2325,1.2291,1.432,1.6007,1.7379,1.9283,2.0962,2.2259,2.2334,2.2162,0.0,2.1957,2.1776,2.1304,2.1402,2.1209,2.0832,2.1038,2.0262,1.8901,1.8552,1.6997,1.4804,1.4512,1.346,1.2115,1.2466,1.2395,1.2115,1.2115,1.2115,1.2043,1.1691,1.1619,1.1619,1.1619,1.1619,1.1619,1.1619,1.1619,1.1619,1.1619,1.1619,1.1619,1.1619,1.1619,1.1619,1.1619,1.1619,1.1619,1.1619,1.1619,1.1619,1.1619,1.1619,1.1619,1.1619,1.1619,1.1619,1.1619,1.1619,1.1504,1.1199,1.1234,1.1043,1.0744,1.0717,1.0717,1.0717,1.0717,1.0717,1.0717,1.0717,1.0717,1.0717,1.0568,1.0473,1.0446,1.0181,0.997,0.9936,0.9936,0.9876,0.0,0.0,0.0,0.0,0.0,0.0,0.0,0.0,0.0279,0.1371,0.2286,0.3843,0.6731,0.7985,0.9114,1.0944,1.109,1.1097,1.1263,1.1528,1.1721,1.1849,1.2216,1.2318,1.2088,1.2067,1.204,1.1959,1.2162,1.223,1.2081,1.3854,1.5658,1.7227,1.8919,2.0575,2.2259,2.2334,2.22,2.1873,2.1873,2.1583,2.1135,2.1076,2.0931,2.0678,2.0099,1.9304,1.8272,1.6856,1.5292,1.3808,1.3103,1.233,1.1619,1.1619,1.1619,1.1619,1.1619,1.1619,1.1619,1.1619,1.1619,1.1619,1.1619,1.1619,1.1619,1.1619,1.1619,1.1619,1.1619,1.1619,1.1619,1.1619,1.1619,1.1619,1.1619,1.1619,1.1619,1.1619,1.1619,1.1619,1.1619,1.1619,1.1619,1.1619,1.1619,1.1619,1.1619,1.1619,1.1531,1.1294,1.1206,1.1104,1.0948,1.0799,1.0778,1.0921,1.0867,1.0826,1.0826,1.0826,1.0799,1.0724,1.0568,1.0493,1.0493,1.027,1.0058,0.9984,0.9984,0.9903,0.0,0.0,0.0,0.0,0.0,0.0,0.0,0.0,0.0,0.0,0.1283,0.2934,0.4905,0.6424,0.8157,1.0249,1.048,1.0572,1.0973,1.1352,1.1653,1.1695,1.1954,1.2094,1.1993,1.1918,1.1857,1.183,1.2094,1.2149,1.1925,1.3506,1.5177,1.6693,1.8441,2.0133,2.1802,2.2112,2.214,2.18,2.1704,2.1426,2.0979,2.0553,2.0318,2.0237,1.8971,1.8121,1.7419,1.4946,1.3737,1.3389,1.2115,1.1619,1.1619,1.1619,1.1619,1.1619,1.1619,1.1619,1.1619,1.1619,1.1619,1.1619,1.1619,1.1619,1.1619,1.1619,1.1619,1.1619,1.1619,1.1619,1.1619,1.1619,1.1619,1.1619,1.1619,1.1619,1.1619,1.1619,1.1619,1.1619,1.1619,1.1619,1.1619,1.1619,1.1619,1.1619,1.1619,1.1619,1.1558,1.1409,1.1274,1.1261,1.1234,1.0941,1.0887,1.1111,1.1036,1.0962,1.0847,1.0867,1.0806,1.0724,1.0595,1.0527,1.0527,1.0365,1.0229,1.0058,1.0011,0.9916,0.0,0.0,0.0,0.0,0.0,0.0,0.0,0.0,0.0,0.0,0.0181,0.099,0.2874,0.3465,0.4742,0.8078,0.859,0.9025,1.0292,1.1213,1.1604,1.0987,1.1854,1.2244,1.1728,1.1891,1.1972,1.1843,1.1993,1.2135,1.2223,1.2381,1.3289,1.4985,1.6646,1.8299,1.9955,2.132,2.1788,2.1523,2.1052,2.0786,2.0714,1.9343,1.8692,1.8692,1.8482,1.6926,1.4449,1.4093,1.3103,1.1907,1.1691,1.1619,1.1619,1.1619,1.1619,1.1619,1.1619,1.1619,1.1619,1.1619,1.1619,1.1619,1.1619,1.1619,1.1619,1.1619,1.1619,1.1619,1.1619,1.1619,1.1619,1.1619,1.1619,1.1619,1.1619,1.1619,1.1619,1.1619,1.1619,1.1619,1.1619,1.1619,1.1619,1.1619,1.1619,1.1619,1.1619,1.1619,1.1558,1.1409,1.1375,1.1307,1.1241,1.1193,1.107,1.0982,1.1077,1.1016,1.0758,1.0813,1.0806,1.0724,1.0704,1.069,1.069,1.0412,1.0331,1.0426,1.0168,0.9977,0.0,0.0,0.0,0.0,0.0,0.0,0.0,0.0,0.0,0.0,0.0,0.0628,0.2509,0.2829,0.3666,0.6249,0.748,0.8227,0.8788,1.0442,1.1367,1.0851,1.1648,1.2088,1.166,1.1735,1.1782,1.1714,1.185,1.1925,1.1911,1.2006,1.2827,1.4529,1.5377,1.7049,1.965,2.021,2.032,2.0006,2.0496,2.0249,1.939,1.8692,1.8412,1.8342,1.6644,1.515,1.3808,1.296,1.2187,1.1619,1.1619,1.1619,1.1619,1.1619,1.1619,1.1619,1.1619,1.1619,1.1619,1.1619,1.1619,1.1619,1.1619,1.1619,1.1619,1.1619,1.1619,1.1619,1.1619,1.1619,1.1619,1.1619,1.1619,1.1619,1.1619,1.1619,1.1619,1.1619,1.1619,1.1619,1.1619,1.1619,1.1619,1.1619,1.1619,1.1619,1.1619,1.1619,1.1592,1.1525,1.1443,1.1396,1.1416,1.126,1.1212,1.1314,1.1301,1.1233,1.1104,1.1077,1.1002,1.0853,1.0765,1.0717,1.0717,1.0588,1.0514,1.0487,1.0276,1.0181,0.0,0.0,0.0,0.0,0.0,0.0,0.0,0.0,0.0,0.0,0.0,0.0448,0.1876,0.2112,0.2603,0.4496,0.5822,0.6841,0.756,0.9492,1.08,1.0763,1.1538,1.1945,1.1647,1.1653,1.1674,1.1674,1.1769,1.1803,1.1735,1.187,1.255,1.3761,1.4332,1.5799,1.8414,1.8927,1.9079,1.8741,2.0052,1.968,1.784,1.784,1.763,1.7137,1.4875,1.3666,1.3246,1.2043,1.1619,1.1619,1.1619,1.1619,1.1619,1.1619,1.1619,1.1619,1.1619,1.1619,1.1619,1.1619,1.1619,1.1619,1.1619,1.1619,1.1619,1.1619,1.1619,1.1619,1.1619,1.1619,1.1619,1.1619,1.1619,1.1619,1.1619,1.1619,1.1619,1.1619,1.1619,1.1619,1.1619,1.1619,1.1619,1.1619,1.1619,1.1619,1.1619,1.1619,1.1619,1.1619,1.1518,1.1497,1.1606,1.1409,1.1362,1.1552,1.1491,1.1416,1.1335,1.1226,1.1097,1.0887,1.0799,1.0717,1.0717,1.0683,1.0622,1.0548,1.0365,1.0297,0.0,0.0,0.0,0.0,0.0,0.0,0.0,0.0,0.0,0.0,0.0,0.0,0.0089,0.0175,0.0693,0.257,0.2877,0.408,0.7243,0.8505,0.9466,1.0625,1.1538,1.1945,1.1647,1.1742,1.1823,1.1823,1.183,1.1891,1.2033,1.1789,1.1701,1.191,1.3517,1.439,1.4544,1.7427,1.867,1.8422,1.997,1.9111,1.6202,1.6202,1.5425,1.4164,1.3951,1.3103,1.1691,1.1619,1.1619,1.1619,1.1619,1.1619,1.1619,1.1619,1.1619,1.1619,1.1619,1.1619,1.1619,1.1619,1.1619,1.1619,1.1619,1.1619,1.1619,1.1619,1.1619,1.1619,1.1619,1.1619,1.1619,1.1619,1.1619,1.1619,1.1619,1.1619,1.1619,1.1619,1.1619,1.1619,1.1619,1.1619,1.1619,1.1619,1.1619,1.1619,1.1619,1.1619,1.1619,1.1619,1.1613,1.1613,1.1619,1.1606,1.1538,1.1409,1.1531,1.1477,1.1185,1.1165,1.1097,1.0887,1.0799,1.0717,1.0717,1.0575,1.0575,1.0704,1.0412,1.0351,0.0,0.0,0.0,0.0,0.0,0.0,0.0,0.0,0.0,0.0,0.0,0.0,0.0,0.0,0.0173,0.0857,0.1841,0.2958,0.4185,0.6672,0.866,0.928,1.0808,1.1828,1.1925,1.1857,1.183,1.183,1.1748,1.1721,1.1775,1.1681,1.1687,1.1823,1.2408,1.3202,1.4148,1.6237,1.6706,1.5504,1.7057,1.6695,1.4654,1.4654,1.4369,1.3808,1.2824,1.2115,1.1619,1.1619,1.1619,1.1619,1.1619,1.1619,1.1619,1.1619,1.1619,1.1619,1.1619,1.1619,1.1619,1.1619,1.1619,1.1619,1.1619,1.1619,1.1619,1.1619,1.1619,1.1619,1.1619,1.1619,1.1619,1.1619,1.1619,1.1619,1.1619,1.1619,1.1619,1.1619,1.1619,1.1619,1.1619,1.1619,1.1619,1.1619,1.1619,1.1619,1.1619,1.1619,1.1619,1.1619,1.1619,1.1619,1.1619,1.1619,1.1599,1.1538,1.1592,1.1572,1.1457,1.1362,1.124,1.109,1.0941,1.0819,1.0717,1.0663,1.0663,1.0717,1.0514,1.0493,0.0,0.0,0.0,0.0,0.0,0.0,0.0,0.0,0.0,0.0,0.0,0.0,0.0,0.0,0.0,0.0,0.0916,0.1887,0.2451,0.4731,0.6934,0.8325,0.9873,1.1138,1.1932,1.1891,1.1809,1.1762,1.1674,0.0,1.1619,1.1619,1.166,1.1755,1.1762,1.2482,1.3994,1.5067,1.5069,1.3951,1.5425,1.5079,1.3174,1.3666,1.3595,1.3103,1.2043,1.1619,1.1619,1.1619,1.1619,1.1619,1.1619,1.1619,1.1619,1.1619,1.1619,1.1619,1.1619,1.1619,1.1619,1.1619,1.1619,1.1619,1.1619,1.1619,1.1619,1.1619,1.1619,1.1619,1.1619,1.1619,1.1619,1.1619,1.1619,1.1619,1.1619,1.1619,1.1619,1.1619,1.1619,1.1619,1.1619,1.1619,1.1619,1.1619,1.1619,1.1619,1.1619,1.1619,1.1619,1.1619,1.1619,1.1619,1.1619,1.1619,1.1619,1.1619,1.1619,1.1619,1.1619,1.147,1.1321,1.1165,1.1023,1.0806,1.0717,1.0717,1.0717,1.0717,1.0616,1.0622,0.0,0.0,0.0,0.0,0.0,0.0,0.0,0.0,0.0,0.0,0.0,0.0,0.0,0.0,0.0,0.0,0.0,0.0582,0.2166,0.2818,0.4396,0.7945,0.8827,0.9882,1.1583,1.177,1.1782,1.164,1.1626,1.1626,1.1619,1.1619,1.1619,1.1619,1.1619,1.2323,1.3808,1.3808,1.3808,1.388,1.5283,1.4441,1.1619,1.3174,1.3031,1.1619,1.1619,1.1619,1.1619,1.1619,1.1619,1.1619,1.1619,1.1619,1.1619,1.1619,1.1619,1.1619,1.1619,1.1619,1.1619,1.1619,1.1619,1.1619,1.1619,1.1619,1.1619,1.1619,1.1619,1.1619,1.1619,1.1619,1.1619,1.1619,1.1619,1.1619,1.1619,1.1619,1.1619,1.1619,1.1619,1.1619,1.1619,1.1619,1.1619,1.1619,1.1619,1.1619,1.1619,1.1619,1.1619,1.1619,1.1619,1.1619,1.1619,1.1619,1.1619,1.1619,1.1619,1.1619,1.1619,1.1477,1.1321,1.1165,1.1023,1.0806,1.0717,1.0717,1.0717,1.0717,1.0717,1.0717,0.0,0.0,0.0,0.0,0.0,0.0,0.0,0.0,0.0,0.0,0.0,0.0,0.0,0.0,0.0,0.0,0.0,0.0162,0.0648,0.1837,0.3161,0.4416,0.7115,0.9228,1.0009,1.1289,1.1979,0.0,1.1837,1.1728,1.1626,1.1619,1.1619,1.1619,1.1619,1.1835,1.2259,1.2259,1.2259,1.2259,1.2681,1.2395,1.1619,1.2043,1.1972,1.1619,1.1619,1.1619,1.1619,1.1619,1.1619,1.1619,1.1619,1.1619,1.1619,1.1619,1.1619,1.1619,1.1619,1.1619,1.1619,1.1619,1.1619,1.1619,1.1619,1.1619,1.1619,1.1619,1.1619,1.1619,1.1619,1.1619,1.1619,1.1619,1.1619,1.1619,1.1619,1.1619,1.1619,1.1619,1.1619,1.1619,1.1619,1.1619,1.1619,1.1619,1.1619,1.1619,1.1619,1.1619,1.1619,1.1619,1.1619,1.1619,1.1619,1.1619,1.1619,1.1619,1.1619,1.1619,1.1619,1.1579,1.143,1.1165,1.1124,1.0975,1.0717,1.0717,1.0717,1.0717,1.0717,1.0717,0.0,0.0,0.0,0.0,0.0,0.0,0.0,0.0,0.0,0.0,0.0,0.0,0.0,0.0,0.0,0.0,0.0,0.0,0.0,0.0875,0.1976,0.3243,0.5968,0.827,0.9464,1.1182,1.2128,1.2067,1.1979,1.1864,1.1714,1.1653,1.1619,1.1619,1.1619,1.1619,1.1619,1.1619,1.1619,1.1619,1.1619,1.1619,1.1619,1.1619,1.1619,1.1619,1.1619,1.1619,1.1619,1.1619,1.1619,1.1619,1.1619,1.1619,1.1619,1.1619,1.1619,1.1619,1.1619,1.1619,1.1619,1.1619,1.1619,1.1619,1.1619,1.1619,1.1619,1.1619,1.1619,1.1619,1.1619,1.1619,1.1619,1.1619,1.1619,1.1619,1.1619,1.1619,1.1619,1.1619,1.1619,1.1619,1.1619,1.1619,1.1619,1.1619,1.1619,1.1619,1.1619,1.1619,1.1619,1.1619,1.1619,1.1619,1.1619,1.1619,1.1592,1.1531,1.1525,1.1497,1.143,1.143,1.1314,1.1077,1.107,1.0955,1.0717,1.0717,1.0717,1.0717,1.0717,1.0717,0.0,0.0,0.0,0.0,0.0,0.0,0.0,0.0,0.0,0.0,0.0,0.0,0.0,0.0,0.0,0.0,0.0,0.0,0.0,0.0,0.0876,0.3144,0.5167,0.7162,0.9239,1.1219,1.2237,1.2094,1.2054,1.1986,1.1864,1.1708,1.1619,1.1619,1.1619,1.1619,1.1619,1.1619,1.1619,1.1619,1.1619,1.1619,1.1619,1.1619,1.1619,1.1619,1.1619,1.1619,1.1619,1.1619,1.1619,1.1619,1.1619,1.1619,1.1619,1.1619,1.1619,1.1619,1.1619,1.1619,1.1619,1.1619,1.1619,1.1619,1.1619,1.1619,1.1619,1.1619,1.1619,1.1619,1.1619,1.1619,1.1619,1.1619,1.1619,1.1619,1.1619,1.1619,1.1619,1.1619,1.1619,1.1619,1.1619,1.1619,1.1619,1.1619,1.1619,1.1619,1.1619,1.1619,1.1619,1.1619,1.1619,1.1619,1.1619,1.1619,1.1552,1.1402,1.1389,1.1321,1.1241,1.1234,1.1097,1.0887,1.086,1.0786,1.0717,1.0717,1.0717,1.0717,1.0717,1.0717,0.0,0.0,0.0,0.0,0.0,0.0,0.0,0.0,0.0,0.0,0.0,0.0,0.0,0.0,0.0,0.0,0.0,0.0,0.0,0.0,0.0319,0.1115,0.4252,0.664,0.7407,1.0426,1.2277,1.225,1.202,1.1918,1.2013,1.1762,1.1619,1.1619,1.1619,1.1619,1.1619,1.1619,1.1619,1.1619,1.1619,1.1619,1.1619,1.1619,1.1619,1.1619,1.1619,1.1619,1.1619,1.1619,1.1619,1.1619,1.1619,1.1619,1.1619,1.1619,1.1619,1.1619,1.1619,1.1619,1.1619,1.1619,1.1619,1.1619,1.1619,1.1619,1.1619,1.1619,1.1619,1.1619,1.1619,1.1619,1.1619,1.1619,1.1619,1.1619,1.1619,1.1619,1.1619,1.1619,1.1619,1.1619,1.1619,1.1619,1.1619,1.1619,1.1619,1.1619,1.1619,1.1619,1.1619,1.1619,1.1619,1.1619,1.1619,1.1619,1.1552,1.1402,1.1389,1.1321,1.1241,1.1234,1.1097,1.0887,1.0759,1.0751,1.0717,1.0717,1.0717,1.0717,1.0717,1.0717,0.0,0.0,0.0,0.0,0.0,0.0,0.0,0.0,0.0,0.0,0.0,0.0,0.0,0.0,0.0,0.0,0.0,0.0,0.0,0.0,0.0237,0.0865,0.3352,0.5572,0.6919,0.9466,1.1334,1.2176,1.2033,1.1945,1.1945,1.1735,1.1619,1.1619,1.1619,1.1619,1.1619,1.1619,1.1619,1.1619,1.1619,1.1619,1.1619,1.1619,1.1619,1.1619,1.1619,1.1619,1.1619,1.1619,1.1619,1.1619,1.1619,1.1619,1.1619,1.1619,1.1619,1.1619,1.1619,1.1619,1.1619,1.1619,1.1619,1.1619,1.1619,1.1619,1.1619,1.1619,1.1619,1.1619,1.1619,1.1619,1.1619,1.1619,1.1619,1.1619,1.1619,1.1619,1.1619,1.1619,1.1619,1.1619,1.1619,1.1619,1.1619,1.1619,1.1619,1.1619,1.1619,1.1619,1.1619,1.1619,1.1619,1.1619,1.1619,1.1619,1.1518,1.1294,1.1274,1.1179,1.0955,1.0941,1.0907,1.0766,1.0758,1.0717,1.0717,1.0717,1.0717,1.0717,1.0717,1.0717,0.0,0.0,0.0,0.0,0.0,0.0,0.0,0.0,0.0,0.0,0.0,0.0,0.0,0.0,0.0,0.0,0.0,0.0,0.0,0.0,0.0,0.101,0.2622,0.4586,0.6895,0.9,1.0727,1.1986,1.2135,1.1993,1.1837,1.1694,1.1619,1.1619,1.1619,1.1619,1.1619,1.1619,1.1619,1.1619,1.1619,1.1619,1.1619,1.1619,1.1619,1.1619,1.1619,1.1619,1.1619,1.1619,1.1619,1.1619,1.1619,1.1619,1.1619,1.1619,1.1619,1.1619,1.1619,1.1619,1.1619,1.1619,1.1619,1.1619,1.1619,1.1619,1.1619,1.1619,1.1619,1.1619,1.1619,1.1619,1.1619,1.1619,1.1619,1.1619,1.1619,1.1619,1.1619,1.1619,1.1619,1.1619,1.1619,1.1619,1.1619,1.1619,1.1619,1.1619,1.1619,1.1619,1.1619,1.1619,1.1619,1.1619,1.1619,1.1619,1.1491,1.1255,1.1234,1.1029,1.0731,1.0717,1.0717,1.0717,1.0751,1.0751,1.0717,1.0751,1.0751,1.0717,1.0717,1.0717,0.0,0.0,0.0,0.0,0.0,0.0,0.0,0.0,0.0,0.0,0.0,0.0,0.0,0.0,0.0,0.0,0.0,0.0,0.0,0.0,0.0156,0.0636,0.2474,0.4482,0.6586,0.996,1.2052,1.2074,1.2135,1.1993,1.1837,1.1694,1.1619,1.1619,1.1619,1.1619,1.1619,1.1619,1.1619,1.1619,1.1619,1.1619,1.1619,1.1619,1.1619,1.1619,1.1619,1.1619,1.1619,1.1619,1.1619,1.1619,1.1619,1.1619,1.1619,1.1619,1.1619,1.1619,1.1619,1.1619,1.1619,1.1619,1.1619,1.1619,1.1619,1.1619,1.1619,1.1619,1.1619,1.1619,1.1619,1.1619,1.1619,1.1619,1.1619,1.1619,1.1619,1.1619,1.1619,1.1619,1.1619,1.1619,1.1619,1.1619,1.1619,1.1619,1.1619,1.1619,1.1619,1.1619,1.1619,1.1619,1.1619,1.1619,1.1619,1.1619,1.1491,1.1255,1.1234,1.1029,1.0731,1.0717,1.0717,1.0717,1.0786,1.0786,1.0717,1.0793,1.0786,1.0717,1.0717,1.0717,0.1588,0.0839,0.0252,0.1338,0.1592,0.184,0.2863,0.235,0.1606,0.1582,0.0,0.0,0.0,0.0,0.0,0.0,0.0,0.0,0.0,0.0,0.0151,0.0541,0.0,0.0,0.6251,0.9944,1.206,1.1823,1.1965,1.1959,1.1721,1.1653,1.1619,1.1619,1.1619,1.1619,1.1619,1.1619,1.1619,1.1619,1.1619,1.1619,1.1619,1.1619,1.1619,1.1619,1.1619,1.1619,1.1619,1.1619,1.1619,1.1619,1.1619,1.1619,1.1619,1.1619,1.1619,1.1619,1.1619,1.1619,1.1619,1.1619,1.1619,1.1619,1.1619,1.1619,1.1619,1.1619,1.1619,1.1619,1.1619,1.1619,1.1619,1.1619,1.1619,1.1619,1.1619,1.1619,1.1619,1.1619,1.1619,1.1619,1.1619,1.1619,1.1619,1.1619,1.1619,1.1619,1.1619,1.1619,1.1619,1.1619,1.1619,1.1619,1.1619,1.1538,1.1396,1.1179,1.1084,1.0982,1.0793,1.0853,1.0894,1.0975,1.0955,1.0955,1.0975,1.0955,1.0847,1.0786,1.0765,1.0717,0.3414,0.2425,0.1766,0.3108,0.3444,0.377,0.5065,0.4345,0.3327,0.2842,0.1648,0.0,0.0,0.0,0.0,0.0,0.0,0.0,0.0,0.0,0.0074,0.0378,0.0977,0.0,0.0,0.9276,1.1305,1.0913,1.167,1.1911,1.1579,1.1599,1.1619,1.1619,1.1619,1.1619,1.1619,1.1619,1.1619,1.1619,1.1619,1.1619,1.1619,1.1619,1.1619,1.1619,1.1619,1.1619,1.1619,1.1619,1.1619,1.1619,1.1619,1.1619,1.1619,1.1619,1.1619,1.1619,1.1619,1.1619,1.1619,1.1619,1.1619,1.1619,1.1619,1.1619,1.1619,1.1619,1.1619,1.1619,1.1619,1.1619,1.1619,1.1619,1.1619,1.1619,1.1619,1.1619,1.1619,1.1619,1.1619,1.1619,1.1619,1.1619,1.1619,1.1619,1.1619,1.1619,1.1619,1.1619,1.1619,1.1619,1.1619,1.1599,1.1558,1.1491,1.1389,1.1233,1.109,1.1009,1.1009,1.1009,1.1056,1.1227,1.1104,1.1104,1.1234,1.1097,1.105,1.1002,1.0812,1.0717,0.5129,0.5198,0.5203,0.5287,0.5287,0.5371,0.5368,0.5358,0.4786,0.3084,0.2682,0.2077,0.0308,0.0,0.0,0.0,0.0,0.0,0.0,0.0,0.0,0.0,0.2041,0.3776,0.0,0.7848,0.9671,0.924,1.1001,1.187,1.1423,1.1538,1.1619,1.1619,1.1619,1.1619,1.1619,1.1619,1.1619,1.1619,1.1619,1.1619,1.1619,1.1619,1.1619,1.1619,1.1619,1.1619,1.1619,1.1619,1.1619,1.1619,1.1619,1.1619,1.1619,1.1619,1.1619,1.1619,1.1619,1.1619,1.1619,1.1619,1.1619,1.1619,1.1619,1.1619,1.1619,1.1619,1.1619,1.1619,1.1619,1.1619,1.1619,1.1619,1.1619,1.1619,1.1619,1.1619,1.1619,1.1619,1.1619,1.1619,1.1619,1.1619,1.1619,1.1619,1.1619,1.1619,1.1619,1.1619,1.1619,1.1619,1.1619,1.1558,1.1409,1.1531,1.1545,1.1396,1.124,1.1158,1.1158,1.1158,1.1158,1.1234,1.1301,1.1307,1.1234,1.1307,1.1301,1.1151,1.0853,1.0717,0.0,0.0,0.5415,0.6646,0.0,0.7233,0.8527,0.7868,0.6813,0.6243,0.5158,0.3729,0.2006,0.0,0.0,0.0,0.0,0.0,0.0,0.0,0.0221,0.0747,0.239,0.3731,0.4255,0.0,0.0,0.9116,1.0687,1.1552,1.1402,1.1443,1.1511,1.1613,1.1619,1.1619,1.1619,1.1619,1.1619,1.1619,1.1619,1.1619,1.1619,1.1619,1.1619,1.1619,1.1619,1.1619,1.1619,1.1619,1.1619,1.1619,1.1619,1.1619,1.1619,1.1619,1.1619,1.1619,1.1619,1.1619,1.1619,1.1619,1.1619,1.1619,1.1619,1.1619,1.1619,1.1619,1.1619,1.1619,1.1619,1.1619,1.1619,1.1619,1.1619,1.1619,1.1619,1.1619,1.1619,1.1619,1.1619,1.1619,1.1619,1.1619,1.1619,1.1619,1.1619,1.1619,1.1619,1.1619,1.1619,1.1619,1.1619,1.1599,1.1545,1.1497,1.1402,1.1246,1.1287,1.1314,1.1314,1.1314,1.1362,1.1463,1.1416,1.1416,1.1463,1.1416,1.1362,1.1307,1.1111,1.0962,0.8625,0.7758,0.0,0.8352,0.8679,0.0,1.0232,0.0,0.8391,0.7217,0.6008,0.4426,0.2034,0.0,0.0,0.0,0.0,0.0,0.0,0.0,0.0221,0.0891,0.2021,0.3147,0.4157,0.6373,0.8081,0.8862,0.9983,1.0851,0.0,1.1362,1.1463,1.1613,1.1619,1.1619,1.1619,1.1619,1.1619,1.1619,1.1619,1.1619,1.1619,1.1619,1.1619,1.1619,1.1619,1.1619,1.1619,1.1619,1.1619,1.1619,1.1619,1.1619,1.1619,1.1619,1.1619,1.1619,1.1619,1.1619,1.1619,1.1619,1.1619,1.1619,1.1619,1.1619,1.1606,1.1552,1.1579,1.1606,1.1552,1.1579,1.1619,1.1619,1.1619,1.1619,1.1619,1.1619,1.1619,1.1619,1.1619,1.1619,1.1619,1.1619,1.1619,1.1619,1.1619,1.1619,1.1619,1.1619,1.1619,1.1619,1.1619,1.1619,1.1619,1.1477,1.1369,1.1328,1.1416,1.147,1.147,1.147,1.1619,1.1925,1.1633,1.1626,1.1932,1.1626,1.147,1.147,1.1314,1.1192]}]]